[[{"header":{"parameterUnit":"m.s-1","parameterCategory":1,"la1":31.0,"la2":29.5877,"lo1":-88.7671,"lo2":-86.6584,"dy":0.0162,"dx":0.0185,"nx":115,"ny":88,"refTime":"2024-05-07T06:00:00:Z","depth":0,"parameterNumber":2,"parameterNumberName":"U-component_of_WINDS"},"data":[0.0,0.0,0.0,0.0,0.0,0.0,0.0,0.0,0.0,0.0,0.0,0.0,0.0,0.0,0.0,0.0,0.0,0.0,0.0,0.0,0.0,0.0,0.0,0.0,0.0,0.0,0.0,0.0,0.0,0.0,0.0,0.0,0.0,0.0,0.0,0.0,0.0,0.0,0.0,0.0,0.0,0.0,0.0,0.0,0.0,0.0,0.0,0.0,0.0,0.0,0.0,0.0,0.0,0.0,0.0,0.0,0.0,0.0,0.0,0.0,0.0,0.0,0.0,0.0,0.0,0.0,0.0,0.0,0.0,0.0,0.0,0.0,0.0,0.0,0.0,0.0,0.0,0.0,0.0,0.0,0.0,0.0,0.0,0.0,0.0,0.0,0.0,0.0,0.0,0.0,0.0,0.0,0.0,0.0,0.0,0.0,0.0,0.0,0.0,0.0,0.0,0.0,0.0,0.0,0.0,0.0,0.0,0.0,0.0,0.0,0.0,0.0,0.0,0.0,0.0,0.0,0.0,0.0,0.0,0.0,0.0,0.0,0.0,0.0,0.0,0.0,0.0,0.0,0.0,0.0,0.0,0.0,0.0,0.0,0.0,0.0,0.0,0.0,0.0,0.0,0.0,0.0,0.0,0.0,0.0,0.0,0.0,0.0,0.0,0.0,0.0,0.0,0.0,0.0,0.0,0.0,0.0,0.0,0.0,0.0,0.0,0.0,0.0,0.0,0.0,0.0,0.0,0.0,0.0,0.0,0.0,0.0,0.0,0.0,0.0,0.0,0.0,0.0,0.0,0.0,0.0,0.0,0.0,0.0,0.0,0.0,0.0,0.0,0.0,0.0,0.0,0.0,0.0,0.0,0.0,0.0,0.0,0.0,0.0,0.0,0.0,0.0,0.0,0.0,0.0,0.0,0.0,0.0,0.0,0.0,0.0,0.0,0.0,0.0,0.0,0.0,0.0,0.0,0.0,0.0,0.0,0.0,0.0,0.0,0.0,0.0,0.0,0.0,0.0,0.0,0.0,0.0,0.0,0.0,0.0,0.0,0.0,0.0,0.0,0.0,0.0,0.0,0.0,0.0,0.0,0.0,0.0,0.0,0.0,0.0,0.0,0.0,0.0,0.0,0.0,0.0,0.0,0.0,0.0,0.0,0.0,0.0,0.0,0.0,0.0,0.0,0.0,0.0,0.0,0.0,0.0,0.0,0.0,0.0,0.0,0.0,0.0,0.0,0.0,0.0,0.0,0.0,0.0,0.0,0.0,0.0,0.0,0.0,0.0,0.0,0.0,0.0,0.0,0.0,0.0,0.0,0.0,0.0,0.0,0.0,0.0,0.0,0.0,0.0,0.0,0.0,0.0,0.0,0.0,0.0,0.0,0.0,0.0,0.0,0.0,0.0,0.0,0.0,0.0,0.0,0.0,0.0,0.0,0.0,0.0,0.0,0.0,0.0,0.0,0.0,0.0,0.0,0.0,0.0,0.0,0.0,0.0,0.0,0.0,0.0,0.0,0.0,0.0,0.0,0.0,0.0,0.0,0.0,0.0,0.0,0.0,0.0,0.0,0.0,0.0,0.0,0.0,0.0,0.0,0.0,0.0,0.0,0.0,0.0,0.0,0.0,0.0,0.0,0.0,0.0,0.0,0.0,0.0,0.0,0.0,0.0,0.0,0.0,0.0,0.0,0.0,0.0,0.0,0.0,0.0,0.0,0.0,0.0,0.0,0.0,0.0,0.0,0.0,0.0,0.0,0.0,0.0,0.0,0.0,0.0,0.0,0.0,0.0,0.0,0.0,0.0,0.0,0.0,0.0,0.0,0.0,0.0,0.0,0.0,0.0,0.0,0.0,0.0,0.0,0.0,0.0,0.0,0.0,0.0,0.0,0.0,0.0,0.0,0.0,0.0,0.0,0.0,0.0,0.0,0.0,0.0,0.0,0.0,0.0,0.0,0.0,0.0,0.0,0.0,0.0,0.0,0.0,0.0,0.0,0.0,0.0,0.0,0.0,0.0,0.0,0.0,0.0,0.0,0.0,0.0,0.0,0.0,0.0,0.0,0.0,0.0,0.0,0.0,0.0,0.0,0.0,0.0,0.0,0.0,0.0,0.0,0.0,0.0,0.0,0.0,0.0,0.0,0.0,0.0,0.0,0.0,0.0,0.0,0.0,0.0,0.0,0.0,0.0,0.0,0.0,0.0,0.0,0.0,0.0,0.0,0.0,0.0,0.0,0.0,0.0,0.0,0.0,0.0,0.0,0.0,0.0,0.0,0.0,0.0,0.0,0.0,0.0,0.0,0.0,0.0,0.0,0.0,0.0,0.0,0.0,0.0,0.0,0.0,0.0,0.0,0.0,0.0,0.0,0.0,0.0,0.0,0.0,0.0,0.0,0.0,0.0,0.0,0.0,0.0,0.0,0.0,0.0,0.0,0.0,0.0,0.0,0.0,0.0,0.0,0.0,0.0,0.0,0.0,0.0,0.0,0.0,0.0,0.0,0.0,0.0,0.0,0.0,0.0,0.0,0.0,0.0,0.0,0.0,0.0,0.0,0.0,0.0,0.0,0.0,0.0,0.0,0.0,0.0,0.0,0.0,0.0,0.0,0.0,0.0,0.0,0.0,0.0,0.0,0.0,0.0,0.0,0.0,0.0,0.0,0.0,0.0,0.0,0.0,0.0,0.0,0.0,0.0,0.0,0.0,0.0,0.0,0.0,0.0,0.0,0.0,0.0,0.0,0.0,0.0,0.0,0.0,0.0,0.0,0.0,0.0,0.0,0.0,0.0,0.0,0.0,0.0,0.0,0.0,0.0,0.0,0.0,0.0,0.0,0.0,0.0,0.0,0.0,0.0,0.0,0.0,0.0,0.0,0.0,0.0,0.0,0.0,0.0,0.0,0.0,0.0,0.0,0.0,0.0,0.0,0.0,0.0,0.0,0.0,0.0,0.0,0.0,0.0,0.0,0.0,0.0,0.0,0.0,0.0,0.0,0.0,0.0,0.0,0.0,0.0,0.0,0.0,0.0,0.0,0.0,0.0,0.0,0.0,0.0,0.0,0.0,0.0,0.0,0.0,0.0,0.0,0.0,0.0,0.0,0.0,0.0,0.0,0.0,0.0,0.0,0.0,0.0,0.0,0.0,0.0,0.0,0.0,0.0,0.0,0.0,0.0,0.0,0.0,0.0,0.0,0.0,0.0,0.0,0.0,0.0,0.0,0.0,0.0,0.0,0.0,0.0,0.0,0.0,0.0,0.0,0.0,0.0,0.0,0.0,0.0,0.0,0.0,0.0,0.0,0.0,0.0,0.0,0.0,0.0,0.0,0.0,0.0,0.0,0.0,0.0,0.0,0.0,0.0,0.0,0.0,0.0,0.0,0.0,0.0,0.0,0.0,0.0,0.0,0.0,0.0,0.0,0.0,0.0,0.0,0.0,0.0,0.0,0.0,0.0,0.0,0.0,0.0,0.0,0.0,0.0,0.0,0.0,0.0,0.0,0.0,0.0,0.0,0.0,0.0,0.0,0.0,0.0,0.0,0.0,0.0,0.0,0.0,0.0,0.0,0.0,0.0,0.0,0.0,0.0,0.0,0.0,0.0,0.0,0.0,0.0,0.0,0.0,0.0,0.0,0.0,0.0,0.0,0.0,0.0,0.0,0.0,0.0,0.0,0.0,0.0,0.0,0.0,0.0,0.0,0.0,0.0,0.0,0.0,0.0,0.0,0.0,0.0,0.0,0.0,0.0,0.0,0.0,0.0,0.0,0.0,0.0,0.0,0.0,0.0,0.0,0.0,0.0,0.0,0.0,0.0,0.0,0.0,0.0,0.0,0.0,0.0,0.0,0.0,0.0,0.0,0.0,0.0,0.0,0.0,0.0,0.0,0.0,0.0,0.0,0.0,0.0,0.0,0.0,0.0,0.0,0.0,0.0,0.0,0.0,0.0,0.0,0.0,0.0,0.0,0.0,0.0,0.0,0.0,0.0,0.0,0.0,0.0,0.0,0.0,0.0,0.0,0.0,0.0,0.0,0.0,0.0,0.0,0.0,0.0,0.0,0.0,0.0,0.0,0.0,0.0,0.0,0.0,0.0,0.0,0.0,0.0,0.0,0.0,0.0,0.0,0.0,0.0,0.0,0.0,0.0,0.0,0.0,0.0,0.0,0.0,0.0,0.0,0.0,0.0,0.0,0.0,0.0,0.0,0.0,0.0,0.0,0.0,0.0,0.0,0.0,0.0,0.0,0.0,0.0,0.0,0.0,0.0,0.0,-5.6558,0.0,0.0,0.0,-5.6381,0.0,0.0,0.0,0.0,0.0,0.0,0.0,0.0,0.0,0.0,0.0,0.0,0.0,0.0,0.0,0.0,0.0,0.0,0.0,0.0,0.0,0.0,0.0,0.0,0.0,0.0,0.0,0.0,0.0,0.0,0.0,0.0,0.0,0.0,0.0,0.0,0.0,0.0,0.0,0.0,0.0,0.0,0.0,0.0,0.0,0.0,0.0,0.0,0.0,0.0,0.0,0.0,0.0,0.0,0.0,0.0,0.0,0.0,0.0,0.0,0.0,0.0,0.0,0.0,0.0,0.0,0.0,0.0,0.0,0.0,0.0,0.0,0.0,0.0,0.0,0.0,0.0,0.0,0.0,0.0,0.0,0.0,0.0,0.0,0.0,0.0,0.0,0.0,0.0,0.0,0.0,0.0,0.0,0.0,0.0,0.0,0.0,0.0,0.0,0.0,0.0,0.0,0.0,0.0,0.0,0.0,0.0,0.0,0.0,0.0,-5.656,-5.6509,-5.6491,-5.6468,-5.639,0.0,0.0,0.0,0.0,0.0,0.0,0.0,0.0,0.0,0.0,0.0,0.0,0.0,0.0,0.0,0.0,0.0,0.0,0.0,0.0,0.0,0.0,0.0,0.0,0.0,0.0,0.0,0.0,0.0,0.0,0.0,0.0,0.0,0.0,0.0,0.0,0.0,0.0,0.0,0.0,0.0,0.0,0.0,0.0,0.0,0.0,0.0,0.0,0.0,0.0,0.0,0.0,0.0,0.0,0.0,0.0,0.0,0.0,0.0,0.0,0.0,0.0,0.0,0.0,0.0,0.0,0.0,0.0,0.0,0.0,0.0,0.0,0.0,0.0,0.0,0.0,0.0,0.0,0.0,0.0,0.0,0.0,0.0,0.0,0.0,0.0,0.0,0.0,0.0,0.0,0.0,0.0,0.0,0.0,0.0,0.0,0.0,0.0,0.0,0.0,0.0,0.0,0.0,0.0,0.0,0.0,0.0,0.0,0.0,0.0,0.0,0.0,-5.6536,-5.6386,-5.6061,0.0,0.0,0.0,0.0,0.0,0.0,0.0,0.0,0.0,0.0,0.0,0.0,0.0,0.0,0.0,0.0,0.0,0.0,0.0,0.0,0.0,0.0,0.0,0.0,0.0,0.0,0.0,0.0,0.0,0.0,0.0,0.0,0.0,0.0,0.0,0.0,0.0,0.0,0.0,0.0,0.0,0.0,0.0,0.0,0.0,0.0,0.0,0.0,0.0,0.0,0.0,0.0,0.0,0.0,0.0,0.0,0.0,0.0,0.0,0.0,0.0,0.0,0.0,0.0,0.0,0.0,0.0,0.0,0.0,0.0,0.0,0.0,0.0,0.0,0.0,0.0,0.0,0.0,0.0,0.0,0.0,0.0,0.0,0.0,0.0,0.0,0.0,0.0,0.0,0.0,0.0,0.0,0.0,0.0,0.0,0.0,0.0,0.0,0.0,0.0,0.0,0.0,0.0,0.0,0.0,0.0,0.0,0.0,0.0,0.0,-5.661,-5.6579,-5.6545,0.0,-5.5234,0.0,0.0,0.0,0.0,0.0,0.0,0.0,0.0,0.0,0.0,0.0,0.0,0.0,0.0,0.0,0.0,0.0,0.0,0.0,0.0,0.0,0.0,0.0,0.0,0.0,0.0,0.0,0.0,0.0,0.0,0.0,0.0,0.0,0.0,0.0,0.0,0.0,0.0,0.0,0.0,0.0,0.0,0.0,0.0,0.0,0.0,0.0,0.0,0.0,0.0,0.0,0.0,0.0,0.0,0.0,0.0,0.0,0.0,0.0,0.0,0.0,0.0,0.0,0.0,0.0,0.0,0.0,0.0,0.0,0.0,0.0,0.0,0.0,0.0,0.0,0.0,0.0,0.0,0.0,0.0,0.0,0.0,0.0,0.0,0.0,0.0,0.0,0.0,0.0,0.0,0.0,0.0,0.0,0.0,0.0,0.0,0.0,0.0,0.0,0.0,0.0,0.0,0.0,0.0,0.0,0.0,0.0,0.0,0.0,0.0,-5.6616,-5.6621,-5.6548,-5.6059,0.0,0.0,0.0,0.0,0.0,0.0,0.0,0.0,0.0,0.0,0.0,0.0,0.0,0.0,0.0,0.0,0.0,0.0,0.0,0.0,0.0,0.0,0.0,0.0,0.0,0.0,0.0,0.0,0.0,0.0,0.0,0.0,0.0,0.0,0.0,0.0,0.0,0.0,0.0,0.0,0.0,0.0,0.0,0.0,0.0,0.0,0.0,0.0,0.0,0.0,0.0,0.0,0.0,0.0,0.0,0.0,0.0,0.0,0.0,0.0,0.0,0.0,0.0,0.0,0.0,0.0,0.0,0.0,0.0,0.0,0.0,0.0,0.0,0.0,0.0,0.0,0.0,0.0,0.0,0.0,0.0,0.0,0.0,0.0,0.0,0.0,0.0,0.0,0.0,0.0,0.0,0.0,0.0,0.0,0.0,0.0,0.0,0.0,0.0,0.0,0.0,0.0,0.0,0.0,0.0,0.0,0.0,0.0,0.0,0.0,-5.6623,-5.6579,-5.6569,-5.6503,-5.5942,-5.4796,0.0,0.0,0.0,0.0,0.0,0.0,0.0,0.0,0.0,0.0,0.0,0.0,0.0,0.0,0.0,0.0,0.0,0.0,0.0,0.0,0.0,0.0,0.0,0.0,0.0,0.0,0.0,0.0,0.0,0.0,0.0,0.0,0.0,0.0,0.0,0.0,0.0,0.0,0.0,0.0,0.0,0.0,0.0,0.0,0.0,0.0,0.0,0.0,0.0,0.0,0.0,0.0,0.0,0.0,0.0,0.0,0.0,0.0,0.0,0.0,0.0,0.0,0.0,0.0,0.0,0.0,0.0,0.0,0.0,0.0,0.0,0.0,0.0,0.0,0.0,0.0,0.0,0.0,0.0,0.0,0.0,0.0,0.0,0.0,0.0,0.0,0.0,0.0,0.0,0.0,0.0,0.0,0.0,0.0,0.0,0.0,0.0,0.0,0.0,0.0,0.0,0.0,0.0,0.0,0.0,0.0,0.0,0.0,-5.6631,-5.6624,-5.6567,-5.6527,-5.6485,-5.567,0.0,0.0,0.0,0.0,0.0,0.0,0.0,0.0,0.0,0.0,0.0,0.0,0.0,0.0,0.0,0.0,0.0,0.0,0.0,0.0,0.0,0.0,0.0,0.0,0.0,0.0,0.0,0.0,0.0,0.0,0.0,0.0,0.0,0.0,0.0,0.0,0.0,0.0,0.0,0.0,0.0,0.0,0.0,0.0,0.0,0.0,0.0,0.0,0.0,0.0,0.0,0.0,0.0,0.0,0.0,0.0,0.0,0.0,0.0,0.0,0.0,0.0,0.0,0.0,0.0,0.0,0.0,0.0,0.0,0.0,0.0,0.0,0.0,0.0,0.0,0.0,0.0,0.0,0.0,0.0,0.0,0.0,0.0,0.0,0.0,0.0,0.0,0.0,0.0,0.0,0.0,0.0,0.0,0.0,0.0,0.0,0.0,0.0,0.0,0.0,0.0,0.0,0.0,0.0,0.0,0.0,0.0,0.0,0.0,-5.7452,-5.7918,-5.7942,-5.7385,-5.7343,-5.6215,0.0,0.0,0.0,0.0,0.0,0.0,0.0,0.0,0.0,0.0,0.0,0.0,0.0,0.0,0.0,0.0,0.0,0.0,0.0,0.0,0.0,0.0,0.0,0.0,0.0,0.0,0.0,0.0,0.0,0.0,0.0,0.0,0.0,0.0,0.0,0.0,0.0,0.0,0.0,0.0,0.0,0.0,0.0,0.0,0.0,0.0,0.0,0.0,0.0,0.0,0.0,0.0,0.0,0.0,0.0,0.0,0.0,0.0,0.0,0.0,0.0,0.0,0.0,0.0,0.0,0.0,0.0,0.0,0.0,0.0,0.0,0.0,0.0,0.0,0.0,0.0,0.0,0.0,0.0,0.0,0.0,0.0,0.0,0.0,0.0,0.0,0.0,0.0,0.0,0.0,0.0,0.0,0.0,0.0,0.0,0.0,0.0,0.0,0.0,0.0,0.0,0.0,0.0,0.0,0.0,0.0,0.0,0.0,0.0,-5.8308,0.0,-5.8799,-5.8244,-5.7918,-5.6788,0.0,0.0,0.0,0.0,0.0,0.0,0.0,0.0,0.0,0.0,0.0,0.0,0.0,0.0,0.0,0.0,0.0,0.0,0.0,0.0,0.0,0.0,0.0,0.0,0.0,0.0,0.0,0.0,0.0,0.0,0.0,0.0,0.0,0.0,0.0,0.0,0.0,0.0,0.0,0.0,0.0,0.0,0.0,0.0,0.0,0.0,0.0,0.0,0.0,0.0,0.0,0.0,0.0,0.0,0.0,0.0,0.0,0.0,0.0,0.0,0.0,0.0,0.0,0.0,0.0,0.0,0.0,0.0,0.0,0.0,0.0,0.0,0.0,0.0,0.0,0.0,0.0,0.0,0.0,0.0,0.0,0.0,0.0,0.0,0.0,0.0,0.0,0.0,0.0,0.0,0.0,0.0,0.0,0.0,0.0,0.0,0.0,0.0,0.0,0.0,0.0,0.0,0.0,0.0,0.0,0.0,0.0,0.0,-5.8339,-5.9119,-5.9226,-5.9324,-5.9137,-5.832,-5.7381,0.0,0.0,0.0,0.0,0.0,0.0,0.0,0.0,0.0,0.0,0.0,0.0,0.0,0.0,0.0,0.0,0.0,0.0,0.0,0.0,0.0,0.0,0.0,0.0,0.0,0.0,0.0,0.0,0.0,0.0,0.0,0.0,0.0,0.0,0.0,0.0,0.0,0.0,0.0,0.0,0.0,0.0,0.0,0.0,0.0,0.0,0.0,0.0,0.0,0.0,0.0,0.0,0.0,0.0,0.0,0.0,0.0,0.0,0.0,0.0,0.0,0.0,0.0,0.0,0.0,0.0,0.0,0.0,0.0,0.0,0.0,0.0,0.0,0.0,0.0,0.0,0.0,0.0,0.0,0.0,0.0,0.0,0.0,0.0,0.0,0.0,0.0,0.0,0.0,0.0,0.0,0.0,0.0,0.0,0.0,0.0,0.0,0.0,0.0,0.0,0.0,0.0,0.0,0.0,0.0,0.0,0.0,0.0,0.0,-6.1803,-6.2335,-6.2308,-6.1669,-6.0818,-5.9332,0.0,0.0,0.0,0.0,0.0,0.0,0.0,0.0,0.0,0.0,0.0,0.0,0.0,0.0,0.0,0.0,0.0,0.0,0.0,0.0,0.0,0.0,0.0,0.0,0.0,0.0,0.0,0.0,0.0,0.0,0.0,0.0,0.0,0.0,0.0,0.0,0.0,0.0,0.0,0.0,0.0,0.0,0.0,0.0,0.0,0.0,0.0,0.0,0.0,0.0,0.0,0.0,0.0,0.0,0.0,0.0,0.0,0.0,0.0,0.0,0.0,0.0,0.0,0.0,0.0,0.0,0.0,0.0,0.0,0.0,0.0,0.0,0.0,0.0,0.0,0.0,0.0,0.0,0.0,0.0,0.0,0.0,0.0,0.0,0.0,0.0,0.0,0.0,0.0,0.0,0.0,0.0,0.0,0.0,0.0,0.0,0.0,0.0,0.0,0.0,0.0,0.0,0.0,0.0,0.0,0.0,0.0,0.0,0.0,-6.5839,-6.564,-6.5285,-6.4743,-6.3145,-6.1259,-5.9056,0.0,0.0,0.0,0.0,0.0,0.0,0.0,0.0,0.0,0.0,0.0,0.0,0.0,0.0,0.0,0.0,0.0,0.0,0.0,0.0,0.0,0.0,0.0,0.0,0.0,0.0,0.0,0.0,0.0,0.0,0.0,0.0,0.0,0.0,0.0,0.0,0.0,0.0,0.0,0.0,0.0,0.0,0.0,0.0,0.0,0.0,0.0,0.0,0.0,0.0,0.0,0.0,0.0,0.0,0.0,0.0,0.0,0.0,0.0,0.0,0.0,0.0,0.0,0.0,0.0,0.0,0.0,0.0,0.0,0.0,0.0,0.0,0.0,0.0,0.0,0.0,0.0,0.0,0.0,0.0,0.0,0.0,0.0,0.0,0.0,0.0,0.0,0.0,0.0,0.0,0.0,0.0,0.0,0.0,0.0,0.0,0.0,0.0,0.0,0.0,0.0,0.0,0.0,0.0,0.0,0.0,0.0,0.0,-7.0715,-6.9077,-6.8235,-6.8163,-6.5421,-6.315,0.0,0.0,0.0,0.0,0.0,0.0,0.0,0.0,0.0,0.0,0.0,0.0,0.0,0.0,0.0,0.0,0.0,0.0,0.0,0.0,0.0,0.0,0.0,0.0,0.0,0.0,0.0,0.0,0.0,0.0,0.0,0.0,0.0,0.0,0.0,0.0,0.0,0.0,0.0,0.0,0.0,0.0,0.0,0.0,0.0,0.0,0.0,0.0,0.0,0.0,0.0,0.0,0.0,0.0,0.0,0.0,0.0,0.0,0.0,0.0,0.0,0.0,0.0,0.0,0.0,0.0,0.0,0.0,0.0,0.0,0.0,0.0,0.0,0.0,0.0,0.0,0.0,0.0,0.0,0.0,0.0,0.0,0.0,0.0,0.0,0.0,0.0,0.0,0.0,0.0,0.0,0.0,0.0,0.0,0.0,0.0,0.0,0.0,0.0,0.0,0.0,0.0,0.0,0.0,0.0,0.0,0.0,0.0,0.0,-7.2334,-7.2927,-7.2637,-7.1513,-6.8264,-6.5731,0.0,0.0,0.0,0.0,0.0,0.0,0.0,0.0,0.0,0.0,0.0,0.0,0.0,0.0,0.0,0.0,0.0,0.0,0.0,0.0,0.0,0.0,0.0,0.0,0.0,0.0,0.0,0.0,0.0,0.0,0.0,0.0,0.0,0.0,0.0,0.0,0.0,0.0,0.0,0.0,0.0,0.0,0.0,0.0,0.0,0.0,0.0,0.0,0.0,0.0,0.0,0.0,0.0,0.0,0.0,0.0,0.0,0.0,0.0,0.0,0.0,0.0,0.0,0.0,0.0,0.0,0.0,0.0,0.0,0.0,0.0,0.0,0.0,0.0,0.0,0.0,0.0,0.0,0.0,0.0,0.0,0.0,0.0,0.0,0.0,0.0,0.0,0.0,0.0,0.0,0.0,0.0,0.0,0.0,0.0,0.0,0.0,0.0,0.0,0.0,0.0,0.0,0.0,0.0,0.0,0.0,0.0,0.0,-7.1577,-7.4068,-7.51,-7.5376,-7.4808,-7.1053,-6.7894,0.0,0.0,0.0,0.0,0.0,0.0,0.0,0.0,0.0,0.0,0.0,0.0,0.0,0.0,0.0,0.0,0.0,0.0,0.0,0.0,0.0,0.0,0.0,0.0,0.0,0.0,0.0,0.0,0.0,0.0,0.0,0.0,0.0,0.0,0.0,0.0,0.0,0.0,0.0,0.0,0.0,0.0,0.0,0.0,0.0,0.0,0.0,0.0,0.0,0.0,0.0,0.0,0.0,0.0,0.0,0.0,0.0,0.0,0.0,0.0,0.0,0.0,0.0,0.0,0.0,0.0,0.0,0.0,0.0,0.0,0.0,0.0,0.0,0.0,0.0,0.0,0.0,0.0,0.0,0.0,0.0,0.0,0.0,0.0,0.0,0.0,0.0,0.0,0.0,0.0,0.0,0.0,0.0,0.0,0.0,0.0,0.0,0.0,0.0,0.0,0.0,0.0,0.0,0.0,0.0,0.0,0.0,0.0,-7.3016,-7.5432,-7.6109,-7.6653,-7.7074,-7.3317,-6.9717,0.0,0.0,0.0,0.0,0.0,0.0,0.0,0.0,0.0,0.0,0.0,0.0,0.0,0.0,0.0,0.0,0.0,0.0,0.0,0.0,0.0,0.0,0.0,0.0,0.0,0.0,0.0,0.0,0.0,0.0,0.0,0.0,0.0,0.0,0.0,0.0,0.0,0.0,0.0,0.0,0.0,0.0,0.0,0.0,0.0,0.0,0.0,0.0,0.0,0.0,0.0,0.0,0.0,0.0,0.0,0.0,0.0,0.0,0.0,0.0,0.0,0.0,0.0,0.0,0.0,0.0,0.0,0.0,0.0,0.0,0.0,0.0,0.0,0.0,0.0,0.0,0.0,0.0,0.0,0.0,0.0,0.0,0.0,0.0,0.0,0.0,0.0,0.0,0.0,0.0,0.0,0.0,0.0,0.0,0.0,0.0,0.0,0.0,0.0,0.0,0.0,0.0,0.0,0.0,0.0,0.0,0.0,0.0,-7.297,-7.5353,-7.6077,-7.6091,-7.5466,-7.3253,-7.0812,0.0,0.0,0.0,0.0,0.0,0.0,0.0,0.0,0.0,0.0,0.0,0.0,0.0,0.0,0.0,0.0,0.0,0.0,0.0,0.0,0.0,0.0,0.0,0.0,0.0,0.0,0.0,0.0,0.0,0.0,0.0,0.0,0.0,0.0,0.0,0.0,0.0,0.0,0.0,0.0,0.0,0.0,0.0,0.0,0.0,0.0,0.0,0.0,-5.707,0.0,0.0,0.0,0.0,0.0,0.0,0.0,0.0,0.0,0.0,0.0,0.0,0.0,0.0,0.0,0.0,0.0,0.0,0.0,0.0,0.0,0.0,0.0,0.0,0.0,0.0,0.0,0.0,0.0,0.0,0.0,0.0,0.0,0.0,0.0,0.0,0.0,0.0,0.0,0.0,0.0,0.0,0.0,0.0,0.0,0.0,0.0,0.0,0.0,0.0,0.0,0.0,0.0,0.0,0.0,0.0,0.0,0.0,0.0,-7.271,-7.4645,-7.5819,-7.5888,-7.4807,-7.3545,-7.1325,0.0,0.0,0.0,0.0,0.0,0.0,0.0,0.0,0.0,0.0,0.0,0.0,0.0,0.0,0.0,0.0,0.0,0.0,0.0,0.0,0.0,0.0,0.0,0.0,0.0,0.0,0.0,0.0,0.0,0.0,0.0,0.0,0.0,0.0,0.0,0.0,0.0,0.0,0.0,0.0,0.0,0.0,0.0,0.0,0.0,0.0,0.0,0.0,0.0,0.0,0.0,0.0,0.0,0.0,0.0,0.0,0.0,0.0,0.0,0.0,0.0,0.0,0.0,0.0,0.0,0.0,0.0,0.0,0.0,0.0,0.0,0.0,0.0,0.0,0.0,0.0,0.0,0.0,0.0,0.0,0.0,0.0,0.0,0.0,0.0,0.0,0.0,0.0,0.0,0.0,0.0,0.0,0.0,0.0,0.0,0.0,0.0,0.0,0.0,0.0,0.0,0.0,0.0,0.0,0.0,0.0,0.0,-7.0129,-7.2483,-7.4098,-7.5442,-7.5607,-7.4361,-7.3553,-7.1222,-6.7263,0.0,0.0,0.0,0.0,0.0,0.0,0.0,0.0,0.0,0.0,0.0,0.0,0.0,0.0,0.0,0.0,0.0,0.0,0.0,0.0,0.0,0.0,0.0,0.0,0.0,0.0,0.0,0.0,0.0,0.0,0.0,0.0,0.0,0.0,0.0,0.0,0.0,0.0,-6.1709,-6.1712,0.0,0.0,0.0,0.0,0.0,0.0,0.0,0.0,-5.6368,0.0,0.0,0.0,0.0,0.0,0.0,0.0,0.0,0.0,0.0,0.0,0.0,0.0,0.0,0.0,0.0,0.0,0.0,0.0,0.0,0.0,0.0,0.0,0.0,0.0,0.0,0.0,0.0,0.0,0.0,0.0,0.0,0.0,0.0,0.0,0.0,0.0,0.0,0.0,0.0,0.0,0.0,0.0,0.0,0.0,0.0,0.0,0.0,0.0,0.0,0.0,0.0,0.0,0.0,0.0,0.0,-6.8844,-7.0635,-7.2657,-7.4911,-7.5101,-7.4346,-7.2682,-7.1783,-6.9682,-6.6387,0.0,0.0,0.0,0.0,0.0,0.0,0.0,0.0,0.0,0.0,0.0,0.0,0.0,0.0,0.0,0.0,0.0,0.0,0.0,0.0,0.0,0.0,0.0,0.0,0.0,0.0,0.0,0.0,0.0,0.0,0.0,0.0,0.0,0.0,0.0,0.0,0.0,0.0,0.0,-6.1701,-6.1668,0.0,0.0,0.0,0.0,0.0,0.0,0.0,0.0,-5.6592,0.0,0.0,0.0,0.0,0.0,0.0,0.0,0.0,0.0,0.0,0.0,0.0,0.0,0.0,0.0,0.0,0.0,0.0,0.0,0.0,0.0,0.0,0.0,0.0,0.0,0.0,0.0,0.0,0.0,0.0,0.0,0.0,0.0,0.0,0.0,0.0,0.0,0.0,0.0,0.0,0.0,0.0,0.0,0.0,0.0,0.0,0.0,0.0,0.0,0.0,0.0,0.0,0.0,0.0,0.0,-6.7807,-7.0222,-7.225,-7.3694,-7.4062,-7.36,-7.2259,-7.1401,-6.9387,0.0,0.0,0.0,0.0,0.0,0.0,0.0,0.0,0.0,0.0,0.0,0.0,0.0,0.0,0.0,0.0,0.0,0.0,0.0,0.0,0.0,0.0,0.0,0.0,0.0,0.0,0.0,0.0,0.0,0.0,0.0,0.0,0.0,0.0,0.0,0.0,0.0,0.0,0.0,0.0,-6.1681,-6.1538,-6.1078,0.0,0.0,0.0,0.0,0.0,0.0,-5.6667,-5.6528,0.0,0.0,0.0,0.0,0.0,0.0,0.0,0.0,0.0,0.0,0.0,0.0,0.0,0.0,0.0,0.0,0.0,0.0,0.0,0.0,0.0,0.0,0.0,0.0,0.0,0.0,0.0,0.0,0.0,0.0,0.0,0.0,0.0,0.0,0.0,0.0,0.0,0.0,0.0,0.0,0.0,0.0,0.0,0.0,0.0,0.0,0.0,0.0,0.0,0.0,0.0,0.0,0.0,0.0,0.0,-6.6726,-6.9649,-7.1598,-7.2391,-7.3009,-7.2867,-7.1951,-7.1017,-6.914,0.0,0.0,0.0,0.0,0.0,0.0,0.0,0.0,0.0,0.0,0.0,0.0,0.0,0.0,0.0,0.0,0.0,0.0,0.0,0.0,0.0,0.0,0.0,0.0,0.0,0.0,0.0,0.0,0.0,0.0,0.0,0.0,0.0,0.0,0.0,0.0,0.0,0.0,0.0,0.0,0.0,-6.1356,-6.0542,-5.9675,0.0,0.0,0.0,0.0,-5.6436,-5.6464,0.0,0.0,0.0,0.0,0.0,0.0,0.0,0.0,0.0,0.0,0.0,0.0,0.0,0.0,0.0,0.0,0.0,0.0,0.0,0.0,0.0,0.0,0.0,0.0,0.0,0.0,0.0,0.0,0.0,0.0,0.0,0.0,0.0,0.0,0.0,0.0,0.0,0.0,0.0,0.0,0.0,0.0,0.0,0.0,0.0,0.0,0.0,0.0,0.0,0.0,0.0,0.0,0.0,0.0,0.0,0.0,-6.7534,-6.9266,-7.0899,-7.2314,-7.2378,-7.1964,-7.1052,-6.963,-6.7992,0.0,0.0,0.0,0.0,0.0,0.0,0.0,0.0,0.0,0.0,0.0,0.0,0.0,0.0,0.0,0.0,0.0,0.0,0.0,0.0,0.0,0.0,0.0,0.0,0.0,0.0,0.0,0.0,0.0,0.0,0.0,0.0,0.0,0.0,0.0,0.0,0.0,0.0,0.0,0.0,0.0,-6.1315,-6.0489,-5.9639,-5.8799,0.0,0.0,-5.6562,-5.6597,-5.6548,0.0,0.0,0.0,0.0,0.0,0.0,0.0,0.0,0.0,0.0,0.0,0.0,0.0,0.0,0.0,0.0,0.0,0.0,0.0,0.0,0.0,0.0,0.0,0.0,0.0,0.0,0.0,0.0,0.0,0.0,0.0,0.0,0.0,0.0,0.0,0.0,0.0,0.0,0.0,0.0,0.0,0.0,0.0,0.0,0.0,0.0,0.0,0.0,0.0,0.0,0.0,0.0,0.0,0.0,0.0,-6.5418,-6.6842,-6.8935,-7.0494,-7.1506,-7.1505,-7.1093,-7.0244,-6.9218,-6.7614,0.0,0.0,0.0,0.0,0.0,0.0,0.0,0.0,0.0,0.0,0.0,0.0,0.0,0.0,0.0,0.0,0.0,0.0,0.0,0.0,0.0,0.0,0.0,0.0,0.0,0.0,0.0,0.0,0.0,0.0,0.0,0.0,0.0,0.0,0.0,0.0,0.0,0.0,0.0,0.0,0.0,0.0,-5.8948,-5.8538,0.0,0.0,0.0,-5.6555,-5.6561,0.0,0.0,0.0,0.0,0.0,0.0,0.0,0.0,0.0,0.0,0.0,0.0,0.0,0.0,0.0,0.0,0.0,0.0,0.0,0.0,0.0,0.0,0.0,0.0,0.0,0.0,0.0,0.0,0.0,0.0,0.0,0.0,0.0,0.0,0.0,0.0,0.0,0.0,0.0,0.0,0.0,0.0,0.0,0.0,0.0,0.0,0.0,0.0,0.0,0.0,0.0,0.0,0.0,0.0,0.0,0.0,0.0,-6.5896,-6.838,-6.9946,-7.0631,-7.0863,-7.0709,-7.0067,-6.9165,0.0,0.0,0.0,0.0,0.0,0.0,0.0,0.0,0.0,0.0,0.0,0.0,0.0,0.0,0.0,0.0,0.0,0.0,0.0,0.0,0.0,0.0,0.0,0.0,0.0,0.0,0.0,-5.2494,0.0,0.0,0.0,0.0,0.0,0.0,0.0,0.0,0.0,0.0,0.0,0.0,0.0,0.0,-5.8613,-5.7746,-5.7614,-5.7251,0.0,0.0,-5.6043,-5.5868,-5.5332,-5.5145,0.0,0.0,0.0,0.0,0.0,0.0,0.0,0.0,0.0,0.0,0.0,0.0,0.0,0.0,0.0,0.0,0.0,0.0,0.0,0.0,0.0,0.0,0.0,0.0,0.0,0.0,0.0,0.0,0.0,0.0,0.0,0.0,0.0,0.0,0.0,0.0,0.0,0.0,0.0,0.0,0.0,0.0,0.0,0.0,0.0,0.0,0.0,0.0,0.0,0.0,0.0,0.0,0.0,0.0,-6.4341,-6.5045,-6.7454,-6.9114,-6.9875,-7.0606,-7.0992,-7.0965,-6.9447,-6.7807,0.0,0.0,0.0,0.0,0.0,0.0,0.0,0.0,0.0,0.0,0.0,0.0,0.0,0.0,0.0,0.0,0.0,0.0,0.0,0.0,0.0,0.0,0.0,0.0,0.0,0.0,0.0,0.0,0.0,0.0,0.0,0.0,0.0,0.0,0.0,0.0,0.0,0.0,0.0,0.0,0.0,-5.8512,-5.7709,-5.7552,-5.6918,0.0,-5.5103,-5.4849,-5.4078,-5.3943,-5.3923,-5.3982,0.0,0.0,0.0,0.0,0.0,0.0,0.0,0.0,0.0,0.0,0.0,0.0,0.0,0.0,0.0,0.0,0.0,0.0,0.0,0.0,0.0,0.0,0.0,0.0,0.0,0.0,0.0,0.0,0.0,0.0,0.0,0.0,0.0,0.0,0.0,0.0,0.0,0.0,0.0,0.0,0.0,0.0,0.0,0.0,0.0,0.0,0.0,0.0,0.0,0.0,0.0,0.0,0.0,-6.4438,-6.5652,-6.7636,-6.9022,-6.981,-7.0669,-7.0346,-6.8791,-6.8745,-6.7437,0.0,0.0,0.0,0.0,0.0,0.0,0.0,0.0,0.0,0.0,0.0,0.0,0.0,0.0,0.0,0.0,0.0,0.0,0.0,0.0,0.0,0.0,0.0,0.0,0.0,0.0,0.0,0.0,-5.1373,-5.1845,-5.2402,0.0,0.0,0.0,0.0,0.0,0.0,0.0,0.0,0.0,0.0,-5.6223,-5.5853,-5.6226,0.0,0.0,-5.4861,-5.4594,-5.3802,-5.3263,-5.3137,-5.3657,-5.3321,0.0,0.0,0.0,0.0,0.0,0.0,0.0,0.0,0.0,0.0,0.0,0.0,0.0,0.0,0.0,0.0,0.0,0.0,0.0,0.0,0.0,0.0,0.0,0.0,0.0,0.0,0.0,0.0,0.0,0.0,0.0,0.0,0.0,0.0,0.0,0.0,0.0,0.0,0.0,0.0,0.0,0.0,0.0,0.0,0.0,0.0,0.0,0.0,0.0,0.0,0.0,0.0,-6.4414,-6.5694,-6.7641,-6.8868,-6.945,-7.0332,-6.9838,-6.7884,-6.8171,-6.6995,0.0,0.0,0.0,0.0,0.0,0.0,0.0,0.0,0.0,0.0,0.0,0.0,0.0,0.0,0.0,0.0,0.0,0.0,0.0,0.0,0.0,0.0,0.0,0.0,0.0,0.0,0.0,0.0,-5.1095,-5.1519,-5.2429,0.0,0.0,0.0,0.0,0.0,0.0,0.0,0.0,0.0,0.0,-5.4436,-5.4349,-5.4791,-5.485,-5.4044,-5.3986,-5.3685,-5.287,-5.2291,-5.2052,-5.2421,0.0,0.0,0.0,0.0,0.0,0.0,0.0,0.0,0.0,0.0,0.0,0.0,0.0,0.0,0.0,0.0,0.0,0.0,0.0,0.0,0.0,0.0,0.0,0.0,0.0,0.0,0.0,-5.8841,0.0,0.0,-5.8913,0.0,0.0,0.0,0.0,0.0,0.0,0.0,0.0,0.0,0.0,0.0,0.0,0.0,0.0,0.0,0.0,0.0,0.0,0.0,0.0,0.0,0.0,-6.4106,-6.4883,-6.7301,-6.8576,-6.8663,-6.9506,-6.9563,-6.8728,-6.7901,-6.6604,-6.4865,0.0,0.0,0.0,0.0,0.0,0.0,0.0,0.0,0.0,0.0,0.0,0.0,0.0,0.0,0.0,0.0,0.0,0.0,0.0,0.0,0.0,0.0,0.0,0.0,0.0,0.0,-5.1082,-5.1175,-5.1566,0.0,0.0,0.0,0.0,0.0,0.0,0.0,0.0,0.0,-5.3751,-5.3669,-5.3576,-5.3456,-5.3433,-5.3213,-5.2326,-5.221,-5.1871,-5.1022,-5.0829,-5.0538,0.0,0.0,0.0,0.0,0.0,0.0,0.0,0.0,0.0,0.0,0.0,0.0,0.0,0.0,0.0,0.0,0.0,0.0,0.0,0.0,0.0,0.0,0.0,0.0,0.0,0.0,0.0,-5.9766,-5.9685,0.0,0.0,0.0,0.0,0.0,0.0,0.0,0.0,0.0,0.0,0.0,-6.366,-6.3118,0.0,0.0,0.0,0.0,0.0,0.0,0.0,0.0,0.0,0.0,0.0,0.0,-6.4567,-6.6422,-6.7814,-6.8574,-6.8636,-7.0054,-6.9607,-6.7152,-6.7905,-6.7005,-6.4193,0.0,0.0,0.0,0.0,0.0,0.0,0.0,0.0,0.0,0.0,0.0,0.0,0.0,0.0,0.0,0.0,0.0,0.0,0.0,0.0,0.0,0.0,0.0,0.0,0.0,-5.1125,0.0,0.0,0.0,0.0,0.0,0.0,0.0,0.0,0.0,0.0,0.0,-5.2317,-5.2764,-5.275,-5.2647,-5.2545,-5.2936,-5.2905,0.0,0.0,0.0,0.0,0.0,0.0,0.0,0.0,0.0,0.0,0.0,0.0,0.0,0.0,-5.1327,-5.1753,-5.1664,-5.1522,-5.1522,0.0,0.0,0.0,0.0,0.0,0.0,0.0,0.0,0.0,0.0,0.0,0.0,0.0,0.0,-6.1893,0.0,-6.1568,0.0,0.0,0.0,0.0,0.0,0.0,0.0,0.0,-6.4811,-6.5041,-6.5269,-6.47,-6.4381,0.0,-6.3833,-6.2472,0.0,0.0,0.0,0.0,0.0,0.0,0.0,0.0,-6.5104,-6.7209,-6.7865,-6.8301,-6.8672,-6.9507,-6.8777,-6.6301,-6.6706,-6.5923,-6.3729,-6.1167,-5.93,0.0,0.0,0.0,0.0,0.0,0.0,0.0,0.0,0.0,0.0,0.0,0.0,0.0,0.0,0.0,0.0,0.0,0.0,0.0,0.0,0.0,0.0,0.0,-5.1581,0.0,0.0,0.0,0.0,0.0,0.0,0.0,0.0,0.0,-5.2523,-5.1593,-5.091,-5.1042,-5.0939,-5.0789,-5.0738,0.0,0.0,0.0,0.0,0.0,0.0,0.0,-4.8498,-4.7654,-4.7759,-4.8168,-4.8781,-4.8947,-4.9061,-4.9442,0.0,0.0,-5.0433,-5.0675,-5.0756,-5.0811,-5.0819,-5.0858,-5.0858,-5.0833,-5.0769,0.0,0.0,0.0,0.0,0.0,0.0,0.0,0.0,-6.514,-6.5123,0.0,-6.4278,0.0,0.0,0.0,0.0,-6.3886,-6.4656,0.0,0.0,-6.6776,-6.7602,-6.818,-6.66,-6.5907,-6.5792,-6.4309,-6.3571,-6.3467,-6.2017,0.0,0.0,0.0,0.0,0.0,0.0,-6.5644,-6.7248,-6.7363,-6.7784,-6.8563,-6.7972,-6.7152,-6.6263,-6.4549,-6.3678,-6.3524,-6.1205,-5.9833,-5.9755,-5.7552,0.0,0.0,0.0,0.0,0.0,0.0,0.0,0.0,0.0,0.0,0.0,0.0,0.0,0.0,0.0,0.0,0.0,0.0,0.0,0.0,-5.2997,0.0,0.0,0.0,0.0,0.0,0.0,0.0,0.0,0.0,0.0,-5.0129,-5.0033,-4.9594,-4.866,0.0,0.0,0.0,0.0,-4.8008,-4.8046,-4.8008,-4.7997,-4.7959,-4.7879,-4.7542,-4.6689,0.0,0.0,-4.8479,-4.7805,-4.748,-4.8169,-4.7772,-4.7857,-4.9631,-5.0027,-5.0178,-5.0221,-5.0325,-5.0462,-5.051,-5.0394,-5.05,-6.9713,0.0,0.0,0.0,0.0,-6.577,-6.622,-6.6871,-6.688,-6.6883,-6.6767,-6.5964,0.0,0.0,0.0,0.0,0.0,0.0,-6.593,-6.6094,-6.6856,-6.7012,-6.6615,-6.6115,-6.5884,-6.5884,-6.5447,-6.5228,-6.5177,-6.4752,-6.3819,-6.2527,0.0,0.0,0.0,0.0,-6.6133,-6.7274,-6.7903,-6.8081,-6.779,-6.8204,-6.8003,-6.7152,-6.486,-6.3651,-6.3651,-6.1717,-6.0413,-5.988,-5.8639,0.0,0.0,0.0,0.0,0.0,0.0,0.0,0.0,0.0,0.0,0.0,0.0,0.0,0.0,0.0,0.0,0.0,0.0,0.0,-5.2914,-5.2663,-5.2242,0.0,0.0,0.0,0.0,0.0,0.0,0.0,0.0,0.0,-4.9271,-4.9106,-4.891,0.0,0.0,-4.8197,-4.8114,-4.7941,-4.7865,-4.7865,-4.7788,0.0,-4.6969,-4.6832,-4.6515,-4.5676,-4.6083,-4.6556,-4.6533,-4.6697,-4.68,-4.693,-4.668,-4.6781,-4.7492,-4.8048,-4.8357,-4.8403,-4.8493,-4.8597,-4.8635,-4.9056,-4.9466,-7.3318,-7.0931,-6.8967,-6.8313,-6.8504,-6.8124,-6.839,-6.9024,-6.8714,-6.8529,-6.8429,-6.7647,-6.6999,-6.6496,-6.5983,0.0,0.0,0.0,-6.7282,-6.7537,-6.7615,-6.759,-6.7359,-6.6705,-6.6359,-6.6359,-6.6359,-6.6372,-6.6448,-6.6756,-6.6266,-6.501,0.0,0.0,-6.4771,-6.5878,-6.6738,-6.7286,-6.785,-6.7884,-6.7448,-6.7673,-6.7539,-6.6959,-6.518,-6.4068,-6.3681,-6.2327,-6.1206,-6.0383,-5.9241,-5.8015,0.0,0.0,0.0,0.0,0.0,0.0,0.0,0.0,0.0,0.0,0.0,-5.2333,-5.1849,0.0,0.0,0.0,-5.3969,-5.3936,-5.3086,-5.2743,0.0,0.0,0.0,0.0,0.0,0.0,0.0,-5.0839,-5.0115,-4.9393,-4.8833,-4.8401,-4.7955,-4.7499,-4.7286,-4.7032,-4.6588,0.0,-4.6631,-4.6315,-4.6466,-4.6446,-4.5978,-4.5841,-4.5513,-4.4691,-4.4399,-4.4605,-4.5106,-4.5102,-4.5217,-4.5584,-4.548,-4.5345,-4.5615,-4.6022,-4.6632,-4.7352,-4.7624,-4.7705,-4.7705,-4.8125,-4.8457,-7.6702,-7.5584,-7.236,-7.1336,-7.1731,-7.0896,-7.0845,-7.133,-7.0556,-7.017,-7.0064,-6.9241,-6.8854,-6.8777,-6.8777,0.0,-6.8701,-6.871,-6.9025,-6.9656,-6.886,-6.8898,-6.9513,-6.7936,-6.7205,-6.7205,-6.7218,-6.7256,-6.7422,-6.8166,-6.8126,-6.7402,-6.6545,-6.57,-6.4944,-6.648,-6.7248,-6.7182,-6.7343,-6.7398,-6.7384,-6.6611,-6.6185,-6.6185,-6.5373,-6.4532,-6.3719,-6.2781,-6.1921,-6.1118,-5.9499,-5.8256,-5.7513,0.0,0.0,0.0,0.0,0.0,0.0,0.0,0.0,0.0,0.0,0.0,0.0,0.0,0.0,-5.4819,-5.4902,0.0,-5.3857,-5.3104,0.0,0.0,0.0,-5.0976,-5.0193,-5.0068,-5.0019,-5.0008,0.0,0.0,-4.8704,-4.7816,-4.6878,-4.5983,-4.5673,-4.5166,-4.4298,-4.4687,-4.4685,-4.4037,-4.444,-4.4863,-4.4764,-4.4718,-4.4419,-4.3665,-4.2623,-4.2575,-4.3689,-4.3401,-4.3298,-4.4489,-4.4214,-4.3906,-4.4101,-4.4348,-4.4885,-4.6796,-4.7225,-4.736,-4.7272,-4.7386,-4.7512,-7.7554,-7.6618,-7.5741,-7.4684,-7.3558,-7.3239,-7.2799,-7.2258,-7.2065,-7.1601,-7.0943,-7.0092,-6.9396,-6.8777,-6.8777,-6.8745,-6.874,-6.9324,-6.9304,-6.886,-6.9258,-6.9181,-6.8706,-6.8269,-6.809,-6.809,-6.8155,-6.8526,-6.9117,-6.8781,-6.847,-6.8251,-6.7429,-6.6545,-6.5765,-6.6702,-6.6931,-6.6322,-6.6989,-6.7045,-6.6533,-6.6301,-6.6185,-6.6185,-6.4754,-6.3913,-6.3681,-6.2201,-6.1311,-6.1079,-5.9511,-5.8532,-5.8294,-5.6178,0.0,0.0,0.0,0.0,0.0,0.0,0.0,0.0,0.0,-5.2533,-5.2505,0.0,-5.4517,0.0,-5.4074,-5.4002,-5.3888,-5.3104,0.0,0.0,-5.0936,-5.0312,-5.0107,-4.9556,-4.916,-4.9111,-4.8933,-4.8563,-4.7897,-4.7456,-4.6836,-4.5873,-4.5032,-4.442,-4.4164,-4.3566,-4.3156,-4.2982,-4.3019,-4.3004,-4.3045,-4.291,-4.2787,-4.2448,-4.217,-4.2023,-4.2076,-4.244,-4.276,-4.2954,-4.3309,-4.3677,-4.4087,-4.4206,-4.4505,-4.5306,-4.5507,-4.5532,-4.5569,-4.6063,-4.653,-7.8065,-7.7545,-7.71,-7.6306,-7.5275,-7.4781,-7.4038,-7.3148,-7.2761,-7.2104,-7.1253,-7.0789,-7.0324,-6.9899,-6.9938,-6.9888,-6.9894,-7.0285,-7.0201,-6.9717,-6.9759,-6.9528,-6.9027,-6.8193,-6.8026,-6.845,-6.8103,-6.8397,-6.9193,-6.8841,-6.8452,-6.8099,-6.7636,-6.6946,-6.6117,-6.685,-6.69,-6.6047,-6.6532,-6.6625,-6.6224,-6.6185,-6.6031,-6.5644,-6.4793,-6.3913,-6.3129,-6.2201,-6.135,-6.0576,-5.9327,-5.8454,-5.8054,-5.6442,-5.5165,0.0,0.0,0.0,0.0,0.0,0.0,0.0,0.0,0.0,0.0,0.0,-5.5097,-5.3852,-5.3818,-5.3563,-5.2809,-5.2338,-5.1898,-5.1445,-5.0624,-5.0111,-5.0101,-4.9355,-4.8841,-4.8792,-4.8462,-4.8056,-4.754,-4.698,-4.6242,-4.5292,-4.4275,-4.356,-4.3473,-4.2931,-4.2476,-4.2102,-4.2242,-4.2389,-4.2293,-4.1857,-4.1481,-4.143,-4.0972,-4.0668,-4.0815,-4.1191,-4.162,-4.2173,-4.272,-4.3308,-4.3982,-4.4273,-4.4444,-4.4726,-4.4889,-4.4914,-4.4914,-4.5293,-4.5634,-7.8422,-7.8043,-7.7256,-7.6798,-7.6621,-7.5838,-7.4883,-7.3844,-7.2993,-7.2104,-7.1291,-7.1291,-7.1291,-7.1291,-7.1291,-7.1291,-7.1291,-7.1247,-7.1213,-7.1163,-7.0348,-6.9938,-6.9832,-6.8206,-6.7834,-6.8436,-6.7742,-6.7805,-6.861,-6.8552,-6.8182,-6.7539,-6.7384,-6.6938,-6.619,-6.6847,-6.6874,-6.6102,-6.6155,-6.6185,-6.6185,-6.6108,-6.5721,-6.5025,-6.4793,-6.3942,-6.2472,-6.2201,-6.1398,-5.9967,-5.8966,-5.8139,-5.7403,-5.6696,-5.5877,0.0,-5.4388,0.0,0.0,0.0,0.0,0.0,0.0,0.0,0.0,-5.5351,-5.5613,-5.4095,-5.381,-5.3121,-5.1633,-5.1434,-5.1406,-5.1365,-5.0615,-5.01,-5.0059,-4.9309,-4.8753,-4.8628,-4.795,-4.7465,-4.7291,-4.6504,-4.5589,-4.4641,-4.3651,-4.2871,-4.2563,-4.2328,-4.1895,-4.1233,-4.1639,-4.1813,-4.1753,-4.1017,-4.045,-4.0426,-3.9733,-3.915,-3.9845,-3.9952,-4.0377,-4.1605,-4.2251,-4.2828,-4.3781,-4.4213,-4.4551,-4.4764,-4.4865,-4.4902,-4.4902,-4.4927,-4.4902,-7.8565,-7.7172,-7.7005,-7.6801,-7.6604,-7.6428,-7.5425,-7.3844,-7.2993,-7.2104,-7.1291,-7.1291,-7.1291,-7.1291,-7.1291,-7.1291,-7.1291,-7.128,-7.1258,-7.1201,-7.0964,-7.0515,-6.9898,-6.9425,-6.9002,-6.8613,-6.842,-6.8455,-6.8668,-6.8038,-6.7645,-6.7501,-6.6804,-6.6379,-6.6214,0.0,0.0,0.0,-6.6155,-6.6185,-6.6185,-6.5566,-6.5141,-6.4957,-6.3632,0.0,-6.2356,-6.1116,-6.0205,-5.9904,-5.8466,0.0,0.0,0.0,0.0,0.0,0.0,0.0,0.0,0.0,0.0,0.0,-5.4554,-5.4931,-5.4874,-5.5156,-5.5229,-5.4865,-5.3639,-5.2752,-5.2475,-5.1792,-5.1406,-5.1357,-5.061,-5.0098,-5.0088,-4.9339,-4.855,-4.7845,-4.7588,-4.7213,-4.6569,-4.61,-4.5538,-4.4621,-4.3558,-4.2603,-4.1751,-4.1099,-4.0525,-4.0352,-4.0382,-4.0271,-4.0174,-3.9826,-3.949,-3.9319,-3.9017,-3.8719,-3.8894,-3.9449,-3.9836,-4.0451,-4.153,-4.2606,-4.3059,-4.381,-4.451,-4.4726,-4.4827,-4.4852,-4.4902,-4.4827,-4.4751,-7.8224,-7.6905,-7.6927,-7.6808,0.0,-7.6157,-7.5214,-7.3928,-7.3469,-7.2529,-7.1291,-7.1291,-7.1291,-7.1291,-7.1291,-7.1291,-7.1291,-7.1291,-7.128,-7.1247,-7.1142,-7.0679,-6.9915,-6.9335,-6.8912,-6.8633,-6.7761,-6.7541,-6.7995,-6.7237,-6.6882,-6.6843,-6.6417,-6.6185,-6.6185,-6.6185,-6.6175,-6.6144,-6.6214,-6.5992,-6.5644,-6.5605,-6.4986,-6.3787,-6.3284,0.0,0.0,0.0,0.0,0.0,0.0,0.0,0.0,-5.6452,0.0,-5.5703,-5.5302,-5.5142,-5.5173,-5.4788,-5.471,-5.5178,-5.5576,-5.5844,-5.5788,-5.5394,-5.497,-5.4515,-5.337,-5.2513,-5.21,-5.164,-5.1398,-5.1346,-5.0601,-5.0246,-5.0549,-4.9567,-4.866,-4.8176,-4.7772,-4.7168,-4.6321,-4.6012,-4.5505,-4.4607,-4.3558,-4.2574,-4.1619,-4.071,-4.0096,-4.0034,-3.9845,-3.9708,-3.9649,-3.9322,-3.9027,-3.8956,-3.8676,-3.8496,-3.8465,-3.8825,-3.9292,-3.9874,-4.1108,-4.221,-4.2909,-4.3798,-4.4605,-4.4725,-4.4815,-4.484,-4.4827,-4.4764,-4.4685,-7.7807,-7.6926,-7.6894,-7.6823,-7.6614,-7.5692,-7.4712,-7.3749,0.0,0.0,0.0,-7.1291,-7.1291,-7.1291,-7.1291,-7.1291,-7.1291,-7.1291,-7.1291,-7.1291,-7.1023,-7.0483,-6.9733,-6.8704,-6.8217,-6.8188,-6.6703,-6.6444,-6.7156,-6.6513,-6.6185,-6.6185,-6.6185,-6.6185,-6.6185,-6.6185,-6.6185,-6.6185,-6.6069,-6.5644,-6.5073,-6.5489,-6.4677,-6.2433,-6.31,-6.278,-6.1259,-6.1083,-6.0295,-5.8824,-5.8637,-5.7875,-5.6329,-5.6272,-5.6319,-5.6347,-5.5711,-5.5662,-5.6425,-5.584,-5.5723,-5.6433,-5.6371,-5.6297,-5.6277,-5.5592,-5.4787,-5.378,-5.3057,-5.2338,-5.1483,-5.1401,-5.1384,-5.1373,-5.0746,-5.0625,-5.1162,-4.9869,-4.8806,-4.8704,-4.7876,-4.7005,-4.631,-4.6046,-4.5538,-4.4601,-4.3558,-4.2459,-4.1495,-4.0606,-4.0055,-3.9889,-3.9777,-3.9708,-3.9625,-3.9269,-3.895,-3.8964,-3.8606,-3.832,-3.8401,-3.8465,-3.8847,-3.9568,-4.0733,-4.1816,-4.2683,-4.3769,-4.461,-4.4712,-4.4802,-4.4852,-4.4712,-4.4672,-4.4619,-7.7807,-7.6926,-7.6894,-7.6816,-7.6623,-7.5758,-7.444,-7.2822,-7.2031,-7.1523,-7.1291,-7.1291,-7.1291,-7.1291,-7.1291,-7.1291,-7.1291,-7.1291,-7.1291,-7.1253,-7.044,-6.9678,-6.8921,-6.7938,-6.7128,-6.6552,-6.6228,-6.619,-6.632,-6.6263,-6.6185,-6.6185,-6.6185,-6.6185,-6.6185,-6.6185,-6.6185,-6.6185,-6.5489,-6.5102,-6.4996,-6.4377,-6.3516,-6.2472,-6.2596,-6.2227,-6.122,-6.0599,-5.9793,-5.8831,-5.8129,-5.7295,-5.6363,-5.6323,-5.6358,-5.6386,-5.6256,-5.6324,-5.6503,-5.639,-5.6355,-5.6449,-5.5805,-5.5379,-5.5365,-5.5262,-5.4541,-5.3004,-5.2722,-5.2343,-5.1523,-5.1393,-5.1412,-5.1403,-5.1284,-5.1279,-5.1341,-4.9848,-4.8782,-4.8776,-4.7359,-4.641,-4.6224,-4.6002,-4.557,-4.4632,-4.3618,-4.2316,-4.0892,-4.0203,-4.0024,-3.98,-3.9731,-3.9672,-3.9614,-3.9215,-3.895,-3.8906,-3.8575,-3.8303,-3.8401,-3.8465,-3.8695,-3.9017,-4.0518,-4.1622,-4.2062,-4.3417,-4.4406,-4.4699,-4.4789,-4.4776,-4.4592,-4.4537,-4.4482,-7.7812,-7.6951,-7.6437,-7.6176,-7.5961,-7.4566,-7.351,-7.2638,-7.1683,-7.1291,-7.1291,-7.1291,-7.1291,-7.1291,-7.1291,-7.1291,-7.1291,-7.1291,-7.1291,-7.1253,-7.0799,-6.996,-6.8833,-6.827,-6.7382,-6.6253,-6.6123,-6.6123,-6.6185,-6.6185,-6.6185,-6.6185,-6.6185,-6.6185,-6.6185,-6.6185,-6.5992,-6.5566,-6.519,-6.4764,-6.43,-6.3913,-6.3062,-6.1776,-6.218,-6.2099,-6.1264,-6.0507,-5.9699,-5.8828,-5.8033,-5.7198,-5.6362,-5.6353,-5.6381,-5.6412,-5.6437,-5.6455,-5.6507,-5.6476,-5.6488,-5.6468,-5.5708,-5.5012,-5.4573,-5.4114,-5.3506,-5.2708,-5.2262,-5.1835,-5.1438,-5.1377,-5.1391,-5.1386,-5.1386,-5.138,-5.1171,-4.9835,-4.8812,-4.8646,-4.7267,-4.6193,-4.6134,-4.598,-4.5731,-4.5085,-4.3868,-4.2317,-4.0985,-4.0383,-4.0055,-3.9845,-3.9754,-3.9708,-3.9625,-3.9269,-3.9007,-3.8964,-3.8637,-3.8401,-3.8417,-3.8481,-3.8799,-3.9497,-4.074,-4.1833,-4.2476,-4.374,-4.4561,-4.4751,-4.4815,-4.4789,-4.4659,-4.4496,-4.4504,-7.7547,-7.6665,-7.598,-7.5404,-7.4783,-7.3403,-7.2657,-7.2366,-7.1616,-7.1291,-7.1291,-7.1291,-7.1291,-7.1291,-7.1291,-7.1291,-7.1253,-7.1098,-7.0982,-7.0982,-7.0551,-6.9701,-6.8573,-6.8215,-6.7415,-6.6291,-6.6144,-6.6144,-6.6185,-6.6185,-6.6185,-6.6185,-6.6185,-6.6185,-6.6185,-6.6185,-6.5799,-6.5035,-6.4793,-6.429,-6.3439,-6.341,-6.2665,-6.1311,-6.1995,-6.2125,-6.133,-6.0538,-5.9689,-5.8836,-5.8059,-5.7211,-5.638,-5.6381,-5.6407,-5.6393,-5.6455,-5.6507,-5.6476,-5.6496,-5.6397,-5.6215,-5.5413,-5.4562,-5.3779,-5.2923,-5.239,-5.2334,-5.1797,-5.1401,-5.1384,-5.1396,-5.1375,-5.1372,-5.1369,-5.1362,-5.1154,-4.9822,-4.8801,-4.8627,-4.7288,-4.6181,-4.6104,-4.5997,-4.5729,-4.5131,-4.3837,-4.2497,-4.1528,-4.0649,-4.0103,-3.9922,-3.9811,-3.9743,-3.9696,-3.935,-3.9082,-3.9013,-3.8722,-3.8544,-3.8481,-3.8622,-3.9154,-4.0104,-4.1221,-4.224,-4.3262,-4.4159,-4.4676,-4.4815,-4.4852,-4.4865,-4.4725,-4.4524,-4.4489,-7.6736,-7.596,-7.5723,-7.4703,-7.319,-7.2899,-7.2347,-7.1678,-7.1384,-7.1291,-7.1253,-7.1291,-7.1291,-7.1291,-7.1253,-7.1253,-7.1175,-7.0479,-7.0131,-6.9938,-6.8534,-6.7761,-6.7617,-6.6871,-6.6369,-6.6185,-6.6175,-6.6185,-6.6195,-6.6224,-6.6185,-6.6185,-6.6185,-6.6185,-6.6185,-6.6185,-6.5799,-6.4996,-6.4222,-6.34,-6.2588,-6.2511,-6.2085,-6.1157,-6.2022,-6.2144,-6.1327,-6.0519,-5.9698,-5.8898,-5.8058,-5.719,-5.6425,-5.6358,-5.6388,-5.6393,-5.6455,-5.6472,-5.6492,-5.6485,-5.6152,-5.5377,-5.4606,-5.3793,-5.2936,-5.2038,-5.1508,-5.1523,-5.1444,-5.1396,-5.1391,-5.1375,-5.1369,-5.132,-5.1317,-5.1307,-5.1133,-4.9804,-4.8783,-4.8725,-4.7276,-4.6181,-4.6143,-4.5953,-4.5486,-4.461,-4.3542,-4.2448,-4.1518,-4.0753,-4.0179,-3.9998,-3.9883,-3.9826,-3.9708,-3.9464,-3.9259,-3.911,-3.8935,-3.8817,-3.8857,-3.9313,-3.9989,-4.0814,-4.1754,-4.2894,-4.3514,-4.4172,-4.4777,-4.4827,-4.4865,-4.4877,-4.4738,-4.4578,-4.4594,-7.6579,-7.5771,-7.5182,-7.3873,-7.2283,-7.2064,-7.1881,-7.1529,-7.1366,-7.1021,-7.0634,-7.1059,-7.1021,-7.0556,-7.0556,-7.0286,-6.9821,-6.9473,-6.928,-6.9241,-6.8584,-6.8003,-6.7501,-6.7152,-6.6727,-6.6224,-6.6215,-6.6274,-6.6274,-6.6303,-6.6322,-6.6312,-6.6293,-6.6274,-6.6274,-6.6244,-6.5799,-6.4986,-6.4145,-6.3284,-6.2433,-6.1892,-6.1475,-6.1241,-6.1574,-6.1671,-6.1189,-6.0046,-5.918,-5.8778,-5.7579,-5.6697,-5.637,-5.6407,-5.6437,-5.645,-5.6472,-5.6492,-5.651,-5.6494,-5.616,-5.5311,-5.4457,-5.3641,-5.2789,-5.19,-5.1403,-5.1406,-5.1403,-5.1393,-5.1396,-5.1362,-5.1349,-5.1359,-5.1307,-5.1289,-5.1281,-5.0256,-4.9352,-4.8755,-4.7639,-4.6649,-4.6192,-4.5899,-4.5325,-4.4298,-4.3359,-4.2428,-4.1546,-4.1047,-4.0832,-4.0756,-4.1014,-4.0791,-4.0079,-3.9575,-3.9414,-3.9412,-3.9666,-3.9783,-3.9704,-4.0363,-4.1206,-4.1777,-4.2628,-4.3482,-4.4196,-4.4487,-4.4865,-4.4877,-4.4877,-4.4877,-4.4738,-4.4659,-4.4632,-7.6468,-7.535,-7.4212,-7.2893,-7.1645,-7.1511,-7.1484,-7.1502,-7.1366,-7.0943,-7.0402,-7.0789,-7.0479,-6.9783,-6.9899,-6.9551,-6.8854,-6.8545,-6.8468,-6.8429,-6.8236,-6.7771,-6.7191,-6.7152,-6.6804,-6.6312,-6.6284,-6.6312,-6.6331,-6.6367,-6.6424,-6.6415,-6.6349,-6.6331,-6.6322,-6.6284,-6.5732,-6.4725,-6.4029,-6.3216,-6.2161,-6.1465,-6.1164,-6.1191,-6.1272,-6.1213,-6.0925,-5.958,-5.8674,-5.8467,-5.7086,-5.6331,-5.6397,-5.6427,-5.645,-5.6472,-5.6492,-5.6471,-5.6488,-5.6503,-5.605,-5.5049,-5.4307,-5.3491,-5.2485,-5.1752,-5.1406,-5.1362,-5.1396,-5.1385,-5.1406,-5.1314,-5.1331,-5.1362,-5.1335,-5.1312,-5.1222,-5.0508,-4.9638,-4.8773,-4.7889,-4.7023,-4.6236,-4.6007,-4.5693,-4.4653,-4.3492,-4.256,-4.185,-4.1493,-4.1174,-4.0983,-4.1681,-4.1707,-4.0488,-4.0108,-3.9938,-3.9977,-4.0326,-4.0568,-4.0634,-4.1535,-4.2197,-4.2609,-4.3297,-4.3843,-4.4462,-4.4801,-4.4902,-4.4914,-4.4914,-4.4889,-4.4802,-4.4726,-4.4789,-7.6204,-7.4512,-7.2704,-7.1828,-7.1513,-7.1494,-7.1445,-7.1345,-7.1302,-7.1253,-7.1021,-7.0479,-6.9628,-6.897,-6.9628,-6.9551,-6.87,-6.7887,-6.7539,-6.7462,-6.6766,-6.634,-6.6263,-6.6263,-6.6263,-6.6234,-6.6284,-6.634,-6.6385,-6.6424,-6.6424,-6.6385,-6.6376,-6.6376,-6.6376,-6.6329,-6.5562,-6.4265,-6.3839,-6.3034,-6.1638,-6.1367,-6.1272,-6.1208,-6.1272,-6.0965,-6.0203,-5.9296,-5.8512,-5.778,-5.6903,-5.6397,-5.6388,-5.645,-5.6472,-5.6492,-5.6471,-5.6488,-5.6506,-5.648,-5.5866,-5.4394,-5.4005,-5.3266,-5.1788,-5.1478,-5.1367,-5.1306,-5.1338,-5.1332,-5.1367,-5.1307,-5.1312,-5.1303,-5.1316,-5.1282,-5.1181,-5.0593,-4.9644,-4.873,-4.7903,-4.7018,-4.5962,-4.6414,-4.6129,-4.5132,-4.3779,-4.2677,-4.2318,-4.1743,-4.1146,-4.0881,-4.1454,-4.2136,-4.134,-4.1044,-4.0962,-4.0978,-4.1092,-4.1128,-4.1747,-4.2343,-4.2902,-4.3396,-4.4003,-4.4461,-4.4777,-4.4902,-4.4914,-4.4876,-4.4876,-4.4889,-4.4839,-4.4852,-4.5002,-7.6159,-7.4366,-7.2569,-7.1712,-7.1622,-7.155,-7.1465,-7.1435,-7.1324,-7.0982,-7.0595,-7.0672,-7.0092,-6.8816,-6.9087,-6.8468,-6.7152,-6.6804,-6.6688,-6.665,-6.634,-6.6185,-6.6185,-6.6185,-6.6185,-6.6195,-6.6312,-6.6394,-6.6461,-6.6461,-6.6461,-6.6461,-6.6398,-6.642,-6.6342,-6.5851,-6.5437,-6.5255,-6.3878,-6.287,-6.2706,-6.1823,-6.1291,-6.1313,-6.1322,-6.0902,-6.0119,-5.9251,-5.8415,-5.7653,-5.6848,-5.6402,-5.6388,-5.6455,-5.6476,-5.6492,-5.6471,-5.6491,-5.6428,-5.6057,-5.5288,-5.4161,-5.3462,-5.2726,-5.1676,-5.1405,-5.1366,-5.1348,-5.1308,-5.1333,-5.1297,-5.1285,-5.1243,-5.1277,-5.1256,-5.122,-5.1172,-5.0923,-5.0208,-4.8875,-4.7888,-4.7066,-4.6629,-4.6738,-4.6052,-4.4116,-4.3128,-4.2532,-4.2003,-4.1874,-4.2009,-4.2435,-4.3208,-4.3739,-4.2943,-4.2249,-4.1938,-4.2077,-4.2207,-4.2498,-4.2998,-4.354,-4.4134,-4.4043,-4.4572,-4.4701,-4.4914,-4.4914,-4.4876,-4.4876,-4.4876,-4.4926,-4.4974,-4.4938,-4.524,-7.5601,-7.4297,-7.2555,-7.1725,-7.1653,-7.1559,-7.1485,-7.1465,-7.1334,-7.0943,-7.0556,-7.075,-7.0092,-6.8893,-6.8506,-6.7617,-6.6301,-6.6185,-6.6185,-6.6185,-6.6185,-6.6185,-6.6185,-6.6185,-6.6185,-6.6205,-6.6331,-6.6428,-6.6501,-6.6508,-6.6508,-6.6508,-6.6439,-6.6422,-6.6306,-6.5855,-6.5752,-6.5566,-6.3976,-6.3169,-6.3231,-6.2075,-6.1388,-6.1382,-6.1123,-6.0566,-5.9775,-5.9134,-5.8285,-5.7309,-5.6697,-5.6407,-5.6441,-5.6464,-5.6484,-5.6503,-5.6482,-5.6383,-5.6089,-5.5597,-5.4787,-5.3699,-5.3039,-5.234,-5.1523,-5.1405,-5.1396,-5.1373,-5.1323,-5.1281,-5.1285,-5.1248,-5.1239,-5.1281,-5.1256,-5.1225,-5.122,-5.1224,-5.0342,-4.8888,-4.7828,-4.7158,-4.6684,-4.6785,-4.5736,-4.357,-4.2985,-4.2418,-4.2013,-4.2199,-4.2688,-4.3316,-4.4128,-4.4279,-4.385,-4.3296,-4.2893,-4.2984,-4.3021,-4.3441,-4.392,-4.4524,-4.4801,-4.4739,-4.4751,-4.4839,-4.4876,-4.4876,-4.4876,-4.4876,-4.4914,-4.4938,-4.4938,-4.4938,-4.5404,-7.4574,-7.4168,-7.2545,-7.1732,-7.1611,-7.1523,-7.1465,-7.1415,-7.1324,-7.1214,-7.1059,-7.0451,-6.9667,-6.8816,-6.8042,-6.7075,-6.6456,-6.6263,-6.6185,-6.6185,-6.6185,-6.6185,-6.6185,-6.6185,-6.6195,-6.6205,-6.634,-6.6428,-6.6501,-6.6508,-6.6508,-6.6508,-6.6508,-6.647,-6.6508,-6.6314,-6.6001,-6.5297,-6.4259,-6.3476,-6.2795,-6.1929,-6.1495,-6.1398,-6.077,-5.9991,-5.9109,-5.8904,-5.8081,-5.668,-5.6456,-5.6417,-5.6459,-5.648,-5.65,-5.6478,-5.6497,-5.6089,-5.5484,-5.5253,-5.444,-5.3159,-5.2693,-5.2225,-5.1562,-5.1401,-5.1382,-5.1308,-5.1257,-5.1209,-5.1225,-5.122,-5.1213,-5.1275,-5.1277,-5.1243,-5.1113,-5.1097,-5.053,-4.892,-4.7917,-4.6938,-4.6303,-4.6484,-4.5992,-4.4325,-4.3273,-4.2726,-4.2532,-4.2578,-4.2644,-4.3085,-4.4007,-4.4607,-4.4443,-4.4241,-4.4016,-4.3803,-4.3765,-4.3968,-4.4335,-4.4876,-4.4687,-4.4575,-4.4449,-4.4535,-4.4876,-4.4876,-4.4876,-4.4914,-4.4926,-4.495,-4.4974,-4.515,-4.567,-7.4552,-7.4301,-7.2574,-7.1743,-7.169,-7.1529,-7.1465,-7.1415,-7.1313,-7.1291,-7.1137,-7.0363,-6.9821,-6.9319,-6.8158,-6.7346,-6.7036,-6.6495,-6.6185,-6.6185,-6.6185,-6.6185,-6.6185,-6.6185,-6.6264,-6.634,-6.6394,-6.6414,-6.6501,-6.6508,-6.6508,-6.6508,-6.6508,-6.65,-6.6542,-6.6004,-6.5524,-6.5166,-6.3893,-6.3014,-6.2746,-6.1935,-6.1512,-6.1403,-6.0677,-5.9874,-5.9112,-5.8379,-5.7507,-5.6425,-5.6378,-5.6417,-5.6459,-5.6484,-5.6503,-5.6482,-5.65,-5.6128,-5.5368,-5.4711,-5.3936,-5.2848,-5.2187,-5.1719,-5.1445,-5.1399,-5.1377,-5.13,-5.125,-5.12,-5.122,-5.1243,-5.1273,-5.1296,-5.1256,-5.0914,-5.0281,-4.9326,-4.8959,-4.9219,-4.8171,-4.7191,-4.682,-4.6893,-4.5894,-4.3912,-4.3101,-4.2888,-4.2761,-4.2865,-4.3291,-4.4124,-4.4715,-4.4794,-4.4516,-4.4253,-4.4028,-4.3929,-4.4004,-4.4042,-4.4497,-4.4687,-4.4535,-4.4421,-4.427,-4.4421,-4.4762,-4.4888,-4.4888,-4.4938,-4.495,-4.5036,-4.5095,-4.5451,-4.5973,-7.4595,-7.4347,-7.2578,-7.1755,-7.166,-7.1564,-7.1494,-7.1445,-7.1384,-7.1158,-7.0722,-7.0247,-6.9628,-6.8981,-6.7985,-6.7366,-6.6959,-6.6438,-6.6254,-6.6215,-6.6195,-6.6195,-6.6254,-6.6274,-6.6331,-6.6394,-6.6389,-6.6422,-6.6508,-6.6508,-6.6508,-6.6508,-6.6508,-6.6546,-6.6536,-6.6082,-6.5672,-6.5221,-6.4008,-6.3107,-6.2723,-6.194,-6.1512,-6.132,-6.037,-5.9567,-5.8991,-5.7843,-5.6933,-5.655,-5.6446,-5.648,-5.6476,-5.6496,-5.6475,-5.6491,-5.643,-5.6057,-5.4944,-5.4324,-5.347,-5.242,-5.1719,-5.1406,-5.1404,-5.139,-5.1321,-5.1275,-5.1209,-5.1215,-5.1239,-5.1261,-5.1292,-5.132,-5.0926,-5.0369,-4.9469,-4.8427,-4.7998,-4.8341,-4.7565,-4.6907,-4.6647,-4.6422,-4.5662,-4.3871,-4.3618,-4.3472,-4.3392,-4.3507,-4.4315,-4.4865,-4.4984,-4.4836,-4.4437,-4.4201,-4.4002,-4.3978,-4.4042,-4.4042,-4.4232,-4.4232,-4.4156,-4.4194,-4.4118,-4.4535,-4.4876,-4.4912,-4.4924,-4.4974,-4.4998,-4.5068,-4.5205,-4.5609,-4.6152,-7.4551,-7.429,-7.253,-7.1749,-7.1679,-7.1512,-7.1377,-7.1378,-7.1164,-7.0648,-7.0036,-6.9716,-6.8981,-6.7831,-6.7484,-6.7019,-6.637,-6.6332,-6.6312,-6.6303,-6.6235,-6.6196,-6.6119,-6.6126,-6.6161,-6.6234,-6.6367,-6.6431,-6.6508,-6.6508,-6.6508,-6.6508,-6.6524,-6.6521,-6.6549,-6.6555,-6.5995,-6.5242,-6.4325,-6.3468,-6.275,-6.1967,-6.1507,-6.1437,-5.9952,-5.9056,-5.8792,-5.7454,-5.6498,-5.6464,-5.6476,-5.6507,-5.6492,-5.6471,-5.6488,-5.6503,-5.656,-5.5677,-5.4479,-5.4053,-5.3276,-5.1758,-5.1484,-5.1405,-5.1394,-5.133,-5.1288,-5.123,-5.1229,-5.1214,-5.1248,-5.1316,-5.131,-5.1196,-5.0566,-4.975,-4.8848,-4.8516,-4.8038,-4.734,-4.6487,-4.5938,-4.6009,-4.585,-4.5247,-4.4568,-4.4576,-4.4363,-4.4159,-4.4187,-4.4972,-4.5169,-4.5077,-4.4701,-4.4227,-4.3764,-4.3567,-4.3521,-4.3763,-4.4092,-4.408,-4.4042,-4.4118,-4.4156,-4.4168,-4.4585,-4.4888,-4.4936,-4.4986,-4.4998,-4.5045,-4.5125,-4.551,-4.6037,-4.6683,-7.4595,-7.439,-7.2583,-7.1806,-7.1659,-7.1,-7.0628,-7.0532,-6.9828,-6.9468,-6.9032,-6.849,-6.8065,-6.7522,-6.696,-6.6552,-6.6388,-6.6358,-6.6367,-6.6358,-6.6349,-6.5962,-6.5553,-6.5519,-6.5544,-6.5638,-6.6128,-6.6501,-6.6508,-6.6431,-6.647,-6.6508,-6.6528,-6.6627,-6.6608,-6.6098,-6.5371,-6.4587,-6.3698,-6.2812,-6.2083,-6.17,-6.149,-6.1345,-5.9793,-5.8937,-5.8782,-5.7298,-5.6416,-5.6416,-5.6507,-5.6476,-5.6492,-5.6471,-5.6491,-5.6509,-5.6482,-5.5833,-5.444,-5.3975,-5.3159,-5.1641,-5.1406,-5.1406,-5.1391,-5.1321,-5.1275,-5.1217,-5.1219,-5.1231,-5.122,-5.1261,-5.1055,-5.0466,-5.0217,-4.9878,-4.9233,-4.8283,-4.7417,-4.7146,-4.6455,-4.6061,-4.5886,-4.5778,-4.5364,-4.468,-4.4517,-4.4556,-4.4419,-4.4465,-4.501,-4.4961,-4.4804,-4.444,-4.3977,-4.3439,-4.3129,-4.3035,-4.343,-4.4241,-4.4218,-4.4156,-4.4308,-4.4459,-4.4241,-4.4469,-4.4785,-4.496,-4.501,-4.5045,-4.5217,-4.541,-4.6183,-4.6801,-4.749,-7.4598,-7.4437,-7.2587,-7.1583,-7.1215,-7.0596,-7.011,-6.9696,-6.9177,-6.8636,-6.8278,-6.7842,-6.7416,-6.7038,-6.6618,-6.6394,-6.6424,-6.6403,-6.6411,-6.6256,-6.5652,-6.5497,-6.5566,-6.5716,-6.5576,-6.5235,-6.5716,-6.5918,-6.5926,-6.5965,-6.6135,-6.6482,-6.6562,-6.663,-6.6663,-6.5909,-6.5123,-6.4286,-6.3371,-6.2446,-6.1642,-6.1534,-6.1472,-6.1253,-6.0041,-5.916,-5.8326,-5.7079,-5.6398,-5.6446,-5.6464,-5.648,-5.6503,-5.6475,-5.6533,-5.6553,-5.6563,-5.5833,-5.4401,-5.3975,-5.3159,-5.1836,-5.1406,-5.1367,-5.1341,-5.1308,-5.1271,-5.1211,-5.1192,-5.1197,-5.1201,-5.1248,-5.101,-5.0627,-5.0451,-5.0126,-4.9315,-4.8667,-4.7932,-4.7358,-4.6777,-4.6242,-4.599,-4.5831,-4.5503,-4.5128,-4.5283,-4.5055,-4.4812,-4.4868,-4.4885,-4.4913,-4.4913,-4.4652,-4.4554,-4.413,-4.3885,-4.365,-4.4072,-4.4732,-4.4355,-4.432,-4.4407,-4.4495,-4.4341,-4.4376,-4.4767,-4.5019,-4.5103,-4.5224,-4.5421,-4.5862,-4.6571,-4.7491,-4.8196,-7.452,-7.4279,-7.2544,-7.131,-7.0542,-7.0268,-6.9631,-6.8976,-6.8649,-6.8157,-6.7587,-6.7471,-6.7044,-6.6433,-6.6467,-6.6389,-6.6403,-6.6437,-6.6445,-6.6034,-6.5312,-6.4963,-6.591,-6.5786,-6.5491,-6.5102,-6.518,-6.535,-6.5436,-6.5319,-6.5595,-6.592,-6.6139,-6.6351,-6.6026,-6.5496,-6.4857,-6.4016,-6.3098,-6.2278,-6.1655,-6.1479,-6.1453,-6.1285,-6.0546,-5.9056,-5.7826,-5.6879,-5.6588,-5.6472,-5.6472,-5.6488,-5.6475,-5.6482,-5.6539,-5.6597,-5.6528,-5.5833,-5.4363,-5.3936,-5.3238,-5.1797,-5.1406,-5.1367,-5.1323,-5.1297,-5.1253,-5.1192,-5.1202,-5.1192,-5.1196,-5.1186,-5.1118,-5.0948,-5.1023,-5.0254,-4.9269,-4.9265,-4.9064,-4.7467,-4.7136,-4.6731,-4.6157,-4.58,-4.565,-4.5464,-4.5577,-4.5419,-4.5245,-4.527,-4.5211,-4.5163,-4.5152,-4.5065,-4.5044,-4.4936,-4.4805,-4.4711,-4.5285,-4.5603,-4.4694,-4.4519,-4.4481,-4.4493,-4.4566,-4.4715,-4.4928,-4.5125,-4.5181,-4.5393,-4.5633,-4.6162,-4.6795,-4.7884,-4.8729,-7.416,-7.3398,-7.2296,-7.1288,-7.0376,-6.9663,-6.887,-6.8047,-6.7307,-6.698,-6.67,-6.6661,-6.6583,-6.6389,-6.6469,-6.6493,-6.6477,-6.6485,-6.6493,-6.6338,-6.5491,-6.5102,-6.5328,-6.4916,-6.4488,-6.4488,-6.5615,-6.5761,-6.5368,-6.5038,-6.5031,-6.4694,-6.4924,-6.4774,-6.4751,-6.4193,-6.3508,-6.312,-6.2395,-6.1853,-6.1612,-6.1479,-6.1453,-6.131,-6.0592,-5.8982,-5.7332,-5.7169,-5.7112,-5.6695,-5.6492,-5.6496,-5.6478,-5.6485,-5.6539,-5.6597,-5.6567,-5.5833,-5.4401,-5.3898,-5.3238,-5.168,-5.1406,-5.1361,-5.1311,-5.1297,-5.1281,-5.1208,-5.1202,-5.1231,-5.1229,-5.113,-5.1113,-5.1094,-5.0991,-5.0789,-5.038,-4.9946,-4.9018,-4.7741,-4.7168,-4.6788,-4.6054,-4.5873,-4.5795,-4.5789,-4.5731,-4.5677,-4.5621,-4.5569,-4.5451,-4.5277,-4.5086,-4.5,-4.5142,-4.5159,-4.5154,-4.5338,-4.599,-4.6309,-4.5399,-4.5071,-4.5147,-4.5083,-4.4943,-4.5091,-4.5136,-4.5192,-4.5284,-4.5551,-4.5998,-4.6708,-4.751,-4.8495,-4.9158,-7.408,-7.3116,-7.2179,-7.1042,-6.985,-6.9305,-6.8373,-6.7285,-6.6679,-6.6431,-6.6431,-6.6431,-6.6431,-6.6439,-6.6493,-6.6508,-6.6508,-6.6508,-6.6508,-6.6198,-6.5265,-6.4651,-6.4471,-6.385,-6.3429,-6.3546,-6.4202,-6.4429,-6.4214,-6.4193,-6.4093,-6.413,-6.409,-6.4263,-6.4095,-6.3383,-6.3084,-6.2889,-6.2137,-6.1602,-6.1526,-6.1515,-6.1478,-6.1259,-6.0585,-5.9293,-5.794,-5.7638,-5.7268,-5.6731,-5.6491,-5.6478,-5.6485,-5.6491,-5.6548,-5.6602,-5.6606,-5.5755,-5.4479,-5.3898,-5.3238,-5.1562,-5.1406,-5.1367,-5.1323,-5.1297,-5.1281,-5.1214,-5.1202,-5.1214,-5.1197,-5.1133,-5.1102,-5.1069,-5.1009,-5.0983,-5.0905,-5.0542,-4.9591,-4.8237,-4.7748,-4.7041,-4.6435,-4.6035,-4.5821,-4.581,-4.5671,-4.5618,-4.5515,-4.5464,-4.5375,-4.5201,-4.4972,-4.4895,-4.5076,-4.5218,-4.5311,-4.566,-4.621,-4.634,-4.5974,-4.5913,-4.5978,-4.5609,-4.5114,-4.5159,-4.5213,-4.5305,-4.5545,-4.6031,-4.6631,-4.7406,-4.8246,-4.9102,-4.9663,-7.3965,-7.296,-7.214,-7.0814,-6.9344,-6.9111,-6.814,-6.6664,-6.6508,-6.6501,-6.6508,-6.6508,-6.6501,-6.6508,-6.6508,-6.6508,-6.6508,-6.6508,-6.6508,-6.6329,-6.5125,-6.4447,-6.404,-6.3346,-6.2737,-6.2588,-6.3214,-6.3242,-6.3063,-6.2839,-6.3228,-6.3627,-6.3666,-6.3503,-6.3527,-6.3191,-6.2696,-6.2537,-6.2027,-6.1663,-6.1595,-6.1517,-6.1417,-6.1017,-6.0834,-5.9927,-5.8917,-5.8334,-5.7656,-5.6766,-5.6573,-5.6523,-5.6509,-5.6503,-5.6519,-5.6608,-5.6608,-5.5718,-5.4401,-5.3897,-5.3236,-5.1601,-5.1406,-5.1367,-5.1327,-5.1288,-5.1273,-5.1245,-5.122,-5.1202,-5.1196,-5.1153,-5.1095,-5.1102,-5.1055,-5.1073,-5.108,-5.0959,-5.0124,-4.8994,-4.828,-4.7617,-4.6733,-4.6106,-4.597,-4.5814,-4.5711,-4.5586,-4.5486,-4.539,-4.535,-4.5288,-4.5086,-4.501,-4.5163,-4.5239,-4.5333,-4.5704,-4.6304,-4.6255,-4.6244,-4.6298,-4.6096,-4.5551,-4.5192,-4.5224,-4.5398,-4.5573,-4.5965,-4.6538,-4.7302,-4.8143,-4.8945,-4.9748,-5.0054,-7.3618,-7.2102,-7.1885,-7.0798,-6.9344,-6.9142,-6.8101,-6.6664,-6.6508,-6.6508,-6.6508,-6.6508,-6.6508,-6.6508,-6.6508,-6.6508,-6.6508,-6.6516,-6.6524,-6.6397,-6.5394,-6.463,-6.3962,-6.319,-6.248,-6.2338,-6.2937,-6.3336,-6.2902,-6.2893,-6.2593,-6.2271,-6.2228,-6.2269,-6.2267,-6.1998,-6.2032,-6.2113,-6.1837,-6.1668,-6.1609,-6.1552,-6.13,-6.0867,-6.0949,-6.0407,-5.9371,-5.8921,-5.8463,-5.7645,-5.6945,-5.6632,-5.6508,-5.6497,-5.6538,-5.6584,-5.658,-5.584,-5.4325,-5.3973,-5.308,-5.1914,-5.1405,-5.1399,-5.1336,-5.1288,-5.123,-5.122,-5.1197,-5.1202,-5.1202,-5.1127,-5.1108,-5.1108,-5.1082,-5.1094,-5.1101,-5.097,-5.0678,-4.9664,-4.8941,-4.8218,-4.7372,-4.6603,-4.6319,-4.6087,-4.5873,-4.5711,-4.5599,-4.5485,-4.5371,-4.535,-4.5277,-4.5239,-4.5277,-4.5288,-4.5354,-4.5632,-4.5965,-4.5965,-4.6031,-4.626,-4.6058,-4.5491,-4.5252,-4.5311,-4.5524,-4.5851,-4.6424,-4.7035,-4.7952,-4.8869,-4.9404,-4.9939,-5.0142,-7.3151,-7.1867,-7.1378,-7.0408,-6.9305,-6.9104,-6.8101,-6.6625,-6.6508,-6.6508,-6.6508,-6.6508,-6.6508,-6.6508,-6.6508,-6.6508,-6.6516,-6.657,-6.6592,-6.6373,-6.5304,-6.4513,-6.4031,-6.3258,-6.2396,-6.2132,-6.2824,-6.3084,-6.2329,-6.2212,-6.2035,-6.1807,-6.1653,-6.1651,-6.1651,-6.1729,-6.169,-6.169,-6.169,-6.1686,-6.1674,-6.1627,-6.13,-6.1244,-6.1137,-6.0656,-5.9466,-5.9135,-5.8474,-5.7381,-5.6796,-5.664,-5.6562,-5.656,-5.6557,-5.6559,-5.6557,-5.5812,-5.4372,-5.3943,-5.3203,-5.1718,-5.1404,-5.139,-5.133,-5.1288,-5.123,-5.1201,-5.1208,-5.1202,-5.1202,-5.1133,-5.1127,-5.1133,-5.1147,-5.114,-5.1147,-5.1153,-5.0824,-5.0332,-4.9718,-4.8955,-4.8102,-4.7403,-4.6822,-4.6435,-4.6098,-4.5926,-4.5796,-4.5624,-4.5503,-4.539,-4.5398,-4.5576,-4.55,-4.5434,-4.575,-4.6018,-4.575,-4.5712,-4.574,-4.5997,-4.5823,-4.5371,-4.5333,-4.5322,-4.5867,-4.6271,-4.6882,-4.7532,-4.8411,-4.9175,-4.9633,-5.0015,-5.0218,-7.2646,-7.1563,-7.0653,-6.9772,-6.9032,-6.8921,-6.7984,-6.6725,-6.6538,-6.6524,-6.6508,-6.6508,-6.6508,-6.6508,-6.6508,-6.6508,-6.6524,-6.6592,-6.6613,-6.6406,-6.5492,-6.466,-6.4176,-6.3642,-6.2961,-6.2223,-6.2574,-6.2462,-6.1922,-6.177,-6.1651,-6.1619,-6.1618,-6.1612,-6.1618,-6.166,-6.1701,-6.1699,-6.1699,-6.1701,-6.1697,-6.1649,-6.1598,-6.1546,-6.1453,-6.0643,-5.9638,-5.8982,-5.8281,-5.7344,-5.6797,-5.6601,-5.6597,-5.6599,-5.6523,-5.6366,-5.6328,-5.5469,-5.4453,-5.3672,-5.2969,-5.1523,-5.1403,-5.1348,-5.1321,-5.1291,-5.1234,-5.1203,-5.1202,-5.1202,-5.1196,-5.1139,-5.1139,-5.1152,-5.1139,-5.1133,-5.1184,-5.119,-5.1178,-5.0739,-5.0351,-4.9717,-4.8896,-4.8198,-4.7616,-4.726,-4.6933,-4.6454,-4.6288,-4.5827,-4.564,-4.5503,-4.5554,-4.5857,-4.5847,-4.5599,-4.6146,-4.6873,-4.6156,-4.5619,-4.5599,-4.5666,-4.5472,-4.5441,-4.5316,-4.542,-4.6042,-4.6691,-4.7264,-4.7952,-4.8831,-4.948,-4.9939,-5.0153,-5.0329,-7.2341,-7.0766,-6.9804,-6.8912,-6.8245,-6.8187,-6.7592,-6.6646,-6.6562,-6.6574,-6.6508,-6.6508,-6.6508,-6.6508,-6.6508,-6.6531,-6.6553,-6.6496,-6.653,-6.6528,-6.6085,-6.5522,-6.526,-6.5187,-6.3891,-6.2945,-6.2889,-6.2437,-6.1881,-6.167,-6.1678,-6.1678,-6.1675,-6.1675,-6.1673,-6.167,-6.1705,-6.1701,-6.1705,-6.1708,-6.1707,-6.1655,-6.1621,-6.1432,-6.1004,-6.038,-5.9726,-5.8828,-5.789,-5.7617,-5.6914,-5.664,-5.6595,-5.6593,-5.6158,-5.5691,-5.5346,-5.5039,-5.4023,-5.3359,-5.2617,-5.1639,-5.1358,-5.1351,-5.1327,-5.1271,-5.123,-5.122,-5.1202,-5.1202,-5.1202,-5.1196,-5.1196,-5.1196,-5.1196,-5.119,-5.1202,-5.1202,-5.1196,-5.1157,-5.0757,-5.0396,-4.9762,-4.9064,-4.841,-4.8093,-4.7732,-4.7217,-4.6784,-4.6317,-4.602,-4.5962,-4.6176,-4.6474,-4.6424,-4.6176,-4.6694,-4.7576,-4.6752,-4.587,-4.6157,-4.6281,-4.5771,-4.5663,-4.5615,-4.5691,-4.6237,-4.6915,-4.7543,-4.8411,-4.9289,-4.9824,-5.0206,-5.0344,-5.039,-7.0701,-6.991,-6.8989,-6.8375,-6.8031,-6.7979,-6.7459,-6.6711,-6.6581,-6.6542,-6.6516,-6.6508,-6.6508,-6.6508,-6.6531,-6.6592,-6.6496,-6.618,-6.625,-6.6257,-6.586,-6.5381,-6.5429,-6.5351,-6.4548,-6.351,-6.3614,-6.3238,-6.2358,-6.1707,-6.1717,-6.1719,-6.1719,-6.1679,-6.1718,-6.1716,-6.1713,-6.1712,-6.1713,-6.1715,-6.1677,-6.164,-6.1445,-6.1015,-6.0586,-5.9961,-5.9023,-5.8437,-5.7617,-5.7305,-5.6719,-5.664,-5.6481,-5.6165,-5.5652,-5.537,-5.4281,-5.3664,-5.3237,-5.2882,-5.2259,-5.1672,-5.1384,-5.136,-5.1341,-5.1285,-5.1201,-5.1197,-5.1192,-5.122,-5.1202,-5.1202,-5.1202,-5.1202,-5.1202,-5.1202,-5.1202,-5.1202,-5.1196,-5.1202,-5.1157,-5.0796,-5.0434,-4.984,-4.9302,-4.9043,-4.8293,-4.7365,-4.7101,-4.6881,-4.6651,-4.6507,-4.6852,-4.7281,-4.7117,-4.6915,-4.7511,-4.8019,-4.7319,-4.6781,-4.7204,-4.7174,-4.6674,-4.6654,-4.696,-4.6988,-4.6863,-4.7242,-4.8012,-4.8919,-4.9824,-5.0103,-5.0356,-5.0367,-5.0412,-6.9022,-6.8702,-6.806,-6.7763,-6.7695,-6.7699,-6.7302,-6.669,-6.6606,-6.6601,-6.6531,-6.6508,-6.6508,-6.6524,-6.6592,-6.662,-6.6562,-6.575,-6.5862,-6.5704,-6.5117,-6.4719,-6.4883,-6.5003,-6.4329,-6.2893,-6.377,-6.3357,-6.2273,-6.1704,-6.1716,-6.1719,-6.1719,-6.1719,-6.1719,-6.1718,-6.1717,-6.1717,-6.1716,-6.1717,-6.1719,-6.1719,-6.1172,-6.0625,-6.0078,-5.9414,-5.8164,-5.7578,-5.7148,-5.6797,-5.6328,-5.6172,-5.6091,-5.5424,-5.4794,-5.4356,-5.3418,-5.2752,-5.2521,-5.2244,-5.1964,-5.165,-5.1364,-5.1327,-5.1296,-5.1264,-5.1214,-5.1208,-5.1208,-5.1192,-5.1208,-5.1202,-5.1202,-5.1202,-5.1202,-5.1202,-5.1202,-5.1202,-5.1202,-5.1202,-5.1202,-5.1202,-5.0835,-5.0467,-5.0157,-4.9947,-4.9004,-4.7705,-4.7371,-4.7313,-4.7319,-4.7225,-4.7524,-4.7951,-4.8039,-4.8049,-4.8519,-4.8539,-4.7837,-4.7712,-4.8135,-4.8068,-4.7616,-4.7836,-4.8143,-4.8074,-4.7824,-4.8154,-4.8455,-4.9127,-4.9762,-5.016,-5.0401,-5.0412,-5.0435,-6.7812,-6.7067,-6.7022,-6.6969,-6.6949,-6.6871,-6.683,-6.6696,-6.6702,-6.6633,-6.6516,-6.6516,-6.6531,-6.656,-6.6503,-6.6497,-6.6585,-6.5767,-6.5465,-6.5152,-6.4716,-6.4278,-6.4406,-6.432,-6.3911,-6.3059,-6.3536,-6.2956,-6.1959,-6.1906,-6.1795,-6.1719,-6.1719,-6.1719,-6.1719,-6.1719,-6.1719,-6.1719,-6.1718,-6.164,-6.1601,-6.1484,-6.1094,-6.0273,-5.9609,-5.8828,-5.793,-5.7226,-5.668,-5.6445,-5.5898,-5.543,-5.5311,-5.4566,-5.3898,-5.3305,-5.2868,-5.2239,-5.1886,-5.1696,-5.1543,-5.1412,-5.1344,-5.1339,-5.1312,-5.1239,-5.1201,-5.1224,-5.1224,-5.1203,-5.122,-5.1202,-5.1202,-5.1202,-5.1202,-5.1202,-5.1202,-5.1202,-5.1202,-5.1202,-5.1202,-5.1202,-5.1196,-5.0829,-5.0706,-5.0536,-4.9332,-4.8033,-4.7827,-4.7765,-4.794,-4.8019,-4.8245,-4.8617,-4.9028,-4.9125,-4.9067,-4.9162,-4.8843,-4.8836,-4.9096,-4.8837,-4.8702,-4.8567,-4.8787,-4.8805,-4.891,-4.912,-4.9301,-4.9388,-4.9723,-5.0227,-5.0457,-5.0478,-5.0489,-6.7187,-6.6911,-6.6906,-6.6859,-6.6805,-6.6798,-6.6759,-6.6722,-6.6707,-6.6606,-6.6508,-6.6531,-6.6553,-6.6457,-6.603,-6.5861,-6.5695,-6.4432,-6.4398,-6.4287,-6.3929,-6.38,-6.3964,-6.3999,-6.3789,-6.3162,-6.3269,-6.2878,-6.1772,-6.2065,-6.2031,-6.1913,-6.1717,-6.1719,-6.1719,-6.1718,-6.168,-6.164,-6.1601,-6.1484,-6.0937,-6.082,-6.0273,-5.8906,-5.8711,-5.793,-5.7187,-5.6836,-5.6328,-5.5898,-5.5469,-5.5039,-5.4492,-5.3709,-5.308,-5.2606,-5.2287,-5.1812,-5.1531,-5.1377,-5.1367,-5.1341,-5.1307,-5.1316,-5.1304,-5.1287,-5.1273,-5.1259,-5.1206,-5.1224,-5.1197,-5.1214,-5.1202,-5.1202,-5.1202,-5.1202,-5.1202,-5.1202,-5.1202,-5.1202,-5.1202,-5.1202,-5.1196,-5.1152,-5.1152,-5.1041,-4.9681,-4.8555,-4.8349,-4.8216,-4.8399,-4.8896,-4.9173,-4.9219,-4.9599,-4.9581,-4.9457,-4.959,-4.977,-4.9812,-4.9901,-5.0162,-4.9969,-4.9702,-4.949,-4.9672,-4.9874,-5.0066,-5.0095,-5.0015,-5.0148,-5.0396,-5.0521,-5.0542,-5.0542,-6.6914,-6.6911,-6.6906,-6.6859,-6.6811,-6.68,-6.6766,-6.6741,-6.6717,-6.6606,-6.6516,-6.6585,-6.6418,-6.6134,-6.5744,-6.5189,-6.4743,-6.3765,-6.3495,-6.3305,-6.3103,-6.3041,-6.3318,-6.3355,-6.2955,-6.2754,-6.2935,-6.254,-6.1741,-6.2341,-6.2148,-6.183,-6.171,-6.1712,-6.1716,-6.1679,-6.1601,-6.1367,-6.125,-6.0898,-6.0195,-6.0,-5.9492,-5.8203,-5.8008,-5.7539,-5.6836,-5.6367,-5.6094,-5.5586,-5.5039,-5.4375,-5.375,-5.3085,-5.2458,-5.2102,-5.1823,-5.1425,-5.1377,-5.1403,-5.1389,-5.1369,-5.13,-5.1285,-5.1312,-5.1304,-5.1295,-5.1282,-5.123,-5.1211,-5.1219,-5.1192,-5.1208,-5.1208,-5.1202,-5.1202,-5.1202,-5.1202,-5.1202,-5.1202,-5.1202,-5.1202,-5.1196,-5.1157,-5.0924,-5.0658,-4.9532,-4.8716,-4.8671,-4.8654,-4.8831,-4.9446,-5.0174,-5.0147,-5.0124,-5.0132,-5.0178,-5.0256,-5.0387,-5.0449,-5.0587,-5.0795,-5.0821,-5.0402,-5.0317,-5.0606,-5.0587,-5.0452,-5.046,-5.0545,-5.0573,-5.0573,-5.0602,-5.0573,-5.0573,-6.6914,-6.6911,-6.6906,-6.6859,-6.6811,-6.68,-6.6817,-6.6771,-6.6722,-6.6639,-6.6492,-6.6521,-6.6089,-6.5531,-6.5216,-6.466,-6.4028,-6.3222,-6.2836,-6.2668,-6.2299,-6.1953,-6.1951,-6.2031,-6.2185,-6.1825,-6.1971,-6.2008,-6.1671,-6.1873,-6.1795,-6.1666,-6.1584,-6.151,-6.167,-6.1676,-6.1249,-6.0586,-6.0469,-5.9961,-5.9414,-5.9219,-5.8633,-5.793,-5.7656,-5.7226,-5.668,-5.6133,-5.5898,-5.5586,-5.4219,-5.3594,-5.3437,-5.2266,-5.1677,-5.1517,-5.1472,-5.1387,-5.1377,-5.1406,-5.1391,-5.1375,-5.1314,-5.13,-5.1285,-5.1316,-5.1312,-5.13,-5.1287,-5.1264,-5.1234,-5.1208,-5.1192,-5.122,-5.1214,-5.1202,-5.1202,-5.1202,-5.1202,-5.1202,-5.1202,-5.1202,-5.1202,-5.1125,-5.0736,-5.0153,-4.9182,-4.8794,-4.8827,-4.8871,-4.8977,-4.9736,-5.0513,-5.0674,-5.0632,-5.0801,-5.0886,-5.1002,-5.0963,-5.0879,-5.0828,-5.089,-5.0872,-5.0821,-5.074,-5.0712,-5.0702,-5.0664,-5.0682,-5.0663,-5.0673,-5.0682,-5.0663,-5.0642,-5.0614,-6.6914,-6.6911,-6.6906,-6.6859,-6.6811,-6.68,-6.6817,-6.6775,-6.6663,-6.6614,-6.6411,-6.6043,-6.5648,-6.5133,-6.4226,-6.3624,-6.3219,-6.2453,-6.2025,-6.2013,-6.1796,-6.1754,-6.171,-6.1714,-6.1718,-6.1679,-6.1635,-6.1633,-6.1719,-6.1719,-6.1713,-6.1657,-6.1221,-6.0877,-6.0849,-6.0777,-6.0428,-5.9765,-5.9531,-5.9219,-5.8437,-5.832,-5.8008,-5.7148,-5.7109,-5.6914,-5.6601,-5.6133,-5.582,-5.5312,-5.375,-5.3281,-5.2773,-5.1562,-5.1444,-5.1403,-5.1399,-5.139,-5.138,-5.141,-5.1403,-5.1389,-5.133,-5.1314,-5.1303,-5.1289,-5.1316,-5.1308,-5.1295,-5.1282,-5.1269,-5.1206,-5.1224,-5.1203,-5.1192,-5.122,-5.1214,-5.1202,-5.1202,-5.1202,-5.1202,-5.1202,-5.1202,-5.1163,-5.0853,-5.0309,-4.9454,-4.8955,-4.8832,-4.8816,-4.8893,-4.9743,-5.0458,-5.0868,-5.1088,-5.1101,-5.1107,-5.1101,-5.1107,-5.108,-5.1063,-5.0974,-5.0921,-5.0863,-5.0767,-5.0702,-5.0702,-5.0702,-5.0702,-5.0702,-5.0702,-5.0702,-5.0692,-5.0682,-5.0692,-6.6913,-6.6909,-6.6905,-6.6857,-6.6807,-6.68,-6.6772,-6.6755,-6.6641,-6.6575,-6.6432,-6.5719,-6.5127,-6.4605,-6.3619,-6.2604,-6.2426,-6.1936,-6.1658,-6.1635,-6.1678,-6.1707,-6.1704,-6.1707,-6.1712,-6.1677,-6.1679,-6.1679,-6.1716,-6.1715,-6.1705,-6.1495,-6.0861,-6.0323,-6.01,-5.9872,-5.9564,-5.9059,-5.8906,-5.8672,-5.7969,-5.7617,-5.7539,-5.6914,-5.668,-5.6601,-5.6523,-5.6211,-5.5781,-5.4844,-5.3984,-5.3281,-5.2344,-5.1719,-5.1523,-5.1405,-5.1399,-5.1391,-5.1384,-5.1377,-5.141,-5.1403,-5.1344,-5.1327,-5.1317,-5.13,-5.1289,-5.132,-5.1308,-5.1295,-5.1287,-5.1225,-5.1206,-5.1224,-5.1197,-5.1225,-5.1214,-5.1202,-5.1202,-5.1202,-5.1202,-5.1202,-5.1202,-5.1125,-5.0969,-5.0386,-4.9765,-4.9382,-4.9043,-4.9021,-4.9119,-4.9775,-5.0519,-5.098,-5.1175,-5.119,-5.119,-5.1185,-5.119,-5.1196,-5.1164,-5.1094,-5.0988,-5.0913,-5.0799,-5.0758,-5.0693,-5.0702,-5.0702,-5.0702,-5.0702,-5.0702,-5.0702,-5.0702,-5.0702,-6.6912,-6.6904,-6.6902,-6.6856,-6.6798,-6.6792,-6.6755,-6.6712,-6.6602,-6.6594,-6.6542,-6.5672,-6.4911,-6.4104,-6.3195,-6.2422,-6.1849,-6.1655,-6.1636,-6.1679,-6.1704,-6.1696,-6.1692,-6.1692,-6.1701,-6.171,-6.1713,-6.1672,-6.1708,-6.1707,-6.1697,-6.1451,-6.0627,-5.9966,-5.9464,-5.8923,-5.8541,-5.8155,-5.8238,-5.7966,-5.746,-5.7422,-5.7305,-5.6953,-5.6719,-5.664,-5.6445,-5.6055,-5.5898,-5.5195,-5.418,-5.3672,-5.3008,-5.2266,-5.1719,-5.1404,-5.1397,-5.1394,-5.1389,-5.138,-5.1377,-5.141,-5.1403,-5.1344,-5.1327,-5.1314,-5.13,-5.1289,-5.132,-5.1308,-5.1295,-5.1234,-5.1211,-5.1224,-5.1197,-5.122,-5.1208,-5.1202,-5.1202,-5.1202,-5.1202,-5.1202,-5.1202,-5.1125,-5.1047,-5.0703,-5.0281,-5.0187,-4.9881,-4.9624,-4.9717,-4.9844,-5.0554,-5.1122,-5.1287,-5.1243,-5.1243,-5.1234,-5.1234,-5.1273,-5.1211,-5.1169,-5.1069,-5.0966,-5.0844,-5.0799,-5.0721,-5.0712,-5.0702,-5.0702,-5.0712,-5.0702,-5.0702,-5.0702,-5.0702,-6.691,-6.6902,-6.6857,-6.6809,-6.6792,-6.6759,-6.6724,-6.6697,-6.6618,-6.6618,-6.6606,-6.51,-6.4377,-6.4013,-6.262,-6.1963,-6.1702,-6.158,-6.1638,-6.1677,-6.1696,-6.1727,-6.1722,-6.1722,-6.1688,-6.1692,-6.1694,-6.1692,-6.1692,-6.1692,-6.169,-6.1525,-6.0276,-5.9495,-5.8831,-5.7938,-5.7438,-5.7249,-5.7529,-5.7455,-5.7302,-5.7264,-5.7226,-5.7187,-5.6797,-5.668,-5.6445,-5.6328,-5.6015,-5.4609,-5.4141,-5.3516,-5.1953,-5.1641,-5.1406,-5.1405,-5.1402,-5.14,-5.1393,-5.1387,-5.1384,-5.1377,-5.141,-5.1403,-5.135,-5.133,-5.1314,-5.13,-5.1289,-5.1316,-5.1308,-5.1291,-5.123,-5.1206,-5.1219,-5.1197,-5.122,-5.1202,-5.1202,-5.1202,-5.1202,-5.1202,-5.1202,-5.1202,-5.1086,-5.0897,-5.0792,-5.0742,-5.0602,-5.0345,-5.0242,-5.0334,-5.0616,-5.1217,-5.1308,-5.1265,-5.1312,-5.1312,-5.1308,-5.13,-5.1278,-5.1234,-5.1119,-5.1023,-5.0867,-5.0782,-5.0693,-5.0712,-5.0702,-5.0712,-5.0673,-5.0712,-5.0702,-5.0827,-5.0789,-6.691,-6.6904,-6.6859,-6.6813,-6.6795,-6.6705,-6.672,-6.6724,-6.6668,-6.6674,-6.648,-6.4888,-6.4086,-6.3823,-6.2469,-6.1619,-6.1607,-6.1587,-6.164,-6.1666,-6.1692,-6.1722,-6.1718,-6.1718,-6.172,-6.1718,-6.1718,-6.1722,-6.1718,-6.1718,-6.1718,-6.1562,-5.9963,-5.9297,-5.8675,-5.7699,-5.6803,-5.6811,-5.6976,-5.7176,-5.7181,-5.7184,-5.7421,-5.7226,-5.6836,-5.668,-5.6601,-5.6601,-5.582,-5.4609,-5.4336,-5.3398,-5.2031,-5.168,-5.1406,-5.1406,-5.1405,-5.1403,-5.1398,-5.1393,-5.1387,-5.1382,-5.1377,-5.141,-5.1403,-5.1389,-5.133,-5.1314,-5.13,-5.1289,-5.132,-5.1308,-5.1252,-5.123,-5.1245,-5.1219,-5.1197,-5.1208,-5.1202,-5.1202,-5.1202,-5.1202,-5.1202,-5.1202,-5.1208,-5.1109,-5.1042,-5.1025,-5.0967,-5.0826,-5.0728,-5.0785,-5.0988,-5.1308,-5.1316,-5.132,-5.132,-5.132,-5.1316,-5.1308,-5.1295,-5.1273,-5.118,-5.1063,-5.0906,-5.0799,-5.073,-5.0683,-5.0712,-5.075,-5.0885,-5.101,-5.1154,-5.1366,-5.1183,-6.6912,-6.6902,-6.6824,-6.6701,-6.6687,-6.6592,-6.658,-6.6684,-6.6527,-6.6558,-6.6213,-6.4826,-6.4028,-6.3574,-6.2292,-6.1651,-6.1618,-6.1634,-6.164,-6.1722,-6.1722,-6.1718,-6.1718,-6.1718,-6.1718,-6.1718,-6.1718,-6.1718,-6.1715,-6.1715,-6.1674,-6.1601,-5.9959,-5.9139,-5.8868,-5.7424,-5.6645,-5.6688,-5.7006,-5.7285,-5.7133,-5.7297,-5.7497,-5.6951,-5.6718,-5.6601,-5.6601,-5.6484,-5.6211,-5.5312,-5.4453,-5.3555,-5.25,-5.1836,-5.1484,-5.1406,-5.1406,-5.1404,-5.1402,-5.1396,-5.139,-5.1385,-5.138,-5.1375,-5.1408,-5.1399,-5.1341,-5.133,-5.1317,-5.1303,-5.1292,-5.1316,-5.13,-5.1282,-5.1259,-5.124,-5.1219,-5.1197,-5.1214,-5.1214,-5.1214,-5.1214,-5.122,-5.1225,-5.1203,-5.1214,-5.1219,-5.119,-5.1211,-5.1156,-5.1131,-5.1109,-5.1226,-5.1308,-5.1316,-5.132,-5.132,-5.132,-5.132,-5.1316,-5.1308,-5.1291,-5.1234,-5.1119,-5.0974,-5.0858,-5.0764,-5.0758,-5.0837,-5.1106,-5.1231,-5.1395,-5.1616,-5.1944,-5.1992,-6.691,-6.6824,-6.6186,-6.5909,-6.587,-6.5826,-6.5812,-6.579,-6.5727,-6.5689,-6.5494,-6.4608,-6.3739,-6.3109,-6.213,-6.1632,-6.1671,-6.1678,-6.1678,-6.1702,-6.1727,-6.1718,-6.1718,-6.1718,-6.1718,-6.1718,-6.1718,-6.1713,-6.1705,-6.1705,-6.1666,-6.1509,-6.0026,-5.9131,-5.8985,-5.7463,-5.6643,-5.6645,-5.6803,-5.7202,-5.7363,-5.7054,-5.6942,-5.7026,-5.7108,-5.6679,-5.6601,-5.6562,-5.6094,-5.5312,-5.4453,-5.3242,-5.1797,-5.1523,-5.1406,-5.1406,-5.1406,-5.1405,-5.1402,-5.1398,-5.1393,-5.1384,-5.1377,-5.1377,-5.141,-5.1403,-5.1394,-5.1344,-5.1333,-5.1317,-5.1303,-5.1285,-5.1308,-5.1295,-5.1278,-5.1259,-5.1201,-5.1214,-5.1231,-5.1225,-5.1192,-5.1197,-5.1203,-5.1214,-5.1229,-5.1196,-5.1201,-5.1211,-5.1269,-5.1248,-5.1209,-5.1222,-5.1256,-5.13,-5.1312,-5.132,-5.132,-5.132,-5.132,-5.132,-5.132,-5.1261,-5.1234,-5.1159,-5.1056,-5.1029,-5.0935,-5.0876,-5.0996,-5.1509,-5.1817,-5.2067,-5.2462,-5.28,-5.2877,-6.6911,-6.6789,-6.5957,-6.5602,-6.5522,-6.5139,-6.4932,-6.4935,-6.484,-6.4608,-6.4257,-6.3755,-6.3319,-6.2779,-6.1999,-6.1649,-6.1717,-6.1719,-6.1712,-6.1699,-6.169,-6.1722,-6.1718,-6.1718,-6.1713,-6.1713,-6.1663,-6.1657,-6.1651,-6.1651,-6.1573,-6.1374,-6.0051,-5.9081,-5.8861,-5.7534,-5.6602,-5.6604,-5.6604,-5.6883,-5.7319,-5.6971,-5.678,-5.7022,-5.691,-5.66,-5.6601,-5.6523,-5.5781,-5.4687,-5.3476,-5.2617,-5.1641,-5.1445,-5.1406,-5.1406,-5.1406,-5.1406,-5.1403,-5.1399,-5.1396,-5.1389,-5.1377,-5.1377,-5.138,-5.1375,-5.1403,-5.1355,-5.135,-5.1339,-5.1317,-5.1296,-5.1285,-5.1312,-5.1291,-5.1273,-5.1215,-5.1196,-5.1219,-5.1219,-5.1224,-5.1224,-5.1229,-5.1229,-5.1206,-5.1264,-5.1269,-5.1234,-5.1291,-5.13,-5.13,-5.13,-5.13,-5.1304,-5.1316,-5.132,-5.132,-5.132,-5.132,-5.132,-5.1281,-5.1261,-5.123,-5.1302,-5.1319,-5.1315,-5.1237,-5.1323,-5.182,-5.2471,-5.2673,-5.2815,-5.3202,-5.3442,-5.3335,-6.6835,-6.6598,-6.5656,-6.5263,-6.5142,-6.4411,-6.4049,-6.4013,-6.3986,-6.3595,-6.3054,-6.2864,-6.2738,-6.2464,-6.2059,-6.1824,-6.1679,-6.1716,-6.1704,-6.1696,-6.1722,-6.172,-6.1718,-6.1718,-6.1713,-6.1705,-6.1654,-6.1609,-6.1598,-6.1595,-6.1513,-6.124,-6.0272,-5.9108,-5.8571,-5.7565,-5.6558,-5.6604,-5.6604,-5.6604,-5.6649,-5.6614,-5.6658,-5.6665,-5.6594,-5.6599,-5.66,-5.6367,-5.5586,-5.4375,-5.293,-5.2031,-5.1562,-5.1406,-5.1406,-5.1406,-5.1406,-5.1406,-5.1404,-5.1402,-5.1399,-5.1395,-5.1385,-5.1382,-5.1387,-5.1382,-5.1412,-5.1403,-5.1399,-5.1391,-5.133,-5.131,-5.13,-5.1289,-5.1269,-5.1287,-5.123,-5.1215,-5.1211,-5.1211,-5.1211,-5.1215,-5.1215,-5.1215,-5.123,-5.1287,-5.1295,-5.1308,-5.1312,-5.1312,-5.1312,-5.1312,-5.1312,-5.1316,-5.132,-5.132,-5.132,-5.1285,-5.1285,-5.1285,-5.1285,-5.1281,-5.1386,-5.1589,-5.1613,-5.1818,-5.1974,-5.2097,-5.2716,-5.3258,-5.2842,-5.2782,-5.3524,-5.3688,-5.3558,-6.6484,-6.57,-6.4172,-6.3547,-6.3469,-6.3243,-6.3152,-6.3154,-6.3132,-6.301,-6.2712,-6.2122,-6.1852,-6.1857,-6.1787,-6.1718,-6.1716,-6.1708,-6.1708,-6.1704,-6.1725,-6.172,-6.164,-6.152,-6.1676,-6.1512,-6.1384,-6.1569,-6.1123,-6.1268,-6.1491,-6.1296,-5.9836,-5.8988,-5.8769,-5.7646,-5.656,-5.6604,-5.6604,-5.6604,-5.6604,-5.661,-5.6614,-5.6621,-5.663,-5.6596,-5.6599,-5.6601,-5.5976,-5.4883,-5.3359,-5.2148,-5.1601,-5.1406,-5.1406,-5.1406,-5.1406,-5.1406,-5.1405,-5.1404,-5.1402,-5.1399,-5.1393,-5.139,-5.1391,-5.1389,-5.138,-5.141,-5.1406,-5.1399,-5.1344,-5.1327,-5.131,-5.1303,-5.1289,-5.1308,-5.1287,-5.1282,-5.1234,-5.1234,-5.1273,-5.1278,-5.1282,-5.1287,-5.1261,-5.1308,-5.1308,-5.1316,-5.1316,-5.1316,-5.132,-5.1285,-5.1285,-5.132,-5.132,-5.1285,-5.1285,-5.1289,-5.1331,-5.1456,-5.1463,-5.1349,-5.1491,-5.2083,-5.2358,-5.2575,-5.2705,-5.2891,-5.3096,-5.3373,-5.2669,-5.26,-5.3451,-5.3915,-5.3768]},{"header":{"parameterUnit":"m.s-1","parameterCategory":1,"la1":31.0,"la2":29.5877,"lo1":-88.7671,"lo2":-86.6584,"dy":0.0162,"dx":0.0185,"nx":115,"ny":88,"refTime":"2024-05-07T06:00:00:Z","depth":0,"parameterNumber":3,"parameterNumberName":"V-component_of_WINDS"},"data":[0.0,0.0,0.0,0.0,0.0,0.0,0.0,0.0,0.0,0.0,0.0,0.0,0.0,0.0,0.0,0.0,0.0,0.0,0.0,0.0,0.0,0.0,0.0,0.0,0.0,0.0,0.0,0.0,0.0,0.0,0.0,0.0,0.0,0.0,0.0,0.0,0.0,0.0,0.0,0.0,0.0,0.0,0.0,0.0,0.0,0.0,0.0,0.0,0.0,0.0,0.0,0.0,0.0,0.0,0.0,0.0,0.0,0.0,0.0,0.0,0.0,0.0,0.0,0.0,0.0,0.0,0.0,0.0,0.0,0.0,0.0,0.0,0.0,0.0,0.0,0.0,0.0,0.0,0.0,0.0,0.0,0.0,0.0,0.0,0.0,0.0,0.0,0.0,0.0,0.0,0.0,0.0,0.0,0.0,0.0,0.0,0.0,0.0,0.0,0.0,0.0,0.0,0.0,0.0,0.0,0.0,0.0,0.0,0.0,0.0,0.0,0.0,0.0,0.0,0.0,0.0,0.0,0.0,0.0,0.0,0.0,0.0,0.0,0.0,0.0,0.0,0.0,0.0,0.0,0.0,0.0,0.0,0.0,0.0,0.0,0.0,0.0,0.0,0.0,0.0,0.0,0.0,0.0,0.0,0.0,0.0,0.0,0.0,0.0,0.0,0.0,0.0,0.0,0.0,0.0,0.0,0.0,0.0,0.0,0.0,0.0,0.0,0.0,0.0,0.0,0.0,0.0,0.0,0.0,0.0,0.0,0.0,0.0,0.0,0.0,0.0,0.0,0.0,0.0,0.0,0.0,0.0,0.0,0.0,0.0,0.0,0.0,0.0,0.0,0.0,0.0,0.0,0.0,0.0,0.0,0.0,0.0,0.0,0.0,0.0,0.0,0.0,0.0,0.0,0.0,0.0,0.0,0.0,0.0,0.0,0.0,0.0,0.0,0.0,0.0,0.0,0.0,0.0,0.0,0.0,0.0,0.0,0.0,0.0,0.0,0.0,0.0,0.0,0.0,0.0,0.0,0.0,0.0,0.0,0.0,0.0,0.0,0.0,0.0,0.0,0.0,0.0,0.0,0.0,0.0,0.0,0.0,0.0,0.0,0.0,0.0,0.0,0.0,0.0,0.0,0.0,0.0,0.0,0.0,0.0,0.0,0.0,0.0,0.0,0.0,0.0,0.0,0.0,0.0,0.0,0.0,0.0,0.0,0.0,0.0,0.0,0.0,0.0,0.0,0.0,0.0,0.0,0.0,0.0,0.0,0.0,0.0,0.0,0.0,0.0,0.0,0.0,0.0,0.0,0.0,0.0,0.0,0.0,0.0,0.0,0.0,0.0,0.0,0.0,0.0,0.0,0.0,0.0,0.0,0.0,0.0,0.0,0.0,0.0,0.0,0.0,0.0,0.0,0.0,0.0,0.0,0.0,0.0,0.0,0.0,0.0,0.0,0.0,0.0,0.0,0.0,0.0,0.0,0.0,0.0,0.0,0.0,0.0,0.0,0.0,0.0,0.0,0.0,0.0,0.0,0.0,0.0,0.0,0.0,0.0,0.0,0.0,0.0,0.0,0.0,0.0,0.0,0.0,0.0,0.0,0.0,0.0,0.0,0.0,0.0,0.0,0.0,0.0,0.0,0.0,0.0,0.0,0.0,0.0,0.0,0.0,0.0,0.0,0.0,0.0,0.0,0.0,0.0,0.0,0.0,0.0,0.0,0.0,0.0,0.0,0.0,0.0,0.0,0.0,0.0,0.0,0.0,0.0,0.0,0.0,0.0,0.0,0.0,0.0,0.0,0.0,0.0,0.0,0.0,0.0,0.0,0.0,0.0,0.0,0.0,0.0,0.0,0.0,0.0,0.0,0.0,0.0,0.0,0.0,0.0,0.0,0.0,0.0,0.0,0.0,0.0,0.0,0.0,0.0,0.0,0.0,0.0,0.0,0.0,0.0,0.0,0.0,0.0,0.0,0.0,0.0,0.0,0.0,0.0,0.0,0.0,0.0,0.0,0.0,0.0,0.0,0.0,0.0,0.0,0.0,0.0,0.0,0.0,0.0,0.0,0.0,0.0,0.0,0.0,0.0,0.0,0.0,0.0,0.0,0.0,0.0,0.0,0.0,0.0,0.0,0.0,0.0,0.0,0.0,0.0,0.0,0.0,0.0,0.0,0.0,0.0,0.0,0.0,0.0,0.0,0.0,0.0,0.0,0.0,0.0,0.0,0.0,0.0,0.0,0.0,0.0,0.0,0.0,0.0,0.0,0.0,0.0,0.0,0.0,0.0,0.0,0.0,0.0,0.0,0.0,0.0,0.0,0.0,0.0,0.0,0.0,0.0,0.0,0.0,0.0,0.0,0.0,0.0,0.0,0.0,0.0,0.0,0.0,0.0,0.0,0.0,0.0,0.0,0.0,0.0,0.0,0.0,0.0,0.0,0.0,0.0,0.0,0.0,0.0,0.0,0.0,0.0,0.0,0.0,0.0,0.0,0.0,0.0,0.0,0.0,0.0,0.0,0.0,0.0,0.0,0.0,0.0,0.0,0.0,0.0,0.0,0.0,0.0,0.0,0.0,0.0,0.0,0.0,0.0,0.0,0.0,0.0,0.0,0.0,0.0,0.0,0.0,0.0,0.0,0.0,0.0,0.0,0.0,0.0,0.0,0.0,0.0,0.0,0.0,0.0,0.0,0.0,0.0,0.0,0.0,0.0,0.0,0.0,0.0,0.0,0.0,0.0,0.0,0.0,0.0,0.0,0.0,0.0,0.0,0.0,0.0,0.0,0.0,0.0,0.0,0.0,0.0,0.0,0.0,0.0,0.0,0.0,0.0,0.0,0.0,0.0,0.0,0.0,0.0,0.0,0.0,0.0,0.0,0.0,0.0,0.0,0.0,0.0,0.0,0.0,0.0,0.0,0.0,0.0,0.0,0.0,0.0,0.0,0.0,0.0,0.0,0.0,0.0,0.0,0.0,0.0,0.0,0.0,0.0,0.0,0.0,0.0,0.0,0.0,0.0,0.0,0.0,0.0,0.0,0.0,0.0,0.0,0.0,0.0,0.0,0.0,0.0,0.0,0.0,0.0,0.0,0.0,0.0,0.0,0.0,0.0,0.0,0.0,0.0,0.0,0.0,0.0,0.0,0.0,0.0,0.0,0.0,0.0,0.0,0.0,0.0,0.0,0.0,0.0,0.0,0.0,0.0,0.0,0.0,0.0,0.0,0.0,0.0,0.0,0.0,0.0,0.0,0.0,0.0,0.0,0.0,0.0,0.0,0.0,0.0,0.0,0.0,0.0,0.0,0.0,0.0,0.0,0.0,0.0,0.0,0.0,0.0,0.0,0.0,0.0,0.0,0.0,0.0,0.0,0.0,0.0,0.0,0.0,0.0,0.0,0.0,0.0,0.0,0.0,0.0,0.0,0.0,0.0,0.0,0.0,0.0,0.0,0.0,0.0,0.0,0.0,0.0,0.0,0.0,0.0,0.0,0.0,0.0,0.0,0.0,0.0,0.0,0.0,0.0,0.0,0.0,0.0,0.0,0.0,0.0,0.0,0.0,0.0,0.0,0.0,0.0,0.0,0.0,0.0,0.0,0.0,0.0,0.0,0.0,0.0,0.0,0.0,0.0,0.0,0.0,0.0,0.0,0.0,0.0,0.0,0.0,0.0,0.0,0.0,0.0,0.0,0.0,0.0,0.0,0.0,0.0,0.0,0.0,0.0,0.0,0.0,0.0,0.0,0.0,0.0,0.0,0.0,0.0,0.0,0.0,0.0,0.0,0.0,0.0,0.0,0.0,0.0,0.0,0.0,0.0,0.0,0.0,0.0,0.0,0.0,0.0,0.0,0.0,0.0,0.0,0.0,0.0,0.0,0.0,0.0,0.0,0.0,0.0,0.0,0.0,0.0,0.0,0.0,0.0,0.0,0.0,0.0,0.0,0.0,0.0,0.0,0.0,0.0,0.0,0.0,0.0,0.0,0.0,0.0,0.0,0.0,0.0,0.0,0.0,0.0,0.0,0.0,0.0,0.0,0.0,0.0,0.0,0.0,0.0,0.0,0.0,0.0,0.0,0.0,0.0,0.0,0.0,0.0,0.0,0.0,0.0,0.0,0.0,0.0,0.0,0.0,0.0,0.0,0.0,0.0,0.0,0.0,0.0,0.0,0.0,0.0,0.0,0.0,0.0,0.0,0.0,0.0,0.0,0.0,0.0,0.0,0.0,0.0,0.0,0.0,0.0,0.0,0.0,0.0,0.0,0.0,0.0,-0.2222,0.0,0.0,0.0,-0.4004,0.0,0.0,0.0,0.0,0.0,0.0,0.0,0.0,0.0,0.0,0.0,0.0,0.0,0.0,0.0,0.0,0.0,0.0,0.0,0.0,0.0,0.0,0.0,0.0,0.0,0.0,0.0,0.0,0.0,0.0,0.0,0.0,0.0,0.0,0.0,0.0,0.0,0.0,0.0,0.0,0.0,0.0,0.0,0.0,0.0,0.0,0.0,0.0,0.0,0.0,0.0,0.0,0.0,0.0,0.0,0.0,0.0,0.0,0.0,0.0,0.0,0.0,0.0,0.0,0.0,0.0,0.0,0.0,0.0,0.0,0.0,0.0,0.0,0.0,0.0,0.0,0.0,0.0,0.0,0.0,0.0,0.0,0.0,0.0,0.0,0.0,0.0,0.0,0.0,0.0,0.0,0.0,0.0,0.0,0.0,0.0,0.0,0.0,0.0,0.0,0.0,0.0,0.0,0.0,0.0,0.0,0.0,0.0,0.0,0.0,-0.216,-0.2467,-0.2837,-0.3268,-0.3881,0.0,0.0,0.0,0.0,0.0,0.0,0.0,0.0,0.0,0.0,0.0,0.0,0.0,0.0,0.0,0.0,0.0,0.0,0.0,0.0,0.0,0.0,0.0,0.0,0.0,0.0,0.0,0.0,0.0,0.0,0.0,0.0,0.0,0.0,0.0,0.0,0.0,0.0,0.0,0.0,0.0,0.0,0.0,0.0,0.0,0.0,0.0,0.0,0.0,0.0,0.0,0.0,0.0,0.0,0.0,0.0,0.0,0.0,0.0,0.0,0.0,0.0,0.0,0.0,0.0,0.0,0.0,0.0,0.0,0.0,0.0,0.0,0.0,0.0,0.0,0.0,0.0,0.0,0.0,0.0,0.0,0.0,0.0,0.0,0.0,0.0,0.0,0.0,0.0,0.0,0.0,0.0,0.0,0.0,0.0,0.0,0.0,0.0,0.0,0.0,0.0,0.0,0.0,0.0,0.0,0.0,0.0,0.0,0.0,0.0,0.0,0.0,-0.2716,-0.3325,-0.4105,0.0,0.0,0.0,0.0,0.0,0.0,0.0,0.0,0.0,0.0,0.0,0.0,0.0,0.0,0.0,0.0,0.0,0.0,0.0,0.0,0.0,0.0,0.0,0.0,0.0,0.0,0.0,0.0,0.0,0.0,0.0,0.0,0.0,0.0,0.0,0.0,0.0,0.0,0.0,0.0,0.0,0.0,0.0,0.0,0.0,0.0,0.0,0.0,0.0,0.0,0.0,0.0,0.0,0.0,0.0,0.0,0.0,0.0,0.0,0.0,0.0,0.0,0.0,0.0,0.0,0.0,0.0,0.0,0.0,0.0,0.0,0.0,0.0,0.0,0.0,0.0,0.0,0.0,0.0,0.0,0.0,0.0,0.0,0.0,0.0,0.0,0.0,0.0,0.0,0.0,0.0,0.0,0.0,0.0,0.0,0.0,0.0,0.0,0.0,0.0,0.0,0.0,0.0,0.0,0.0,0.0,0.0,0.0,0.0,0.0,-0.1853,-0.1605,-0.2531,0.0,-0.465,0.0,0.0,0.0,0.0,0.0,0.0,0.0,0.0,0.0,0.0,0.0,0.0,0.0,0.0,0.0,0.0,0.0,0.0,0.0,0.0,0.0,0.0,0.0,0.0,0.0,0.0,0.0,0.0,0.0,0.0,0.0,0.0,0.0,0.0,0.0,0.0,0.0,0.0,0.0,0.0,0.0,0.0,0.0,0.0,0.0,0.0,0.0,0.0,0.0,0.0,0.0,0.0,0.0,0.0,0.0,0.0,0.0,0.0,0.0,0.0,0.0,0.0,0.0,0.0,0.0,0.0,0.0,0.0,0.0,0.0,0.0,0.0,0.0,0.0,0.0,0.0,0.0,0.0,0.0,0.0,0.0,0.0,0.0,0.0,0.0,0.0,0.0,0.0,0.0,0.0,0.0,0.0,0.0,0.0,0.0,0.0,0.0,0.0,0.0,0.0,0.0,0.0,0.0,0.0,0.0,0.0,0.0,0.0,0.0,0.0,-0.1668,-0.1483,-0.2469,-0.3552,0.0,0.0,0.0,0.0,0.0,0.0,0.0,0.0,0.0,0.0,0.0,0.0,0.0,0.0,0.0,0.0,0.0,0.0,0.0,0.0,0.0,0.0,0.0,0.0,0.0,0.0,0.0,0.0,0.0,0.0,0.0,0.0,0.0,0.0,0.0,0.0,0.0,0.0,0.0,0.0,0.0,0.0,0.0,0.0,0.0,0.0,0.0,0.0,0.0,0.0,0.0,0.0,0.0,0.0,0.0,0.0,0.0,0.0,0.0,0.0,0.0,0.0,0.0,0.0,0.0,0.0,0.0,0.0,0.0,0.0,0.0,0.0,0.0,0.0,0.0,0.0,0.0,0.0,0.0,0.0,0.0,0.0,0.0,0.0,0.0,0.0,0.0,0.0,0.0,0.0,0.0,0.0,0.0,0.0,0.0,0.0,0.0,0.0,0.0,0.0,0.0,0.0,0.0,0.0,0.0,0.0,0.0,0.0,0.0,0.0,-0.1421,-0.1605,-0.1914,-0.259,-0.3544,-0.4734,0.0,0.0,0.0,0.0,0.0,0.0,0.0,0.0,0.0,0.0,0.0,0.0,0.0,0.0,0.0,0.0,0.0,0.0,0.0,0.0,0.0,0.0,0.0,0.0,0.0,0.0,0.0,0.0,0.0,0.0,0.0,0.0,0.0,0.0,0.0,0.0,0.0,0.0,0.0,0.0,0.0,0.0,0.0,0.0,0.0,0.0,0.0,0.0,0.0,0.0,0.0,0.0,0.0,0.0,0.0,0.0,0.0,0.0,0.0,0.0,0.0,0.0,0.0,0.0,0.0,0.0,0.0,0.0,0.0,0.0,0.0,0.0,0.0,0.0,0.0,0.0,0.0,0.0,0.0,0.0,0.0,0.0,0.0,0.0,0.0,0.0,0.0,0.0,0.0,0.0,0.0,0.0,0.0,0.0,0.0,0.0,0.0,0.0,0.0,0.0,0.0,0.0,0.0,0.0,0.0,0.0,0.0,0.0,-0.105,-0.1359,-0.1975,-0.2901,-0.296,-0.3527,0.0,0.0,0.0,0.0,0.0,0.0,0.0,0.0,0.0,0.0,0.0,0.0,0.0,0.0,0.0,0.0,0.0,0.0,0.0,0.0,0.0,0.0,0.0,0.0,0.0,0.0,0.0,0.0,0.0,0.0,0.0,0.0,0.0,0.0,0.0,0.0,0.0,0.0,0.0,0.0,0.0,0.0,0.0,0.0,0.0,0.0,0.0,0.0,0.0,0.0,0.0,0.0,0.0,0.0,0.0,0.0,0.0,0.0,0.0,0.0,0.0,0.0,0.0,0.0,0.0,0.0,0.0,0.0,0.0,0.0,0.0,0.0,0.0,0.0,0.0,0.0,0.0,0.0,0.0,0.0,0.0,0.0,0.0,0.0,0.0,0.0,0.0,0.0,0.0,0.0,0.0,0.0,0.0,0.0,0.0,0.0,0.0,0.0,0.0,0.0,0.0,0.0,0.0,0.0,0.0,0.0,0.0,0.0,0.0,-0.1003,-0.1137,-0.177,-0.2945,-0.3005,-0.3561,0.0,0.0,0.0,0.0,0.0,0.0,0.0,0.0,0.0,0.0,0.0,0.0,0.0,0.0,0.0,0.0,0.0,0.0,0.0,0.0,0.0,0.0,0.0,0.0,0.0,0.0,0.0,0.0,0.0,0.0,0.0,0.0,0.0,0.0,0.0,0.0,0.0,0.0,0.0,0.0,0.0,0.0,0.0,0.0,0.0,0.0,0.0,0.0,0.0,0.0,0.0,0.0,0.0,0.0,0.0,0.0,0.0,0.0,0.0,0.0,0.0,0.0,0.0,0.0,0.0,0.0,0.0,0.0,0.0,0.0,0.0,0.0,0.0,0.0,0.0,0.0,0.0,0.0,0.0,0.0,0.0,0.0,0.0,0.0,0.0,0.0,0.0,0.0,0.0,0.0,0.0,0.0,0.0,0.0,0.0,0.0,0.0,0.0,0.0,0.0,0.0,0.0,0.0,0.0,0.0,0.0,0.0,0.0,0.0,-0.1209,0.0,-0.1861,-0.2989,-0.3225,-0.3784,0.0,0.0,0.0,0.0,0.0,0.0,0.0,0.0,0.0,0.0,0.0,0.0,0.0,0.0,0.0,0.0,0.0,0.0,0.0,0.0,0.0,0.0,0.0,0.0,0.0,0.0,0.0,0.0,0.0,0.0,0.0,0.0,0.0,0.0,0.0,0.0,0.0,0.0,0.0,0.0,0.0,0.0,0.0,0.0,0.0,0.0,0.0,0.0,0.0,0.0,0.0,0.0,0.0,0.0,0.0,0.0,0.0,0.0,0.0,0.0,0.0,0.0,0.0,0.0,0.0,0.0,0.0,0.0,0.0,0.0,0.0,0.0,0.0,0.0,0.0,0.0,0.0,0.0,0.0,0.0,0.0,0.0,0.0,0.0,0.0,0.0,0.0,0.0,0.0,0.0,0.0,0.0,0.0,0.0,0.0,0.0,0.0,0.0,0.0,0.0,0.0,0.0,0.0,0.0,0.0,0.0,0.0,0.0,-0.1528,-0.1613,-0.1939,-0.246,-0.3099,-0.3695,-0.4264,0.0,0.0,0.0,0.0,0.0,0.0,0.0,0.0,0.0,0.0,0.0,0.0,0.0,0.0,0.0,0.0,0.0,0.0,0.0,0.0,0.0,0.0,0.0,0.0,0.0,0.0,0.0,0.0,0.0,0.0,0.0,0.0,0.0,0.0,0.0,0.0,0.0,0.0,0.0,0.0,0.0,0.0,0.0,0.0,0.0,0.0,0.0,0.0,0.0,0.0,0.0,0.0,0.0,0.0,0.0,0.0,0.0,0.0,0.0,0.0,0.0,0.0,0.0,0.0,0.0,0.0,0.0,0.0,0.0,0.0,0.0,0.0,0.0,0.0,0.0,0.0,0.0,0.0,0.0,0.0,0.0,0.0,0.0,0.0,0.0,0.0,0.0,0.0,0.0,0.0,0.0,0.0,0.0,0.0,0.0,0.0,0.0,0.0,0.0,0.0,0.0,0.0,0.0,0.0,0.0,0.0,0.0,0.0,0.0,-0.2023,-0.2449,-0.3061,-0.3974,-0.4386,-0.4865,0.0,0.0,0.0,0.0,0.0,0.0,0.0,0.0,0.0,0.0,0.0,0.0,0.0,0.0,0.0,0.0,0.0,0.0,0.0,0.0,0.0,0.0,0.0,0.0,0.0,0.0,0.0,0.0,0.0,0.0,0.0,0.0,0.0,0.0,0.0,0.0,0.0,0.0,0.0,0.0,0.0,0.0,0.0,0.0,0.0,0.0,0.0,0.0,0.0,0.0,0.0,0.0,0.0,0.0,0.0,0.0,0.0,0.0,0.0,0.0,0.0,0.0,0.0,0.0,0.0,0.0,0.0,0.0,0.0,0.0,0.0,0.0,0.0,0.0,0.0,0.0,0.0,0.0,0.0,0.0,0.0,0.0,0.0,0.0,0.0,0.0,0.0,0.0,0.0,0.0,0.0,0.0,0.0,0.0,0.0,0.0,0.0,0.0,0.0,0.0,0.0,0.0,0.0,0.0,0.0,0.0,0.0,0.0,0.0,-0.2803,-0.3655,-0.4351,-0.4811,-0.5663,-0.6101,-0.6142,0.0,0.0,0.0,0.0,0.0,0.0,0.0,0.0,0.0,0.0,0.0,0.0,0.0,0.0,0.0,0.0,0.0,0.0,0.0,0.0,0.0,0.0,0.0,0.0,0.0,0.0,0.0,0.0,0.0,0.0,0.0,0.0,0.0,0.0,0.0,0.0,0.0,0.0,0.0,0.0,0.0,0.0,0.0,0.0,0.0,0.0,0.0,0.0,0.0,0.0,0.0,0.0,0.0,0.0,0.0,0.0,0.0,0.0,0.0,0.0,0.0,0.0,0.0,0.0,0.0,0.0,0.0,0.0,0.0,0.0,0.0,0.0,0.0,0.0,0.0,0.0,0.0,0.0,0.0,0.0,0.0,0.0,0.0,0.0,0.0,0.0,0.0,0.0,0.0,0.0,0.0,0.0,0.0,0.0,0.0,0.0,0.0,0.0,0.0,0.0,0.0,0.0,0.0,0.0,0.0,0.0,0.0,0.0,-0.3861,-0.5512,-0.6195,-0.5664,-0.7237,-0.7824,0.0,0.0,0.0,0.0,0.0,0.0,0.0,0.0,0.0,0.0,0.0,0.0,0.0,0.0,0.0,0.0,0.0,0.0,0.0,0.0,0.0,0.0,0.0,0.0,0.0,0.0,0.0,0.0,0.0,0.0,0.0,0.0,0.0,0.0,0.0,0.0,0.0,0.0,0.0,0.0,0.0,0.0,0.0,0.0,0.0,0.0,0.0,0.0,0.0,0.0,0.0,0.0,0.0,0.0,0.0,0.0,0.0,0.0,0.0,0.0,0.0,0.0,0.0,0.0,0.0,0.0,0.0,0.0,0.0,0.0,0.0,0.0,0.0,0.0,0.0,0.0,0.0,0.0,0.0,0.0,0.0,0.0,0.0,0.0,0.0,0.0,0.0,0.0,0.0,0.0,0.0,0.0,0.0,0.0,0.0,0.0,0.0,0.0,0.0,0.0,0.0,0.0,0.0,0.0,0.0,0.0,0.0,0.0,0.0,-0.49,-0.7584,-0.8436,-0.7201,-0.8155,-0.8581,0.0,0.0,0.0,0.0,0.0,0.0,0.0,0.0,0.0,0.0,0.0,0.0,0.0,0.0,0.0,0.0,0.0,0.0,0.0,0.0,0.0,0.0,0.0,0.0,0.0,0.0,0.0,0.0,0.0,0.0,0.0,0.0,0.0,0.0,0.0,0.0,0.0,0.0,0.0,0.0,0.0,0.0,0.0,0.0,0.0,0.0,0.0,0.0,0.0,0.0,0.0,0.0,0.0,0.0,0.0,0.0,0.0,0.0,0.0,0.0,0.0,0.0,0.0,0.0,0.0,0.0,0.0,0.0,0.0,0.0,0.0,0.0,0.0,0.0,0.0,0.0,0.0,0.0,0.0,0.0,0.0,0.0,0.0,0.0,0.0,0.0,0.0,0.0,0.0,0.0,0.0,0.0,0.0,0.0,0.0,0.0,0.0,0.0,0.0,0.0,0.0,0.0,0.0,0.0,0.0,0.0,0.0,0.0,-0.5084,-0.5829,-0.8557,-0.984,-0.9351,-0.9749,-0.9769,0.0,0.0,0.0,0.0,0.0,0.0,0.0,0.0,0.0,0.0,0.0,0.0,0.0,0.0,0.0,0.0,0.0,0.0,0.0,0.0,0.0,0.0,0.0,0.0,0.0,0.0,0.0,0.0,0.0,0.0,0.0,0.0,0.0,0.0,0.0,0.0,0.0,0.0,0.0,0.0,0.0,0.0,0.0,0.0,0.0,0.0,0.0,0.0,0.0,0.0,0.0,0.0,0.0,0.0,0.0,0.0,0.0,0.0,0.0,0.0,0.0,0.0,0.0,0.0,0.0,0.0,0.0,0.0,0.0,0.0,0.0,0.0,0.0,0.0,0.0,0.0,0.0,0.0,0.0,0.0,0.0,0.0,0.0,0.0,0.0,0.0,0.0,0.0,0.0,0.0,0.0,0.0,0.0,0.0,0.0,0.0,0.0,0.0,0.0,0.0,0.0,0.0,0.0,0.0,0.0,0.0,0.0,0.0,-0.5747,-0.6848,-0.9008,-1.0602,-1.1519,-1.153,-1.1042,0.0,0.0,0.0,0.0,0.0,0.0,0.0,0.0,0.0,0.0,0.0,0.0,0.0,0.0,0.0,0.0,0.0,0.0,0.0,0.0,0.0,0.0,0.0,0.0,0.0,0.0,0.0,0.0,0.0,0.0,0.0,0.0,0.0,0.0,0.0,0.0,0.0,0.0,0.0,0.0,0.0,0.0,0.0,0.0,0.0,0.0,0.0,0.0,0.0,0.0,0.0,0.0,0.0,0.0,0.0,0.0,0.0,0.0,0.0,0.0,0.0,0.0,0.0,0.0,0.0,0.0,0.0,0.0,0.0,0.0,0.0,0.0,0.0,0.0,0.0,0.0,0.0,0.0,0.0,0.0,0.0,0.0,0.0,0.0,0.0,0.0,0.0,0.0,0.0,0.0,0.0,0.0,0.0,0.0,0.0,0.0,0.0,0.0,0.0,0.0,0.0,0.0,0.0,0.0,0.0,0.0,0.0,0.0,-0.6304,-0.7671,-0.9594,-1.0948,-1.17,-1.193,-1.1612,0.0,0.0,0.0,0.0,0.0,0.0,0.0,0.0,0.0,0.0,0.0,0.0,0.0,0.0,0.0,0.0,0.0,0.0,0.0,0.0,0.0,0.0,0.0,0.0,0.0,0.0,0.0,0.0,0.0,0.0,0.0,0.0,0.0,0.0,0.0,0.0,0.0,0.0,0.0,0.0,0.0,0.0,0.0,0.0,0.0,0.0,0.0,0.0,-0.6692,0.0,0.0,0.0,0.0,0.0,0.0,0.0,0.0,0.0,0.0,0.0,0.0,0.0,0.0,0.0,0.0,0.0,0.0,0.0,0.0,0.0,0.0,0.0,0.0,0.0,0.0,0.0,0.0,0.0,0.0,0.0,0.0,0.0,0.0,0.0,0.0,0.0,0.0,0.0,0.0,0.0,0.0,0.0,0.0,0.0,0.0,0.0,0.0,0.0,0.0,0.0,0.0,0.0,0.0,0.0,0.0,0.0,0.0,0.0,-0.7001,-0.8752,-1.0066,-1.1257,-1.2351,-1.2555,-1.2096,0.0,0.0,0.0,0.0,0.0,0.0,0.0,0.0,0.0,0.0,0.0,0.0,0.0,0.0,0.0,0.0,0.0,0.0,0.0,0.0,0.0,0.0,0.0,0.0,0.0,0.0,0.0,0.0,0.0,0.0,0.0,0.0,0.0,0.0,0.0,0.0,0.0,0.0,0.0,0.0,0.0,0.0,0.0,0.0,0.0,0.0,0.0,0.0,0.0,0.0,0.0,0.0,0.0,0.0,0.0,0.0,0.0,0.0,0.0,0.0,0.0,0.0,0.0,0.0,0.0,0.0,0.0,0.0,0.0,0.0,0.0,0.0,0.0,0.0,0.0,0.0,0.0,0.0,0.0,0.0,0.0,0.0,0.0,0.0,0.0,0.0,0.0,0.0,0.0,0.0,0.0,0.0,0.0,0.0,0.0,0.0,0.0,0.0,0.0,0.0,0.0,0.0,0.0,0.0,0.0,0.0,0.0,-0.6058,-0.7698,-0.9673,-1.0519,-1.1553,-1.3112,-1.2969,-1.2238,-1.0804,0.0,0.0,0.0,0.0,0.0,0.0,0.0,0.0,0.0,0.0,0.0,0.0,0.0,0.0,0.0,0.0,0.0,0.0,0.0,0.0,0.0,0.0,0.0,0.0,0.0,0.0,0.0,0.0,0.0,0.0,0.0,0.0,0.0,0.0,0.0,0.0,0.0,0.0,0.1077,0.0875,0.0,0.0,0.0,0.0,0.0,0.0,0.0,0.0,-0.5552,0.0,0.0,0.0,0.0,0.0,0.0,0.0,0.0,0.0,0.0,0.0,0.0,0.0,0.0,0.0,0.0,0.0,0.0,0.0,0.0,0.0,0.0,0.0,0.0,0.0,0.0,0.0,0.0,0.0,0.0,0.0,0.0,0.0,0.0,0.0,0.0,0.0,0.0,0.0,0.0,0.0,0.0,0.0,0.0,0.0,0.0,0.0,0.0,0.0,0.0,0.0,0.0,0.0,0.0,0.0,0.0,-0.4965,-0.6957,-0.8599,-0.9779,-1.0973,-1.2025,-1.2734,-1.2657,-1.1974,-1.0589,0.0,0.0,0.0,0.0,0.0,0.0,0.0,0.0,0.0,0.0,0.0,0.0,0.0,0.0,0.0,0.0,0.0,0.0,0.0,0.0,0.0,0.0,0.0,0.0,0.0,0.0,0.0,0.0,0.0,0.0,0.0,0.0,0.0,0.0,0.0,0.0,0.0,0.0,0.0,0.1481,0.1211,0.0,0.0,0.0,0.0,0.0,0.0,0.0,0.0,-0.5262,0.0,0.0,0.0,0.0,0.0,0.0,0.0,0.0,0.0,0.0,0.0,0.0,0.0,0.0,0.0,0.0,0.0,0.0,0.0,0.0,0.0,0.0,0.0,0.0,0.0,0.0,0.0,0.0,0.0,0.0,0.0,0.0,0.0,0.0,0.0,0.0,0.0,0.0,0.0,0.0,0.0,0.0,0.0,0.0,0.0,0.0,0.0,0.0,0.0,0.0,0.0,0.0,0.0,0.0,0.0,-0.6156,-0.7536,-0.9031,-1.0603,-1.1317,-1.1987,-1.266,-1.2349,-1.1611,0.0,0.0,0.0,0.0,0.0,0.0,0.0,0.0,0.0,0.0,0.0,0.0,0.0,0.0,0.0,0.0,0.0,0.0,0.0,0.0,0.0,0.0,0.0,0.0,0.0,0.0,0.0,0.0,0.0,0.0,0.0,0.0,0.0,0.0,0.0,0.0,0.0,0.0,0.0,0.0,0.2154,0.1746,0.1399,0.0,0.0,0.0,0.0,0.0,0.0,-0.3838,-0.4139,0.0,0.0,0.0,0.0,0.0,0.0,0.0,0.0,0.0,0.0,0.0,0.0,0.0,0.0,0.0,0.0,0.0,0.0,0.0,0.0,0.0,0.0,0.0,0.0,0.0,0.0,0.0,0.0,0.0,0.0,0.0,0.0,0.0,0.0,0.0,0.0,0.0,0.0,0.0,0.0,0.0,0.0,0.0,0.0,0.0,0.0,0.0,0.0,0.0,0.0,0.0,0.0,0.0,0.0,0.0,-0.716,-0.8089,-0.9506,-1.1385,-1.1727,-1.2112,-1.2606,-1.2044,-1.1183,0.0,0.0,0.0,0.0,0.0,0.0,0.0,0.0,0.0,0.0,0.0,0.0,0.0,0.0,0.0,0.0,0.0,0.0,0.0,0.0,0.0,0.0,0.0,0.0,0.0,0.0,0.0,0.0,0.0,0.0,0.0,0.0,0.0,0.0,0.0,0.0,0.0,0.0,0.0,0.0,0.0,0.2478,0.2313,0.1237,0.0,0.0,0.0,0.0,-0.2341,-0.2589,0.0,0.0,0.0,0.0,0.0,0.0,0.0,0.0,0.0,0.0,0.0,0.0,0.0,0.0,0.0,0.0,0.0,0.0,0.0,0.0,0.0,0.0,0.0,0.0,0.0,0.0,0.0,0.0,0.0,0.0,0.0,0.0,0.0,0.0,0.0,0.0,0.0,0.0,0.0,0.0,0.0,0.0,0.0,0.0,0.0,0.0,0.0,0.0,0.0,0.0,0.0,0.0,0.0,0.0,0.0,0.0,-0.7322,-0.8965,-1.028,-1.1373,-1.2193,-1.2527,-1.2528,-1.1574,-1.0693,0.0,0.0,0.0,0.0,0.0,0.0,0.0,0.0,0.0,0.0,0.0,0.0,0.0,0.0,0.0,0.0,0.0,0.0,0.0,0.0,0.0,0.0,0.0,0.0,0.0,0.0,0.0,0.0,0.0,0.0,0.0,0.0,0.0,0.0,0.0,0.0,0.0,0.0,0.0,0.0,0.0,0.3348,0.2641,0.2408,0.1861,0.0,0.0,-0.0308,-0.0741,-0.1296,0.0,0.0,0.0,0.0,0.0,0.0,0.0,0.0,0.0,0.0,0.0,0.0,0.0,0.0,0.0,0.0,0.0,0.0,0.0,0.0,0.0,0.0,0.0,0.0,0.0,0.0,0.0,0.0,0.0,0.0,0.0,0.0,0.0,0.0,0.0,0.0,0.0,0.0,0.0,0.0,0.0,0.0,0.0,0.0,0.0,0.0,0.0,0.0,0.0,0.0,0.0,0.0,0.0,0.0,0.0,-0.6515,-0.8207,-0.9382,-1.0614,-1.1966,-1.2206,-1.2296,-1.2386,-1.1195,-1.0331,0.0,0.0,0.0,0.0,0.0,0.0,0.0,0.0,0.0,0.0,0.0,0.0,0.0,0.0,0.0,0.0,0.0,0.0,0.0,0.0,0.0,0.0,0.0,0.0,0.0,0.0,0.0,0.0,0.0,0.0,0.0,0.0,0.0,0.0,0.0,0.0,0.0,0.0,0.0,0.0,0.0,0.0,0.367,0.3324,0.0,0.0,0.0,0.0925,0.0432,0.0,0.0,0.0,0.0,0.0,0.0,0.0,0.0,0.0,0.0,0.0,0.0,0.0,0.0,0.0,0.0,0.0,0.0,0.0,0.0,0.0,0.0,0.0,0.0,0.0,0.0,0.0,0.0,0.0,0.0,0.0,0.0,0.0,0.0,0.0,0.0,0.0,0.0,0.0,0.0,0.0,0.0,0.0,0.0,0.0,0.0,0.0,0.0,0.0,0.0,0.0,0.0,0.0,0.0,0.0,0.0,0.0,-0.8822,-0.9686,-1.0844,-1.2216,-1.2017,-1.1991,-1.204,-1.1032,0.0,0.0,0.0,0.0,0.0,0.0,0.0,0.0,0.0,0.0,0.0,0.0,0.0,0.0,0.0,0.0,0.0,0.0,0.0,0.0,0.0,0.0,0.0,0.0,0.0,0.0,0.0,-0.4131,0.0,0.0,0.0,0.0,0.0,0.0,0.0,0.0,0.0,0.0,0.0,0.0,0.0,0.0,0.4549,0.4608,0.4281,0.3878,0.0,0.0,0.2386,0.1829,0.1449,0.1083,0.0,0.0,0.0,0.0,0.0,0.0,0.0,0.0,0.0,0.0,0.0,0.0,0.0,0.0,0.0,0.0,0.0,0.0,0.0,0.0,0.0,0.0,0.0,0.0,0.0,0.0,0.0,0.0,0.0,0.0,0.0,0.0,0.0,0.0,0.0,0.0,0.0,0.0,0.0,0.0,0.0,0.0,0.0,0.0,0.0,0.0,0.0,0.0,0.0,0.0,0.0,0.0,0.0,0.0,-0.7402,-0.8708,-1.0081,-1.1101,-1.1771,-1.1895,-1.1721,-1.1399,-1.0999,-1.0361,0.0,0.0,0.0,0.0,0.0,0.0,0.0,0.0,0.0,0.0,0.0,0.0,0.0,0.0,0.0,0.0,0.0,0.0,0.0,0.0,0.0,0.0,0.0,0.0,0.0,0.0,0.0,0.0,0.0,0.0,0.0,0.0,0.0,0.0,0.0,0.0,0.0,0.0,0.0,0.0,0.0,0.5698,0.5049,0.5478,0.5543,0.0,0.4337,0.4076,0.39,0.3595,0.3298,0.2947,0.0,0.0,0.0,0.0,0.0,0.0,0.0,0.0,0.0,0.0,0.0,0.0,0.0,0.0,0.0,0.0,0.0,0.0,0.0,0.0,0.0,0.0,0.0,0.0,0.0,0.0,0.0,0.0,0.0,0.0,0.0,0.0,0.0,0.0,0.0,0.0,0.0,0.0,0.0,0.0,0.0,0.0,0.0,0.0,0.0,0.0,0.0,0.0,0.0,0.0,0.0,0.0,0.0,-0.7912,-0.9446,-1.0184,-1.0932,-1.1682,-1.1272,-1.1063,-1.0895,-1.0427,-0.9928,0.0,0.0,0.0,0.0,0.0,0.0,0.0,0.0,0.0,0.0,0.0,0.0,0.0,0.0,0.0,0.0,0.0,0.0,0.0,0.0,0.0,0.0,0.0,0.0,0.0,0.0,0.0,0.0,-0.5967,-0.5621,-0.4757,0.0,0.0,0.0,0.0,0.0,0.0,0.0,0.0,0.0,0.0,0.653,0.6672,0.7153,0.0,0.0,0.6069,0.5618,0.5299,0.4777,0.4415,0.4282,0.4079,0.0,0.0,0.0,0.0,0.0,0.0,0.0,0.0,0.0,0.0,0.0,0.0,0.0,0.0,0.0,0.0,0.0,0.0,0.0,0.0,0.0,0.0,0.0,0.0,0.0,0.0,0.0,0.0,0.0,0.0,0.0,0.0,0.0,0.0,0.0,0.0,0.0,0.0,0.0,0.0,0.0,0.0,0.0,0.0,0.0,0.0,0.0,0.0,0.0,0.0,0.0,0.0,-0.8409,-0.9965,-1.0411,-1.0908,-1.1466,-1.0904,-1.0515,-1.0373,-1.0036,-0.9714,0.0,0.0,0.0,0.0,0.0,0.0,0.0,0.0,0.0,0.0,0.0,0.0,0.0,0.0,0.0,0.0,0.0,0.0,0.0,0.0,0.0,0.0,0.0,0.0,0.0,0.0,0.0,0.0,-0.5991,-0.5358,-0.3954,0.0,0.0,0.0,0.0,0.0,0.0,0.0,0.0,0.0,0.0,0.6986,0.7638,0.8127,0.8259,0.7836,0.7407,0.7008,0.6609,0.6189,0.5873,0.5741,0.0,0.0,0.0,0.0,0.0,0.0,0.0,0.0,0.0,0.0,0.0,0.0,0.0,0.0,0.0,0.0,0.0,0.0,0.0,0.0,0.0,0.0,0.0,0.0,0.0,0.0,0.0,-0.4631,0.0,0.0,-0.3603,0.0,0.0,0.0,0.0,0.0,0.0,0.0,0.0,0.0,0.0,0.0,0.0,0.0,0.0,0.0,0.0,0.0,0.0,0.0,0.0,0.0,0.0,-0.8938,-0.9842,-1.081,-1.1245,-1.0952,-1.062,-1.0241,-0.9736,-0.9996,-0.9954,-0.9694,0.0,0.0,0.0,0.0,0.0,0.0,0.0,0.0,0.0,0.0,0.0,0.0,0.0,0.0,0.0,0.0,0.0,0.0,0.0,0.0,0.0,0.0,0.0,0.0,0.0,0.0,-0.5764,-0.5266,-0.4455,0.0,0.0,0.0,0.0,0.0,0.0,0.0,0.0,0.0,0.5412,0.6174,0.6935,0.781,0.8224,0.8369,0.8229,0.8211,0.81,0.7967,0.7937,0.7778,0.0,0.0,0.0,0.0,0.0,0.0,0.0,0.0,0.0,0.0,0.0,0.0,0.0,0.0,0.0,0.0,0.0,0.0,0.0,0.0,0.0,0.0,0.0,0.0,0.0,0.0,0.0,-0.5295,-0.5747,0.0,0.0,0.0,0.0,0.0,0.0,0.0,0.0,0.0,0.0,0.0,-0.8452,-0.838,0.0,0.0,0.0,0.0,0.0,0.0,0.0,0.0,0.0,0.0,0.0,0.0,-0.9578,-1.0372,-1.0817,-1.1014,-1.0871,-1.0391,-0.9937,-0.9438,-0.9695,-0.9641,-0.9165,0.0,0.0,0.0,0.0,0.0,0.0,0.0,0.0,0.0,0.0,0.0,0.0,0.0,0.0,0.0,0.0,0.0,0.0,0.0,0.0,0.0,0.0,0.0,0.0,0.0,-0.5373,0.0,0.0,0.0,0.0,0.0,0.0,0.0,0.0,0.0,0.0,0.0,0.3888,0.5081,0.6302,0.7399,0.8087,0.8858,0.9269,0.0,0.0,0.0,0.0,0.0,0.0,0.0,0.0,0.0,0.0,0.0,0.0,0.0,0.0,0.8532,0.6412,0.5829,0.5699,0.5699,0.0,0.0,0.0,0.0,0.0,0.0,0.0,0.0,0.0,0.0,0.0,0.0,0.0,0.0,-0.6437,0.0,-0.6539,0.0,0.0,0.0,0.0,0.0,0.0,0.0,0.0,-0.9253,-0.9575,-0.99,-0.9742,-0.9765,0.0,-0.9469,-0.878,0.0,0.0,0.0,0.0,0.0,0.0,0.0,0.0,-0.9948,-1.0645,-1.0749,-1.0741,-1.0646,-1.0078,-0.9666,-0.9318,-0.9523,-0.9485,-0.9098,-0.8801,-0.8334,0.0,0.0,0.0,0.0,0.0,0.0,0.0,0.0,0.0,0.0,0.0,0.0,0.0,0.0,0.0,0.0,0.0,0.0,0.0,0.0,0.0,0.0,0.0,-0.5137,0.0,0.0,0.0,0.0,0.0,0.0,0.0,0.0,0.0,0.2408,0.2986,0.3839,0.5027,0.6311,0.7421,0.8263,0.0,0.0,0.0,0.0,0.0,0.0,0.0,0.9263,0.9101,0.9175,0.9527,1.0424,1.13,1.1835,1.1756,0.0,0.0,0.8666,0.7913,0.7642,0.7537,0.7482,0.7487,0.7487,0.7654,0.7814,0.0,0.0,0.0,0.0,0.0,0.0,0.0,0.0,-0.7638,-0.778,0.0,-0.7608,0.0,0.0,0.0,0.0,-0.7915,-0.8369,0.0,0.0,-1.0875,-1.1389,-1.1486,-1.122,-1.1103,-1.1084,-1.0473,-1.014,-1.0052,-0.9199,0.0,0.0,0.0,0.0,0.0,0.0,-1.003,-1.0651,-1.0669,-1.0509,-1.0323,-0.978,-0.9438,-0.9313,-0.9431,-0.9446,-0.9423,-0.9079,-0.8742,-0.8464,-0.7258,0.0,0.0,0.0,0.0,0.0,0.0,0.0,0.0,0.0,0.0,0.0,0.0,0.0,0.0,0.0,0.0,0.0,0.0,0.0,0.0,-0.5103,0.0,0.0,0.0,0.0,0.0,0.0,0.0,0.0,0.0,0.0,0.2572,0.2896,0.3631,0.5275,0.0,0.0,0.0,0.0,0.9332,0.9339,0.9332,0.9384,0.9377,0.9578,0.9672,0.9552,0.0,0.0,1.1583,1.2196,1.2667,1.2963,1.2633,1.1988,1.1287,1.0577,1.0038,0.9819,0.927,0.8954,0.8906,0.8886,0.8961,-0.4264,0.0,0.0,0.0,0.0,-0.6913,-0.7472,-0.8285,-0.8212,-0.8509,-0.9087,-0.8611,0.0,0.0,0.0,0.0,0.0,0.0,-0.9706,-1.069,-1.1113,-1.1364,-1.1596,-1.1509,-1.1469,-1.1469,-1.1246,-1.1135,-1.12,-1.0908,-1.0322,-0.9484,0.0,0.0,0.0,0.0,-1.0696,-1.073,-1.0755,-1.0631,-1.0207,-0.9813,-0.9557,-0.9438,-0.9188,-0.9087,-0.9087,-0.9086,-0.8827,-0.8416,-0.798,0.0,0.0,0.0,0.0,0.0,0.0,0.0,0.0,0.0,0.0,0.0,0.0,0.0,0.0,0.0,0.0,0.0,0.0,0.0,-0.5153,-0.4897,-0.4341,0.0,0.0,0.0,0.0,0.0,0.0,0.0,0.0,0.0,0.2528,0.3326,0.4333,0.0,0.0,0.758,0.8321,0.9265,0.9847,0.9847,1.0212,0.0,1.0305,1.0382,1.0365,1.0179,1.0851,1.1716,1.2577,1.3445,1.4197,1.4572,1.4718,1.4526,1.3506,1.1868,1.0721,1.0509,1.0087,0.9777,0.9784,0.9869,1.0008,-0.3442,-0.4183,-0.4898,-0.5751,-0.6672,-0.731,-0.8094,-0.9011,-0.897,-0.9174,-0.9617,-0.9282,-0.9118,-0.905,-0.876,0.0,0.0,0.0,-1.0431,-1.1302,-1.1543,-1.169,-1.1877,-1.1762,-1.1701,-1.1701,-1.1701,-1.1628,-1.1418,-1.1471,-1.1089,-1.0297,0.0,0.0,-1.0549,-1.0803,-1.0869,-1.0657,-1.0595,-1.0373,-0.9855,-0.9661,-0.9492,-0.941,-0.916,-0.8933,-0.8879,-0.8968,-0.8806,-0.8486,-0.8194,-0.7638,0.0,0.0,0.0,0.0,0.0,0.0,0.0,0.0,0.0,0.0,0.0,-0.3659,-0.3853,0.0,0.0,0.0,-0.5197,-0.5134,-0.4995,-0.4441,0.0,0.0,0.0,0.0,0.0,0.0,0.0,0.1442,0.2024,0.2427,0.2666,0.3862,0.4882,0.5464,0.6804,0.7923,0.8424,0.0,1.0018,1.0003,1.0408,1.067,1.0615,1.0689,1.0717,1.0626,1.1482,1.237,1.304,1.4005,1.4801,1.5308,1.5494,1.5282,1.4328,1.2817,1.1573,1.1259,1.0776,1.0412,1.0412,1.0504,1.0632,-0.293,-0.3465,-0.4505,-0.5693,-0.6986,-0.7843,-0.8934,-1.0025,-0.9916,-0.9862,-0.9769,-0.9731,-0.9677,-0.9666,-0.9666,0.0,-1.0191,-1.0652,-1.1164,-1.1656,-1.191,-1.2149,-1.2257,-1.1979,-1.185,-1.185,-1.1777,-1.1557,-1.1283,-1.1331,-1.1095,-1.0675,-1.0838,-1.0921,-1.0941,-1.0752,-1.0651,-1.0565,-1.029,-0.9922,-0.947,-0.9362,-0.9302,-0.9302,-0.9188,-0.8998,-0.8884,-0.8823,-0.8771,-0.859,-0.8031,-0.7605,-0.7253,0.0,0.0,0.0,0.0,0.0,0.0,0.0,0.0,0.0,0.0,0.0,0.0,0.0,0.0,-0.5339,-0.5286,0.0,-0.4712,-0.383,0.0,0.0,0.0,-0.0111,0.0438,0.0983,0.1419,0.1746,0.0,0.0,0.2872,0.4288,0.5393,0.5646,0.703,0.8167,0.856,0.9397,0.9958,0.9813,1.0158,1.0409,1.0489,1.0684,1.0921,1.1039,1.177,1.251,1.3149,1.3945,1.4751,1.5373,1.5332,1.4904,1.4064,1.34,1.2818,1.1885,1.1283,1.088,1.0914,1.094,1.0915,-0.3132,-0.3932,-0.4881,-0.596,-0.7164,-0.8668,-0.9665,-1.0155,-1.0128,-1.0063,-0.997,-0.9851,-0.9753,-0.9666,-0.9666,-0.9891,-1.0197,-1.0515,-1.0899,-1.1446,-1.1668,-1.1888,-1.2115,-1.2115,-1.2006,-1.2006,-1.1635,-1.1544,-1.1566,-1.1202,-1.0921,-1.081,-1.0755,-1.0838,-1.1005,-1.1087,-1.09,-1.0504,-1.0535,-1.017,-0.9351,-0.9318,-0.9302,-0.9302,-0.9101,-0.8911,-0.8879,-0.8742,-0.8617,-0.8584,-0.8231,-0.7901,-0.761,-0.6587,0.0,0.0,0.0,0.0,0.0,0.0,0.0,0.0,0.0,-0.4134,-0.4478,0.0,-0.561,0.0,-0.5326,-0.4843,-0.3827,-0.3248,0.0,0.0,-0.0389,0.022,0.0984,0.1189,0.1395,0.1715,0.2243,0.2598,0.2615,0.4361,0.5751,0.6192,0.7334,0.8333,0.8835,0.9409,0.9815,0.9874,1.0229,1.0623,1.0782,1.0997,1.1315,1.1672,1.1943,1.2448,1.3469,1.3994,1.4515,1.5264,1.5549,1.5092,1.3848,1.3463,1.2867,1.1717,1.1241,1.1141,1.1151,1.1271,1.1332,-0.3067,-0.4149,-0.5053,-0.6257,-0.7663,-0.8934,-0.9829,-1.028,-1.0226,-1.0134,-1.0014,-0.9949,-0.9883,-0.9824,-0.9829,-0.99,-1.0134,-1.0426,-1.0727,-1.1042,-1.1517,-1.1713,-1.1629,-1.1871,-1.1918,-1.1762,-1.1473,-1.1369,-1.1346,-1.0826,-1.0536,-1.0253,-1.0184,-1.0304,-1.0546,-1.0663,-1.0596,-1.0239,-1.0166,-0.9809,-0.9307,-0.9302,-0.928,-0.9226,-0.9106,-0.8911,-0.8872,-0.8742,-0.8622,-0.8513,-0.814,-0.789,-0.7643,-0.668,-0.5798,0.0,0.0,0.0,0.0,0.0,0.0,0.0,0.0,0.0,0.0,0.0,-0.5305,-0.5185,-0.4708,-0.398,-0.2941,-0.2171,-0.1302,-0.0168,0.0331,0.0765,0.1257,0.14,0.1599,0.1864,0.2275,0.2571,0.27,0.442,0.578,0.6114,0.7359,0.8467,0.9092,0.9567,0.9806,0.9865,1.0288,1.0667,1.0888,1.1314,1.165,1.1831,1.2282,1.2871,1.3558,1.4033,1.4585,1.5245,1.5338,1.4965,1.392,1.3377,1.2797,1.1775,1.1296,1.1198,1.1198,1.1293,1.1378,-0.291,-0.4346,-0.5064,-0.6466,-0.8307,-0.8976,-0.9692,-1.0378,-1.0259,-1.0134,-1.0019,-1.0019,-1.0019,-1.0019,-1.0019,-1.0019,-1.0019,-1.033,-1.0563,-1.0635,-1.1299,-1.139,-1.106,-1.1567,-1.1656,-1.1376,-1.126,-1.1119,-1.079,-1.0398,-0.9962,-0.9492,-0.947,-0.9557,-0.9818,-0.9916,-0.9994,-0.9879,-0.9518,-0.9302,-0.9302,-0.9291,-0.9237,-0.9139,-0.9106,-0.8986,-0.878,-0.8742,-0.8561,-0.8361,-0.7894,-0.759,-0.7494,-0.6522,-0.575,0.0,-0.446,0.0,0.0,0.0,0.0,0.0,0.0,0.0,0.0,-0.466,-0.4804,-0.4673,-0.3822,-0.2958,-0.2198,-0.1066,-0.0112,0.0448,0.0994,0.1312,0.1365,0.1614,0.1862,0.207,0.2356,0.2643,0.2944,0.4478,0.5648,0.5976,0.7305,0.8528,0.9241,0.9578,0.972,0.9804,1.0285,1.0716,1.0944,1.1568,1.1982,1.1927,1.2719,1.3481,1.3623,1.4148,1.4696,1.5092,1.491,1.4434,1.3909,1.3307,1.2565,1.1785,1.1394,1.1247,1.1247,1.1306,1.1247,-0.3259,-0.5143,-0.53,-0.6888,-0.9151,-0.93,-0.9763,-1.0378,-1.0259,-1.0134,-1.0019,-1.0019,-1.0019,-1.0019,-1.0019,-1.0019,-1.0019,-1.0097,-1.0253,-1.0641,-1.116,-1.1247,-1.1149,-1.1851,-1.1779,-1.1021,-1.099,-1.0766,-1.0416,-0.9865,-0.9582,-0.9487,-0.9389,-0.9329,-0.9379,0.0,0.0,0.0,-0.9518,-0.9302,-0.9302,-0.9215,-0.9155,-0.9057,-0.8943,0.0,-0.8764,-0.8318,-0.806,-0.7953,-0.7503,0.0,0.0,0.0,0.0,0.0,0.0,0.0,0.0,0.0,0.0,0.0,-0.3815,-0.4022,-0.4258,-0.4644,-0.4711,-0.4378,-0.3457,-0.2534,-0.1603,-0.0678,0.0224,0.1009,0.1215,0.1367,0.1694,0.1885,0.2067,0.2089,0.2546,0.2939,0.3205,0.4591,0.5743,0.6122,0.7387,0.8474,0.9113,0.9347,0.9403,0.9455,1.0162,1.0744,1.0953,1.175,1.2451,1.2728,1.3387,1.3997,1.4204,1.4505,1.4696,1.4723,1.4605,1.4359,1.3731,1.329,1.271,1.1775,1.1541,1.1443,1.1247,1.1541,1.1834,-0.2988,-0.5041,-0.5295,-0.6804,0.0,-0.9267,-0.9568,-1.0061,-1.0244,-1.0193,-1.0019,-1.0019,-1.0019,-1.0019,-1.0019,-1.0019,-1.0019,-1.0019,-1.0097,-1.033,-1.1029,-1.0957,-1.0527,-1.1681,-1.1609,-1.064,-1.0656,-1.0546,-1.0162,-0.9674,-0.94,-0.9394,-0.9334,-0.9302,-0.9302,-0.9302,-0.9374,-0.959,-0.9379,-0.9275,-0.9226,-0.922,-0.9133,-0.8965,-0.8894,0.0,0.0,0.0,0.0,0.0,0.0,0.0,0.0,-0.6245,0.0,-0.5118,-0.4777,-0.434,-0.3919,-0.3831,-0.3826,-0.3858,-0.3764,-0.3844,-0.4085,-0.4116,-0.4025,-0.3812,-0.268,-0.1662,-0.0966,0.0056,0.0897,0.1457,0.1546,0.1645,0.1931,0.2056,0.2231,0.2525,0.2765,0.304,0.3391,0.4684,0.5688,0.622,0.7387,0.842,0.8799,0.9118,0.9349,0.9611,1.0212,1.0733,1.0949,1.2069,1.2869,1.3082,1.3886,1.4489,1.4573,1.4613,1.4593,1.4365,1.4155,1.3817,1.3426,1.2921,1.237,1.1932,1.159,1.1492,1.1541,1.1785,1.2078,-0.2632,-0.4705,-0.5208,-0.6637,-0.8729,-0.8875,-0.9174,-0.9627,0.0,0.0,0.0,-1.0019,-1.0019,-1.0019,-1.0019,-1.0019,-1.0019,-1.0019,-1.0019,-1.0019,-1.0773,-1.0691,-0.9878,-1.1189,-1.1263,-1.0191,-1.0341,-1.0227,-0.9962,-0.9496,-0.9302,-0.9302,-0.9302,-0.9302,-0.9302,-0.9302,-0.9302,-0.9302,-0.9285,-0.9226,-0.9073,-0.9204,-0.909,-0.8774,-0.8798,-0.8544,-0.8133,-0.7974,-0.7671,-0.7158,-0.6746,-0.653,-0.6293,-0.5728,-0.5237,-0.493,-0.4568,-0.4197,-0.3946,-0.3905,-0.3897,-0.3822,-0.3571,-0.3505,-0.3812,-0.3522,-0.3231,-0.3054,-0.1737,-0.0742,-0.0281,0.0729,0.1514,0.185,0.1883,0.1989,0.2234,0.2286,0.2451,0.2872,0.2981,0.3132,0.3543,0.4738,0.5743,0.6268,0.7387,0.8397,0.8631,0.9049,0.9524,1.0038,1.0472,1.0733,1.1035,1.224,1.3222,1.3179,1.4195,1.495,1.4741,1.4573,1.4331,1.406,1.3679,1.3385,1.31,1.2602,1.2058,1.198,1.1639,1.1443,1.198,1.2127,1.2322,-0.2632,-0.4705,-0.5208,-0.6721,-0.8645,-0.8297,-0.8481,-0.9183,-0.9803,-1.0052,-1.0019,-1.0019,-1.0019,-1.0019,-1.0019,-1.0019,-1.0019,-1.0019,-1.0019,-1.0014,-1.0449,-1.0258,-0.9763,-1.0533,-1.0407,-0.9501,-0.9824,-0.9818,-0.9468,-0.9313,-0.9302,-0.9302,-0.9302,-0.9302,-0.9302,-0.9302,-0.9302,-0.9302,-0.9204,-0.915,-0.9062,-0.8976,-0.8927,-0.878,-0.8449,-0.8261,-0.8128,-0.7441,-0.6945,-0.6768,-0.6366,-0.6085,-0.5986,-0.5609,-0.5241,-0.4933,-0.4613,-0.4247,-0.3951,-0.3881,-0.3817,-0.3576,-0.323,-0.3145,-0.3386,-0.3138,-0.2739,-0.214,-0.115,-0.0343,0.0281,0.1177,0.1851,0.2076,0.2127,0.2239,0.2578,0.2721,0.2877,0.2983,0.3104,0.3245,0.3638,0.4784,0.5797,0.6322,0.7495,0.8513,0.9019,0.9235,0.9655,1.0386,1.0646,1.0862,1.1219,1.2412,1.3222,1.3349,1.4279,1.4992,1.4741,1.4573,1.4179,1.3625,1.3459,1.3223,1.286,1.2552,1.2211,1.2029,1.1688,1.1736,1.2419,1.2613,1.2807,-0.2462,-0.4285,-0.501,-0.6413,-0.8235,-0.8413,-0.8701,-0.908,-0.9756,-1.0019,-1.0019,-1.0019,-1.0019,-1.0019,-1.0019,-1.0019,-1.0019,-1.0019,-1.0019,-1.0014,-1.0423,-1.0222,-0.9827,-1.0432,-1.0296,-0.9385,-0.9735,-0.9735,-0.9302,-0.9302,-0.9302,-0.9302,-0.9302,-0.9302,-0.9302,-0.9302,-0.9275,-0.9215,-0.9089,-0.903,-0.8965,-0.8911,-0.8793,-0.8682,-0.8324,-0.8038,-0.7794,-0.7228,-0.6736,-0.6443,-0.6164,-0.5886,-0.5613,-0.5302,-0.4995,-0.4626,-0.4318,-0.4071,-0.3889,-0.3764,-0.3579,-0.3268,-0.2859,-0.2703,-0.286,-0.2658,-0.2278,-0.1668,-0.0627,0.0226,0.0842,0.1738,0.2356,0.2468,0.2468,0.258,0.285,0.2939,0.3039,0.3188,0.3305,0.3534,0.3783,0.4985,0.6071,0.6738,0.7883,0.8898,0.9321,0.9323,0.9524,1.0212,1.0559,1.0733,1.1035,1.224,1.3052,1.3179,1.411,1.4741,1.4699,1.4531,1.4122,1.3552,1.3286,1.294,1.2431,1.213,1.194,1.1834,1.159,1.1688,1.2175,1.2759,1.3288,-0.22,-0.3766,-0.4814,-0.6266,-0.786,-0.8607,-0.8921,-0.9046,-0.9667,-1.0019,-1.0019,-1.0019,-1.0019,-1.0019,-1.0019,-1.0019,-1.0014,-0.9992,-0.9976,-0.9976,-1.0229,-1.0106,-0.9714,-1.0271,-1.0075,-0.939,-0.959,-0.959,-0.9302,-0.9302,-0.9302,-0.9302,-0.9302,-0.9302,-0.9302,-0.9302,-0.9247,-0.9068,-0.9106,-0.9035,-0.8916,-0.8841,-0.8807,-0.8617,-0.8231,-0.7834,-0.7259,-0.6964,-0.6471,-0.5989,-0.591,-0.5761,-0.5429,-0.4995,-0.4687,-0.4376,-0.4071,-0.3889,-0.3764,-0.3455,-0.3141,-0.2885,-0.248,-0.2263,-0.2289,-0.2195,-0.1829,-0.1028,-0.0113,0.0729,0.1514,0.2244,0.2692,0.2748,0.2805,0.2917,0.3129,0.3156,0.3199,0.3454,0.3566,0.3685,0.4135,0.519,0.6376,0.7451,0.8471,0.9178,0.9397,0.9385,0.9489,0.9907,1.0342,1.0603,1.0776,1.1843,1.2699,1.2912,1.376,1.4363,1.4531,1.4488,1.4058,1.3467,1.3195,1.2813,1.2099,1.1781,1.1658,1.159,1.1443,1.1394,1.1932,1.2662,1.3337,-0.1842,-0.2901,-0.4548,-0.6207,-0.7693,-0.8548,-0.8883,-0.888,-0.9636,-1.0019,-1.0014,-1.0019,-1.0019,-1.0019,-1.0014,-1.0014,-1.0003,-0.9905,-0.9856,-0.9829,-0.9708,-0.9599,-0.9503,-0.9473,-0.9401,-0.9302,-0.9374,-0.9302,-0.923,-0.9307,-0.9302,-0.9302,-0.9302,-0.9302,-0.9302,-0.9302,-0.9247,-0.9062,-0.8954,-0.891,-0.8796,-0.8785,-0.8725,-0.8595,-0.8028,-0.7355,-0.6581,-0.6428,-0.6011,-0.5347,-0.5526,-0.557,-0.5371,-0.4807,-0.4438,-0.4376,-0.4071,-0.3825,-0.3517,-0.296,-0.2574,-0.2418,-0.2145,-0.1937,-0.1849,-0.1817,-0.1236,-0.0112,0.0281,0.1009,0.2356,0.2692,0.2805,0.297,0.3026,0.3194,0.3463,0.3428,0.3465,0.3728,0.3721,0.3685,0.4138,0.5236,0.6697,0.8167,0.876,0.9216,0.9442,0.9455,0.9507,0.9926,1.0222,1.0439,1.0733,1.1456,1.2143,1.2613,1.3264,1.3841,1.4191,1.4309,1.4161,1.3311,1.3065,1.2808,1.2067,1.1578,1.158,1.1541,1.1394,1.1345,1.1883,1.2467,1.284,-0.1838,-0.2729,-0.4434,-0.5814,-0.696,-0.829,-0.8508,-0.815,-0.9475,-0.9981,-0.9927,-0.9987,-0.9981,-0.9916,-0.9916,-0.9878,-0.9813,-0.9764,-0.9737,-0.9731,-0.9639,-0.9557,-0.9487,-0.9438,-0.9378,-0.9307,-0.9085,-0.8946,-0.8946,-0.8729,-0.8584,-0.8657,-0.8801,-0.8946,-0.8946,-0.9163,-0.9247,-0.9133,-0.8944,-0.8894,-0.8774,-0.8698,-0.8571,-0.8267,-0.7833,-0.7367,-0.6769,-0.6444,-0.609,-0.5789,-0.5608,-0.5397,-0.5118,-0.4687,-0.4318,-0.4133,-0.3825,-0.3517,-0.3209,-0.2775,-0.2391,-0.2113,-0.1961,-0.1815,-0.1555,-0.1189,-0.0561,0.0224,0.0561,0.1177,0.2244,0.2917,0.3141,0.2973,0.3194,0.3474,0.3586,0.368,0.3722,0.3837,0.4063,0.4184,0.4448,0.5687,0.723,0.856,0.9068,0.9309,0.9496,0.9571,0.9803,1.0114,1.0369,1.0454,1.0552,1.1068,1.1628,1.1909,1.2412,1.307,1.3671,1.3554,1.324,1.3122,1.288,1.2468,1.1791,1.1453,1.1394,1.1345,1.1345,1.1345,1.1883,1.2175,1.2273,-0.1585,-0.2467,-0.4295,-0.5817,-0.7056,-0.8306,-0.854,-0.8384,-0.9475,-0.997,-0.9894,-0.9949,-0.9905,-0.9807,-0.9824,-0.9775,-0.9677,-0.9633,-0.9622,-0.9617,-0.959,-0.9525,-0.9443,-0.9438,-0.9389,-0.9246,-0.8874,-0.8657,-0.8512,-0.8222,-0.8082,-0.8155,-0.8367,-0.8512,-0.8584,-0.8874,-0.8873,-0.8737,-0.8643,-0.8533,-0.846,-0.8365,-0.8256,-0.8056,-0.7727,-0.7245,-0.6672,-0.6394,-0.6038,-0.5758,-0.5434,-0.5114,-0.481,-0.4441,-0.4133,-0.3825,-0.3517,-0.3207,-0.2899,-0.259,-0.2202,-0.1802,-0.1778,-0.1634,-0.126,-0.079,-0.0112,0.0728,0.1009,0.1458,0.202,0.3082,0.3421,0.2917,0.3365,0.3701,0.3863,0.3975,0.407,0.4106,0.4348,0.4787,0.5166,0.6364,0.7646,0.8781,0.9195,0.9435,0.9566,0.9723,0.9885,1.0171,1.0441,1.0496,1.0377,1.0747,1.1076,1.1369,1.185,1.2403,1.3105,1.2847,1.2549,1.2672,1.2262,1.1902,1.155,1.1326,1.1247,1.1198,1.1198,1.1296,1.1639,1.1775,1.1688,-0.0998,-0.1707,-0.3969,-0.6363,-0.8622,-0.8778,-0.9168,-0.963,-0.9942,-1.0014,-0.9981,-0.9905,-0.9786,-0.9693,-0.9786,-0.9775,-0.9655,-0.9541,-0.9492,-0.9481,-0.9383,-0.9323,-0.9313,-0.9313,-0.9313,-0.9235,-0.8874,-0.844,-0.8078,-0.8082,-0.8082,-0.8078,-0.815,-0.815,-0.815,-0.8218,-0.805,-0.8033,-0.798,-0.7809,-0.7636,-0.7603,-0.7727,-0.7922,-0.7727,-0.7013,-0.6062,-0.6102,-0.5698,-0.4674,-0.4853,-0.481,-0.4438,-0.4133,-0.3825,-0.3517,-0.3207,-0.2899,-0.2529,-0.2219,-0.189,-0.1484,-0.1414,-0.1279,-0.096,-0.0786,-0.0056,0.1512,0.1737,0.1905,0.2018,0.3194,0.3701,0.325,0.3645,0.4092,0.4365,0.4371,0.4452,0.4585,0.4613,0.5201,0.6408,0.7092,0.7875,0.8773,0.9156,0.9266,0.9624,0.9685,0.9831,1.0098,1.0384,1.0554,1.0355,1.0567,1.088,1.1124,1.1444,1.189,1.2416,1.2744,1.2505,1.2341,1.2203,1.1861,1.1424,1.1247,1.1198,1.1189,1.1189,1.1296,1.1336,1.1287,1.1168,-0.1412,-0.2678,-0.428,-0.588,-0.7291,-0.831,-0.9012,-0.9246,-0.9786,-0.9976,-0.9921,-0.9932,-0.9851,-0.9671,-0.9709,-0.9622,-0.9438,-0.9389,-0.9372,-0.9367,-0.9323,-0.9302,-0.9302,-0.9302,-0.9302,-0.923,-0.8657,-0.8005,-0.7425,-0.7425,-0.7425,-0.7425,-0.7638,-0.7788,-0.7779,-0.794,-0.8107,-0.8302,-0.7985,-0.7859,-0.7908,-0.7728,-0.7254,-0.6715,-0.6987,-0.6872,-0.612,-0.6162,-0.5882,-0.5234,-0.5036,-0.4749,-0.4438,-0.4071,-0.3764,-0.3517,-0.3207,-0.2837,-0.2525,-0.2019,-0.1629,-0.1418,-0.1225,-0.092,-0.062,-0.028,0.0392,0.1401,0.2464,0.2746,0.2688,0.353,0.4089,0.3642,0.3921,0.4369,0.4477,0.4623,0.4724,0.4706,0.4769,0.5467,0.6709,0.7298,0.7862,0.8875,0.9216,0.9381,0.9601,0.9812,1.0086,1.0482,1.0773,1.0905,1.0707,1.0583,1.07,1.0784,1.1063,1.1487,1.2026,1.1972,1.1722,1.2059,1.2047,1.1717,1.1198,1.1198,1.1189,1.1189,1.1189,1.1149,1.0953,1.11,1.1018,-0.1897,-0.3406,-0.4517,-0.5724,-0.6978,-0.8232,-0.8856,-0.9012,-0.9708,-0.997,-0.9916,-0.9943,-0.9851,-0.9682,-0.9628,-0.9503,-0.9318,-0.9302,-0.9302,-0.9302,-0.9302,-0.9302,-0.9302,-0.9302,-0.9302,-0.9157,-0.8512,-0.7715,-0.7063,-0.699,-0.699,-0.699,-0.7276,-0.7421,-0.7408,-0.7576,-0.7782,-0.7688,-0.7501,-0.7337,-0.7134,-0.6935,-0.6384,-0.564,-0.5886,-0.5965,-0.5624,-0.5759,-0.5612,-0.514,-0.496,-0.4687,-0.4256,-0.3948,-0.364,-0.3332,-0.3022,-0.2647,-0.2204,-0.1759,-0.1375,-0.1113,-0.0926,-0.0628,-0.0281,0.0336,0.1009,0.185,0.2914,0.3586,0.353,0.4033,0.4145,0.3586,0.3921,0.4313,0.4369,0.4763,0.4958,0.4977,0.4974,0.5686,0.6873,0.7253,0.7859,0.8815,0.9137,0.9355,0.9555,0.9791,1.0101,1.0499,1.0798,1.0835,1.0781,1.0745,1.0744,1.0867,1.0876,1.1285,1.1461,1.1308,1.1326,1.1727,1.1678,1.1336,1.1189,1.1189,1.1189,1.1189,1.1198,1.11,1.11,1.11,1.1005,-0.2278,-0.3644,-0.4675,-0.6118,-0.7764,-0.8544,-0.9012,-0.9402,-0.9786,-1.0008,-0.9987,-0.9823,-0.9791,-0.9671,-0.9563,-0.9427,-0.934,-0.9313,-0.9302,-0.9302,-0.9302,-0.9302,-0.9302,-0.9302,-0.923,-0.9157,-0.844,-0.7715,-0.7063,-0.699,-0.699,-0.699,-0.699,-0.6986,-0.699,-0.697,-0.6573,-0.6144,-0.6329,-0.5902,-0.4667,-0.5214,-0.5245,-0.4495,-0.4516,-0.4458,-0.4198,-0.483,-0.4826,-0.4212,-0.4567,-0.4564,-0.401,-0.3702,-0.3394,-0.3083,-0.2714,-0.2204,-0.1635,-0.1507,-0.1188,-0.0696,-0.0517,-0.0342,0.0,0.0729,0.157,0.2464,0.336,0.403,0.4313,0.4369,0.3974,0.308,0.3642,0.4089,0.4247,0.4864,0.5422,0.5412,0.5248,0.5555,0.6507,0.7155,0.7748,0.8415,0.8902,0.9228,0.9381,0.9537,0.96,0.9947,1.0464,1.0812,1.0824,1.0826,1.0924,1.0972,1.0963,1.1115,1.126,1.1189,1.1142,1.1424,1.1444,1.1104,1.1189,1.1189,1.1189,1.1198,1.1149,1.1051,1.0953,1.0892,1.107,-0.1627,-0.227,-0.42,-0.5489,-0.6587,-0.815,-0.9012,-0.9402,-0.9864,-1.0019,-0.9998,-0.9889,-0.9813,-0.9742,-0.9579,-0.9465,-0.9421,-0.9345,-0.9302,-0.9302,-0.9302,-0.9302,-0.9302,-0.9302,-0.9018,-0.844,-0.8005,-0.7494,-0.7063,-0.699,-0.699,-0.699,-0.699,-0.6696,-0.6261,-0.6138,-0.5805,-0.5415,-0.5169,-0.489,-0.4801,-0.5146,-0.5044,-0.4428,-0.4709,-0.4449,-0.3551,-0.453,-0.4652,-0.3946,-0.4561,-0.4564,-0.401,-0.364,-0.3332,-0.3022,-0.2652,-0.2205,-0.1571,-0.1313,-0.1,-0.0577,-0.0285,-0.0113,0.0056,0.0841,0.1738,0.2632,0.3471,0.4142,0.4369,0.4089,0.3698,0.3362,0.3921,0.4287,0.4344,0.4913,0.5416,0.5553,0.5435,0.5742,0.6476,0.7061,0.7629,0.8287,0.8769,0.9214,0.9431,0.9503,0.9746,1.0136,1.0529,1.0702,1.0687,1.0778,1.0875,1.0953,1.0972,1.0981,1.1094,1.1142,1.1104,1.1075,1.1038,1.1075,1.1161,1.114,1.114,1.11,1.1051,1.0864,1.0618,1.0807,1.1143,-0.1465,-0.2028,-0.4121,-0.5332,-0.6033,-0.7838,-0.8778,-0.9168,-0.9636,-0.9842,-0.9861,-0.9873,-0.9786,-0.9618,-0.9404,-0.9318,-0.941,-0.9189,-0.909,-0.9085,-0.923,-0.923,-0.909,-0.8946,-0.8512,-0.8005,-0.7711,-0.7421,-0.699,-0.699,-0.699,-0.699,-0.699,-0.6627,-0.5894,-0.5709,-0.5457,-0.4704,-0.4686,-0.469,-0.4592,-0.5079,-0.5044,-0.449,-0.4619,-0.4361,-0.3608,-0.4362,-0.4481,-0.383,-0.4195,-0.4259,-0.3764,-0.3455,-0.3145,-0.2837,-0.2464,-0.2019,-0.1379,-0.1126,-0.0817,-0.04,-0.0113,0.0168,0.0505,0.129,0.2185,0.308,0.403,0.4424,0.4145,0.3866,0.3418,0.297,0.3617,0.4241,0.4654,0.525,0.5575,0.5668,0.5577,0.5811,0.6297,0.7041,0.759,0.8082,0.8775,0.929,0.9471,0.9496,0.9824,1.0049,1.023,1.0351,1.0515,1.0663,1.0818,1.0914,1.0981,1.0981,1.1028,1.1028,1.1009,1.1019,1.1,1.1104,1.1189,1.1042,1.0993,1.0953,1.0855,1.056,1.0488,1.1319,1.1721,-0.1708,-0.2594,-0.4277,-0.5411,-0.6271,-0.7595,-0.8448,-0.8764,-0.9211,-0.9536,-0.9687,-0.972,-0.9618,-0.9382,-0.9034,-0.8972,-0.9106,-0.8806,-0.8657,-0.8729,-0.8941,-0.8935,-0.8631,-0.8266,-0.7977,-0.7693,-0.7562,-0.7349,-0.699,-0.699,-0.699,-0.699,-0.6845,-0.6478,-0.5749,-0.5677,-0.4832,-0.3776,-0.4639,-0.4577,-0.3563,-0.4741,-0.5111,-0.4498,-0.4455,-0.4389,-0.424,-0.4333,-0.4013,-0.333,-0.3764,-0.3889,-0.3517,-0.3207,-0.2899,-0.259,-0.216,-0.1701,-0.1189,-0.1002,-0.0756,-0.0113,0.0,0.0393,0.1121,0.1961,0.2856,0.3751,0.4707,0.4875,0.4033,0.3645,0.3138,0.2347,0.3148,0.4134,0.535,0.585,0.5898,0.5813,0.5708,0.5691,0.6057,0.6904,0.747,0.7959,0.8766,0.9227,0.9437,0.9493,0.9559,0.9756,0.9993,1.0064,1.0211,1.0305,1.0459,1.0649,1.081,1.0942,1.099,1.0981,1.1,1.1009,1.0961,1.1065,1.114,1.0944,1.0904,1.0855,1.0659,1.0314,1.0559,1.1212,1.1693,-0.1465,-0.1867,-0.4042,-0.5179,-0.5561,-0.7228,-0.8125,-0.827,-0.8883,-0.9223,-0.9242,-0.9169,-0.9112,-0.9039,-0.8518,-0.8319,-0.8372,-0.8295,-0.8222,-0.8295,-0.8367,-0.8318,-0.8122,-0.7755,-0.754,-0.7406,-0.7242,-0.7063,-0.699,-0.6982,-0.6986,-0.699,-0.6406,-0.5756,-0.5023,-0.4477,-0.3569,-0.282,-0.3408,-0.3842,-0.3593,-0.4653,-0.5312,-0.5165,-0.5428,-0.5351,-0.4884,-0.4321,-0.4069,-0.4069,-0.3889,-0.3764,-0.3517,-0.3207,-0.2837,-0.2467,-0.2157,-0.1706,-0.1188,-0.1001,-0.0696,0.0,0.0,0.0,0.1234,0.2185,0.308,0.3918,0.4819,0.5102,0.4369,0.3866,0.3458,0.3474,0.3677,0.4473,0.5773,0.6142,0.6137,0.6102,0.5961,0.5962,0.6092,0.6587,0.7236,0.7778,0.8452,0.9065,0.934,0.9502,0.9567,0.9608,0.9779,0.9801,0.9901,0.9979,1.0106,1.0332,1.0527,1.0826,1.0922,1.1009,1.1047,1.1085,1.0826,1.0882,1.0907,1.0846,1.0806,1.0659,1.0439,1.0119,1.0239,1.0697,1.1182,-0.1302,-0.1543,-0.3963,-0.5006,-0.5214,-0.6953,-0.7833,-0.8018,-0.8417,-0.8656,-0.8686,-0.8706,-0.8651,-0.8528,-0.8106,-0.8005,-0.8082,-0.7933,-0.786,-0.7842,-0.7625,-0.7607,-0.7688,-0.7415,-0.7254,-0.7144,-0.7052,-0.7001,-0.6929,-0.6933,-0.6805,-0.6475,-0.6043,-0.5244,-0.4223,-0.3743,-0.3057,-0.2526,-0.2905,-0.3409,-0.377,-0.4775,-0.5513,-0.5763,-0.6112,-0.5892,-0.5167,-0.4618,-0.4315,-0.4195,-0.3948,-0.3702,-0.3332,-0.3145,-0.2777,-0.2346,-0.2099,-0.1706,-0.1187,-0.1001,-0.0696,0.0,0.0,0.0,0.1625,0.2464,0.3136,0.448,0.5098,0.5043,0.4592,0.4033,0.4071,0.4429,0.4636,0.5158,0.6383,0.6515,0.6417,0.6287,0.621,0.6088,0.5902,0.6492,0.7105,0.7704,0.8393,0.8962,0.9372,0.9486,0.9592,0.9649,0.9649,0.9746,0.9826,0.9935,1.0132,1.0278,1.053,1.0791,1.0854,1.0999,1.0969,1.0939,1.0748,1.0603,1.0644,1.06,1.0413,1.0233,1.0069,1.0062,1.0112,1.0474,1.0906,-0.1301,-0.1621,-0.404,-0.4986,-0.532,-0.6689,-0.7549,-0.7783,-0.7897,-0.8067,-0.8224,-0.821,-0.8158,-0.801,-0.772,-0.7711,-0.7933,-0.7643,-0.757,-0.7378,-0.7153,-0.7115,-0.7437,-0.7132,-0.6956,-0.6914,-0.6923,-0.6797,-0.6733,-0.6721,-0.6316,-0.5767,-0.5496,-0.4785,-0.3749,-0.3432,-0.2903,-0.2445,-0.2893,-0.3605,-0.4176,-0.4973,-0.5714,-0.6239,-0.6163,-0.5752,-0.5059,-0.4664,-0.4391,-0.3825,-0.3825,-0.3579,-0.3145,-0.3022,-0.2654,-0.2224,-0.1974,-0.1706,-0.1127,-0.1,-0.0697,0.0,0.0,0.0,0.2129,0.2688,0.3415,0.5098,0.5382,0.5098,0.4648,0.4309,0.4641,0.5186,0.5588,0.6115,0.6432,0.6759,0.6786,0.6355,0.6467,0.6256,0.6128,0.6437,0.7179,0.7353,0.8088,0.8726,0.9205,0.9468,0.9558,0.96,0.9649,0.9682,0.978,0.9911,1.0138,1.0374,1.0663,1.0843,1.0782,1.0842,1.0833,1.0784,1.0648,1.0529,1.0476,1.0314,1.0068,1.0012,1.0012,0.997,1.0,1.0506,1.1026,-0.1699,-0.2403,-0.4264,-0.5298,-0.5925,-0.6861,-0.7315,-0.7302,-0.7594,-0.7705,-0.7747,-0.7742,-0.7733,-0.7711,-0.7353,-0.7135,-0.728,-0.7208,-0.7135,-0.7119,-0.6956,-0.6914,-0.701,-0.6823,-0.6778,-0.6778,-0.6896,-0.6622,-0.6222,-0.5976,-0.5618,-0.495,-0.4469,-0.3749,-0.3464,-0.2873,-0.2426,-0.2342,-0.2861,-0.3512,-0.4241,-0.4973,-0.5714,-0.6376,-0.6101,-0.529,-0.4386,-0.3935,-0.3618,-0.3406,-0.3517,-0.3455,-0.3083,-0.296,-0.2654,-0.2224,-0.1975,-0.1706,-0.1187,-0.0941,-0.0697,0.0,0.0,0.0784,0.2409,0.2688,0.3586,0.4931,0.5382,0.5102,0.4707,0.5318,0.5485,0.5652,0.6204,0.6856,0.6968,0.6964,0.6834,0.6656,0.6524,0.642,0.6012,0.6192,0.6742,0.7048,0.7653,0.8414,0.8919,0.9375,0.9557,0.9624,0.9583,0.9616,0.9698,0.9805,1.001,1.0259,1.0565,1.0744,1.069,1.0717,1.0735,1.0668,1.0583,1.0462,1.0265,1.0019,0.978,0.9838,0.9987,1.0035,1.0207,1.064,1.0898,-0.1778,-0.2633,-0.4257,-0.5435,-0.6111,-0.6902,-0.7186,-0.7072,-0.7229,-0.7349,-0.7349,-0.7349,-0.7349,-0.7276,-0.7135,-0.699,-0.699,-0.699,-0.699,-0.6958,-0.686,-0.6724,-0.6563,-0.65,-0.6387,-0.6399,-0.6111,-0.5778,-0.5547,-0.5334,-0.5115,-0.4625,-0.406,-0.379,-0.3289,-0.2629,-0.2272,-0.2265,-0.2509,-0.3094,-0.3763,-0.4504,-0.5446,-0.6101,-0.5767,-0.4862,-0.4115,-0.3336,-0.2939,-0.2725,-0.2837,-0.3083,-0.296,-0.2837,-0.2469,-0.21,-0.1977,-0.1703,-0.1189,-0.0941,-0.0697,-0.0056,0.0,0.0,0.2129,0.2688,0.3586,0.4875,0.5382,0.527,0.5043,0.5656,0.5935,0.5875,0.6376,0.6882,0.6871,0.6935,0.697,0.6779,0.6604,0.6298,0.6113,0.6163,0.6287,0.6642,0.754,0.83,0.8847,0.9301,0.9541,0.9608,0.9559,0.9543,0.9633,0.9715,0.9838,1.007,1.0297,1.0433,1.0456,1.0547,1.0615,1.0477,1.0364,1.0167,0.992,0.9682,0.9681,0.9837,1.0018,1.0131,1.031,1.0605,1.0783,-0.1695,-0.2628,-0.4254,-0.534,-0.6067,-0.6883,-0.7162,-0.7007,-0.699,-0.7063,-0.699,-0.699,-0.7063,-0.699,-0.699,-0.699,-0.699,-0.699,-0.699,-0.6825,-0.6701,-0.6418,-0.6166,-0.603,-0.5834,-0.5751,-0.5322,-0.4977,-0.4756,-0.4601,-0.4075,-0.3961,-0.3964,-0.3398,-0.2913,-0.2552,-0.2189,-0.2252,-0.2302,-0.2625,-0.3228,-0.3897,-0.4766,-0.5338,-0.5189,-0.4256,-0.3539,-0.2738,-0.2139,-0.1858,-0.179,-0.2097,-0.2467,-0.259,-0.2221,-0.1915,-0.1915,-0.1642,-0.1187,-0.1,-0.0813,-0.0113,0.0,0.0,0.2017,0.2856,0.3698,0.454,0.5214,0.5382,0.5437,0.5828,0.5991,0.5935,0.6325,0.6497,0.6442,0.6765,0.6822,0.6722,0.6463,0.611,0.5945,0.5917,0.6052,0.6337,0.7291,0.8038,0.8584,0.908,0.9278,0.9575,0.9583,0.9567,0.96,0.9616,0.9739,0.9871,1.0054,1.0096,1.0146,1.0264,1.0272,1.0203,1.0019,0.9871,0.9805,0.9739,0.977,0.9892,1.0054,1.0233,1.0404,1.0574,1.0639,-0.1446,-0.2597,-0.3925,-0.5028,-0.6067,-0.6962,-0.7158,-0.7007,-0.699,-0.699,-0.699,-0.699,-0.699,-0.699,-0.699,-0.699,-0.699,-0.6918,-0.6845,-0.654,-0.6369,-0.6152,-0.5737,-0.5598,-0.5192,-0.4496,-0.4332,-0.4221,-0.3641,-0.309,-0.2801,-0.2039,-0.2173,-0.2106,-0.2174,-0.203,-0.2166,-0.2101,-0.2159,-0.249,-0.2959,-0.3293,-0.3615,-0.4256,-0.4195,-0.3496,-0.2268,-0.1672,-0.1276,-0.1132,-0.0932,-0.0989,-0.1295,-0.1726,-0.1666,-0.142,-0.1543,-0.1462,-0.1067,-0.1119,-0.0811,-0.017,0.0393,0.0841,0.1793,0.2856,0.3751,0.4369,0.5043,0.5382,0.5382,0.5712,0.588,0.588,0.6102,0.633,0.6274,0.6371,0.6503,0.6428,0.6226,0.6027,0.5869,0.5722,0.579,0.6067,0.6753,0.7291,0.7733,0.8379,0.8973,0.9278,0.9624,0.9616,0.9624,0.9575,0.964,0.9647,0.977,0.977,0.9837,0.9886,0.9895,0.9929,0.9929,0.9838,0.978,0.9746,0.9868,0.9998,1.0193,1.0387,1.0501,1.0615,1.0601,-0.1357,-0.2588,-0.3897,-0.5001,-0.6063,-0.6958,-0.7158,-0.7003,-0.699,-0.699,-0.699,-0.699,-0.699,-0.699,-0.699,-0.699,-0.6918,-0.6777,-0.6559,-0.6391,-0.6072,-0.5715,-0.5391,-0.5256,-0.4774,-0.4072,-0.3636,-0.3168,-0.2585,-0.258,-0.2099,-0.1888,-0.1816,-0.1884,-0.1884,-0.1886,-0.1885,-0.1885,-0.1885,-0.2019,-0.2356,-0.2556,-0.2877,-0.321,-0.3003,-0.2383,-0.1752,-0.0774,-0.051,-0.0438,-0.031,-0.0185,-0.0247,-0.0494,-0.0802,-0.0617,-0.0802,-0.0974,-0.0593,-0.053,-0.0116,-0.0226,0.0449,0.129,0.1961,0.2856,0.3751,0.4592,0.4931,0.5382,0.5382,0.5656,0.5712,0.5656,0.5884,0.594,0.5884,0.5828,0.5959,0.6124,0.5995,0.5794,0.5693,0.5611,0.5542,0.5804,0.6274,0.6659,0.6998,0.7584,0.828,0.8874,0.9236,0.9532,0.9516,0.945,0.9464,0.9519,0.9464,0.9456,0.9514,0.962,0.9688,0.9747,0.9739,0.9789,0.9854,0.9835,0.9965,1.0103,1.029,1.0452,1.055,1.0631,1.0617,-0.1189,-0.2343,-0.3548,-0.4573,-0.5585,-0.6409,-0.6771,-0.6792,-0.67,-0.6845,-0.699,-0.699,-0.699,-0.699,-0.699,-0.699,-0.6845,-0.6559,-0.6341,-0.6029,-0.573,-0.5373,-0.5051,-0.4869,-0.4541,-0.3874,-0.3211,-0.2181,-0.1959,-0.182,-0.1884,-0.1614,-0.1681,-0.1882,-0.1681,-0.1547,-0.1481,-0.1548,-0.1548,-0.1481,-0.1616,-0.1951,-0.2286,-0.262,-0.1945,-0.1588,-0.1106,-0.0515,0.0,0.0,0.0,0.0247,0.0741,0.0494,0.0247,0.0307,0.0184,-0.0061,-0.0059,-0.0059,0.0,-0.0056,0.0561,0.1401,0.2185,0.28,0.3695,0.4987,0.5382,0.5382,0.5437,0.5601,0.5601,0.5489,0.5601,0.5656,0.5549,0.5493,0.5605,0.5669,0.5625,0.5665,0.5625,0.5545,0.5478,0.5489,0.5919,0.627,0.6608,0.6798,0.7484,0.828,0.8855,0.933,0.938,0.9226,0.9284,0.943,0.9233,0.9126,0.9226,0.9291,0.9458,0.9607,0.9632,0.9706,0.9786,0.9925,1.0046,1.0193,1.0379,1.0517,1.0615,1.0546,1.0468,-0.0552,-0.1467,-0.2361,-0.3159,-0.395,-0.4843,-0.5468,-0.5977,-0.6043,-0.6337,-0.699,-0.699,-0.699,-0.699,-0.699,-0.6773,-0.6555,-0.633,-0.5967,-0.5528,-0.5201,-0.4869,-0.4707,-0.463,-0.4118,-0.3574,-0.3158,-0.2794,-0.2026,-0.1076,-0.0471,-0.0471,-0.074,-0.074,-0.0875,-0.1076,-0.1279,-0.1481,-0.1279,-0.1144,-0.1212,-0.1749,-0.1546,-0.1273,-0.1198,-0.112,0.0,0.0,0.0,0.0,0.0,0.0,0.0864,0.0988,0.1225,0.1154,0.0785,0.012,0.0177,0.0175,0.0057,0.0338,0.0953,0.1289,0.2017,0.3136,0.4257,0.5214,0.5382,0.5382,0.5382,0.5437,0.5437,0.5437,0.5437,0.5493,0.5382,0.5382,0.5437,0.5433,0.5503,0.5575,0.5615,0.5536,0.5409,0.5426,0.5491,0.585,0.6159,0.6406,0.6826,0.7691,0.8506,0.9034,0.9287,0.9133,0.9129,0.9302,0.9035,0.8864,0.9024,0.9206,0.9364,0.9498,0.954,0.9556,0.9617,0.9812,1.0051,1.029,1.0477,1.059,1.0672,1.0586,1.0366,-0.0463,-0.1297,-0.2183,-0.2911,-0.3565,-0.4456,-0.5161,-0.569,-0.5825,-0.6261,-0.6918,-0.699,-0.699,-0.699,-0.6773,-0.6559,-0.633,-0.5935,-0.5578,-0.4996,-0.4533,-0.407,-0.393,-0.3925,-0.3595,-0.3259,-0.2708,-0.2346,-0.1769,-0.1212,-0.0471,-0.0067,0.0,-0.0269,-0.0269,-0.0606,-0.0808,-0.0875,-0.0808,-0.0673,-0.0606,0.0,0.0,0.0,0.0,0.0,0.0,0.0,0.0,0.0,0.0,0.0,0.0616,0.0858,0.1154,0.151,0.1303,0.0937,0.0755,0.0923,0.0855,0.0902,0.1514,0.2186,0.2578,0.353,0.4592,0.5043,0.5098,0.5214,0.5382,0.5382,0.5382,0.5382,0.5382,0.5382,0.5382,0.5382,0.5437,0.5382,0.5433,0.5507,0.5579,0.5623,0.5508,0.5371,0.5396,0.5606,0.5835,0.6016,0.6556,0.7262,0.8051,0.8763,0.8999,0.9013,0.902,0.9063,0.877,0.867,0.8962,0.9116,0.9231,0.9333,0.9394,0.9453,0.9481,0.9773,1.0096,1.0342,1.059,1.0593,1.0531,1.0476,1.0257,-0.0376,-0.1124,-0.1857,-0.2588,-0.3252,-0.3918,-0.4632,-0.5468,-0.5535,-0.6047,-0.6773,-0.699,-0.699,-0.6845,-0.6559,-0.6268,-0.6043,-0.5463,-0.5039,-0.4522,-0.3911,-0.3321,-0.3187,-0.3122,-0.3301,-0.309,-0.2715,-0.2282,-0.1971,-0.1346,-0.0539,0.0,0.0,0.0,0.0,-0.0269,-0.0404,-0.0404,-0.0539,-0.0404,0.0,0.0,0.0,0.0,0.0,0.0,0.0,0.0,0.0,0.0,0.0,0.0,0.049,0.0786,0.1076,0.1423,0.1457,0.1497,0.1375,0.1482,0.1701,0.1747,0.2074,0.2858,0.3362,0.4316,0.4875,0.4931,0.4931,0.5098,0.5326,0.5382,0.5382,0.5382,0.5382,0.5382,0.5382,0.5382,0.5382,0.5382,0.5382,0.5382,0.5511,0.5638,0.5604,0.536,0.5367,0.5383,0.5554,0.5705,0.6282,0.6953,0.758,0.8347,0.8741,0.8905,0.8938,0.8832,0.8543,0.8574,0.8867,0.9017,0.9094,0.919,0.9249,0.9399,0.9458,0.9797,1.0079,1.0107,1.0124,1.0319,1.0312,1.0257,1.0147,-0.0222,-0.0658,-0.1097,-0.1754,-0.2411,-0.2408,-0.3356,-0.4883,-0.481,-0.5683,-0.6918,-0.6918,-0.6773,-0.6482,-0.6257,-0.5891,-0.5313,-0.5248,-0.4578,-0.3985,-0.3392,-0.2736,-0.246,-0.2668,-0.307,-0.2891,-0.2705,-0.2542,-0.2028,-0.1013,-0.0404,0.0,0.0,0.0,0.0,-0.0067,0.0,0.0,-0.0337,-0.0269,0.0,0.0,0.0,0.0,0.0,0.0,0.0,0.0,0.0,0.0,0.0,0.0,0.0362,0.0655,0.0941,0.1279,0.1558,0.1653,0.1699,0.1523,0.1406,0.1851,0.2522,0.3309,0.3701,0.4145,0.4592,0.4763,0.4763,0.4987,0.5214,0.5382,0.5382,0.5382,0.5382,0.5382,0.5382,0.5382,0.5382,0.5382,0.5382,0.5382,0.5437,0.5567,0.5609,0.5367,0.5239,0.526,0.5344,0.5548,0.6046,0.6642,0.7264,0.7918,0.8535,0.8662,0.8541,0.8448,0.8228,0.8501,0.8823,0.8941,0.8807,0.9111,0.9207,0.9321,0.9396,0.9548,0.9639,0.96,0.9721,0.9991,1.0036,0.9926,0.9871,-0.022,-0.0657,-0.1022,-0.1459,-0.2041,-0.226,-0.3207,-0.4519,-0.4738,-0.5535,-0.699,-0.6773,-0.6555,-0.6326,-0.5849,-0.5545,-0.517,-0.4788,-0.415,-0.3369,-0.2651,-0.188,-0.1605,-0.1746,-0.2228,-0.2275,-0.2555,-0.2539,-0.1752,-0.0812,0.0068,0.0405,0.0404,0.0,0.0,0.0135,0.0,0.0,0.0,0.0,0.0,0.0,0.0,0.0,0.0,0.0,0.0,0.0,0.0,0.0,0.0,0.0,0.0,0.0469,0.0753,0.109,0.1369,0.1583,0.18,0.1738,0.2018,0.2578,0.3194,0.3645,0.3813,0.4036,0.4204,0.4372,0.4536,0.4763,0.5043,0.527,0.5382,0.5382,0.5382,0.5382,0.5382,0.5382,0.5382,0.5382,0.5382,0.5382,0.5437,0.5489,0.5489,0.5421,0.5277,0.5157,0.5242,0.5387,0.5836,0.6275,0.6856,0.7356,0.7967,0.8075,0.811,0.8021,0.7883,0.8112,0.8295,0.8394,0.8362,0.8764,0.9061,0.915,0.9131,0.9166,0.9228,0.9439,0.9578,0.9739,0.9706,0.9596,0.9596,-0.0219,-0.0657,-0.1022,-0.1459,-0.1822,-0.2187,-0.3061,-0.4228,-0.4592,-0.5535,-0.6918,-0.6631,-0.6322,-0.6004,-0.5535,-0.513,-0.4811,-0.4249,-0.3536,-0.2626,-0.1652,-0.0825,-0.0553,-0.076,-0.1305,-0.1575,-0.206,-0.2184,-0.1415,-0.0544,0.0271,0.0877,0.101,0.0875,0.0606,0.0336,0.0134,0.0,0.0,0.0,0.0,0.0,0.0,0.0,0.0,0.0,0.0,0.0,0.0,0.0,0.0,0.0,0.0,0.029,0.0572,0.0853,0.1131,0.1459,0.1738,0.2076,0.2412,0.2805,0.3306,0.353,0.3701,0.3813,0.3924,0.4092,0.4257,0.448,0.4819,0.5098,0.5326,0.5326,0.5382,0.5382,0.5382,0.5382,0.5382,0.5382,0.5382,0.5382,0.5437,0.5433,0.5409,0.5324,0.5206,0.512,0.5169,0.5329,0.551,0.5962,0.6439,0.6936,0.7379,0.7325,0.7276,0.7287,0.7194,0.7315,0.7448,0.7648,0.7992,0.8378,0.8646,0.8809,0.892,0.901,0.9182,0.9368,0.943,0.943,0.9493,0.943,0.943,-0.0219,-0.0657,-0.1022,-0.1459,-0.1822,-0.2187,-0.2771,-0.3718,-0.4519,-0.561,-0.6769,-0.6478,-0.6073,-0.5733,-0.5276,-0.4876,-0.4407,-0.3521,-0.2606,-0.1846,-0.0816,0.0203,0.0473,0.0203,-0.0543,-0.1147,-0.1623,-0.1691,-0.1009,-0.0472,0.0404,0.1278,0.1478,0.1275,0.1076,0.0673,0.0334,0.0,0.0,0.0,0.0,0.0,0.0,0.0,0.0,0.0,0.0,0.0,0.0,0.0,0.0,0.0,0.0,0.0,0.0507,0.0787,0.1123,0.1402,0.1738,0.202,0.2356,0.2692,0.3082,0.3306,0.353,0.3645,0.3701,0.3868,0.4036,0.4316,0.4651,0.4931,0.5098,0.5214,0.527,0.5382,0.5382,0.5382,0.5382,0.5382,0.5382,0.5382,0.5382,0.5373,0.5333,0.5271,0.5169,0.5128,0.5186,0.5137,0.5256,0.5502,0.5923,0.6222,0.6554,0.6463,0.6417,0.6432,0.6427,0.6473,0.6861,0.7265,0.766,0.7992,0.8491,0.8885,0.894,0.8933,0.9051,0.9161,0.9106,0.9051,0.9161,0.9272,0.921,-0.0219,-0.0657,-0.1022,-0.1459,-0.1822,-0.2187,-0.2771,-0.3646,-0.4808,-0.5901,-0.6395,-0.6141,-0.5743,-0.5341,-0.4914,-0.4589,-0.4213,-0.3273,-0.2369,-0.1488,-0.0202,0.0674,0.101,0.0741,0.0202,-0.0202,-0.0807,-0.0941,0.0,0.0067,0.0808,0.1682,0.187,0.1594,0.1129,0.0663,0.0396,0.0326,0.0,0.0,0.0,0.0,0.0,0.0,0.0,0.0,0.0,0.0,0.0,0.0,0.0,0.0,0.0,0.0,0.0281,0.0561,0.0841,0.129,0.1626,0.1908,0.2076,0.2412,0.2802,0.3082,0.325,0.3474,0.3645,0.3757,0.3924,0.4092,0.426,0.4536,0.4763,0.4987,0.5098,0.5214,0.527,0.5382,0.5382,0.5382,0.5382,0.5382,0.5382,0.5377,0.5345,0.5288,0.5198,0.5091,0.5132,0.4915,0.4923,0.5064,0.5359,0.5571,0.5708,0.5596,0.5541,0.5596,0.5541,0.5425,0.5931,0.6654,0.7326,0.7715,0.8325,0.894,0.894,0.894,0.894,0.894,0.894,0.894,0.8995,0.9051,0.8995,-0.0292,-0.0803,-0.1095,-0.1532,-0.1968,-0.2187,-0.2915,-0.401,-0.5098,-0.5898,-0.6177,-0.5822,-0.5412,-0.5085,-0.4658,-0.4035,-0.375,-0.2636,-0.1615,-0.0807,0.0471,0.1212,0.1346,0.1212,0.0875,0.0538,0.0135,0.0135,0.0606,0.0673,0.1279,0.1879,0.2125,0.1843,0.1443,0.111,0.0845,0.0644,0.0,0.0,0.0,0.0,0.0,0.0,0.0,0.0,0.0,0.0,0.0,0.0,0.0,0.0,0.0,0.0,0.0,0.0393,0.0841,0.1234,0.1514,0.1738,0.1908,0.2076,0.2522,0.2858,0.3026,0.3306,0.3474,0.3589,0.3757,0.3924,0.4036,0.4313,0.4536,0.4763,0.5043,0.5158,0.527,0.5382,0.5382,0.5382,0.5382,0.5382,0.5382,0.5373,0.5357,0.5296,0.523,0.5136,0.4992,0.4828,0.4621,0.4738,0.4753,0.4853,0.4871,0.4704,0.4704,0.476,0.4704,0.4648,0.4983,0.5652,0.6543,0.7382,0.7875,0.838,0.8768,0.894,0.894,0.894,0.894,0.894,0.894,0.894,0.894,-0.0511,-0.1168,-0.1241,-0.1605,-0.226,-0.2405,-0.3279,-0.4665,-0.5096,-0.568,-0.6261,-0.5457,-0.518,-0.4975,-0.4558,-0.3818,-0.2836,-0.1749,-0.074,0.0336,0.1346,0.1683,0.1818,0.1818,0.1481,0.101,0.0808,0.0942,0.1144,0.1212,0.1616,0.2012,0.2117,0.2029,0.1817,0.1607,0.1277,0.1015,0.0699,0.0506,0.0376,0.0,0.0,0.0,0.0,0.0,0.0,0.0,0.0,0.0,0.0,0.0,0.0,0.0,0.0,0.0449,0.0953,0.1121,0.1346,0.1626,0.1738,0.1908,0.2076,0.2522,0.2858,0.3082,0.3306,0.3474,0.3589,0.3757,0.3924,0.4201,0.448,0.4763,0.5043,0.5214,0.5326,0.5382,0.5382,0.5382,0.5382,0.5382,0.5382,0.5373,0.5365,0.5273,0.5174,0.4943,0.4858,0.4669,0.4514,0.4416,0.4367,0.4136,0.4036,0.4089,0.4089,0.4201,0.4201,0.4204,0.448,0.4927,0.5875,0.671,0.7315,0.7875,0.8602,0.8885,0.894,0.894,0.8885,0.894,0.894,0.894,0.894,-0.073,-0.1241,-0.1532,-0.1895,-0.2405,-0.3207,-0.3862,-0.4299,-0.4878,-0.5389,-0.5535,-0.5266,-0.4996,-0.4617,-0.4379,-0.3654,-0.2627,-0.1613,-0.0538,0.0606,0.1683,0.1953,0.2088,0.2088,0.1952,0.1818,0.175,0.1818,0.1818,0.1818,0.1885,0.2148,0.2105,0.2078,0.2054,0.1897,0.1629,0.1374,0.1067,0.0815,0.0563,0.0375,0.025,0.0,0.0,0.0,0.0,0.0,0.0,0.0,0.0,0.0,0.0,0.0,0.0112,0.0336,0.0617,0.0785,0.1177,0.1402,0.1514,0.1738,0.1908,0.2076,0.241,0.2802,0.3082,0.3306,0.3474,0.3645,0.3757,0.398,0.4257,0.4536,0.4819,0.5043,0.5214,0.5382,0.5382,0.5382,0.5382,0.5382,0.5382,0.5382,0.5369,0.5293,0.517,0.4886,0.4705,0.4515,0.434,0.4182,0.4095,0.3918,0.3757,0.381,0.3701,0.3701,0.3757,0.3868,0.4148,0.4651,0.5429,0.6265,0.7149,0.7986,0.8768,0.8885,0.894,0.8885,0.8878,0.8885,0.894,0.8905,0.8898,-0.073,-0.1168,-0.1459,-0.175,-0.2333,-0.3496,-0.3935,-0.3862,-0.4735,-0.5174,-0.5159,-0.4964,-0.4692,-0.4533,-0.43,-0.3499,-0.2017,-0.1344,-0.0336,0.1278,0.1818,0.2088,0.2223,0.2223,0.2155,0.2223,0.2223,0.2088,0.2223,0.2223,0.2223,0.2217,0.2094,0.2135,0.2049,0.2015,0.1922,0.1674,0.1368,0.1123,0.0873,0.0624,0.0376,0.0187,0.0124,0.0,0.0,0.0,0.0,0.0,0.0,0.0,0.0,0.0,0.0,0.0224,0.0393,0.0561,0.0897,0.1177,0.1402,0.157,0.1738,0.1908,0.2076,0.2412,0.2802,0.3082,0.3306,0.3474,0.3589,0.3757,0.3977,0.4257,0.454,0.4819,0.5043,0.5326,0.5382,0.5382,0.5382,0.5382,0.5382,0.5382,0.5326,0.5146,0.5027,0.4801,0.4571,0.4391,0.4159,0.3941,0.3845,0.3757,0.3645,0.3589,0.3589,0.3589,0.3645,0.3757,0.3924,0.4204,0.4815,0.5931,0.7154,0.7875,0.8546,0.8823,0.8885,0.8892,0.8801,0.8765,0.8847,0.8999,0.891,-0.0511,-0.1241,-0.1239,-0.1528,-0.2037,-0.3417,-0.3635,-0.313,-0.4506,-0.5165,-0.5066,-0.4746,-0.4407,-0.4167,-0.4015,-0.2894,-0.1681,-0.0874,0.0067,0.2088,0.2088,0.2223,0.2223,0.2223,0.2223,0.2223,0.2223,0.2223,0.229,0.229,0.2356,0.2218,0.2225,0.2194,0.212,0.2068,0.1978,0.1856,0.1679,0.15,0.1309,0.0938,0.0564,0.0435,0.0247,0.0,0.0,0.0,0.0,0.0,0.0,0.0,0.0,0.0,0.0,0.0056,0.0224,0.0449,0.0673,0.1009,0.129,0.1458,0.1626,0.1794,0.1964,0.2188,0.2578,0.2802,0.3026,0.325,0.3418,0.3645,0.3868,0.4092,0.4372,0.4596,0.4819,0.5043,0.527,0.527,0.527,0.527,0.5214,0.5158,0.4987,0.4875,0.4819,0.4704,0.448,0.4195,0.4024,0.3798,0.3807,0.3757,0.3645,0.3589,0.3589,0.3589,0.3589,0.3645,0.3757,0.398,0.4201,0.5429,0.6654,0.7487,0.8097,0.838,0.8621,0.8667,0.8631,0.8601,0.8696,0.8867,0.8817,-0.073,-0.1239,-0.1805,-0.1942,-0.1941,-0.309,-0.3377,-0.3016,-0.4164,-0.4737,-0.4723,-0.4518,-0.4038,-0.3445,-0.346,-0.2422,-0.1009,-0.0404,0.0404,0.1414,0.1953,0.2223,0.2223,0.2223,0.2223,0.2223,0.2223,0.2357,0.2559,0.2559,0.2558,0.2551,0.249,0.2388,0.2124,0.2069,0.204,0.1978,0.1922,0.1685,0.1502,0.1369,0.1118,0.0747,0.0374,0.0185,0.0,0.0,0.0,0.0,0.0,0.0,0.0,0.0,0.0,0.0,0.0,0.0336,0.0617,0.0897,0.1177,0.1514,0.1738,0.1738,0.1908,0.2076,0.23,0.2522,0.2746,0.3026,0.325,0.353,0.3757,0.3924,0.4148,0.4372,0.4592,0.4875,0.5102,0.5158,0.5098,0.5043,0.4987,0.4875,0.4707,0.4648,0.4592,0.448,0.426,0.4033,0.403,0.3863,0.3921,0.3868,0.3701,0.3589,0.3589,0.3589,0.3589,0.3589,0.3589,0.3866,0.4201,0.5039,0.5986,0.6831,0.7499,0.7887,0.8134,0.8389,0.8439,0.8363,0.8368,0.8481,0.8493,-0.0584,-0.102,-0.1583,-0.1718,-0.1787,-0.2702,-0.2977,-0.2906,-0.3966,-0.4518,-0.4493,-0.4388,-0.3873,-0.3015,-0.2978,-0.1951,-0.0471,0.0067,0.0875,0.1548,0.1885,0.2088,0.2223,0.2223,0.2357,0.2357,0.2625,0.2759,0.2894,0.2894,0.289,0.2948,0.2819,0.2644,0.2313,0.2261,0.21,0.2038,0.2038,0.1862,0.1689,0.1554,0.1363,0.0995,0.0683,0.0432,0.0247,0.0,0.0,0.0,0.0,0.0,0.0,0.0,0.0,0.0,0.0,0.0168,0.0561,0.0841,0.1009,0.1346,0.1738,0.1738,0.1626,0.1794,0.2076,0.2298,0.241,0.2634,0.3026,0.3362,0.353,0.3701,0.398,0.4204,0.4424,0.4648,0.4819,0.4819,0.4763,0.4763,0.4707,0.4707,0.4536,0.4316,0.426,0.4201,0.398,0.3868,0.3868,0.3868,0.3868,0.3813,0.3645,0.3589,0.3589,0.3589,0.3589,0.3589,0.3586,0.3866,0.4257,0.477,0.5394,0.613,0.6746,0.727,0.7918,0.8311,0.8284,0.8129,0.8188,0.8166,0.809,-0.0219,-0.0654,-0.1003,-0.1139,-0.135,-0.232,-0.2586,-0.2515,-0.3844,-0.4447,-0.434,-0.4258,-0.3769,-0.3069,-0.2506,-0.1214,-0.0202,0.0539,0.1346,0.1683,0.2088,0.2155,0.2223,0.2223,0.2357,0.2559,0.2827,0.2959,0.3161,0.3228,0.3291,0.3276,0.3093,0.2904,0.2685,0.245,0.2222,0.2038,0.2038,0.2038,0.1855,0.173,0.1546,0.1298,0.0926,0.0556,0.0432,0.0,0.0,0.0,0.0,0.0,0.0,0.0,0.0,0.0,0.0,0.0,0.0449,0.0673,0.0841,0.1065,0.1458,0.157,0.1402,0.157,0.1851,0.2076,0.2188,0.2356,0.2802,0.3138,0.3306,0.3474,0.3754,0.4036,0.4257,0.4424,0.448,0.448,0.448,0.4424,0.4424,0.4424,0.4257,0.4036,0.3924,0.3757,0.3701,0.3701,0.3701,0.3701,0.3701,0.3645,0.3589,0.3589,0.3589,0.353,0.353,0.353,0.353,0.3586,0.3762,0.4173,0.4799,0.5503,0.6209,0.6801,0.7467,0.8078,0.7956,0.7829,0.788,0.7844,0.7646,-0.0218,-0.0645,-0.098,-0.0971,-0.0969,-0.2208,-0.255,-0.2481,-0.3723,-0.4406,-0.4179,-0.3596,-0.2768,-0.1485,-0.1079,-0.0202,0.0606,0.1144,0.1144,0.1346,0.2021,0.2155,0.222,0.2283,0.2289,0.2484,0.2747,0.2957,0.327,0.3479,0.3694,0.3682,0.3201,0.2962,0.263,0.2391,0.216,0.2038,0.2038,0.2038,0.2038,0.1853,0.173,0.1483,0.1112,0.0803,0.0494,0.0185,0.0,0.0,0.0,0.0,0.0,0.0,0.0,0.0,0.0,0.0,0.0393,0.0505,0.0617,0.0841,0.1177,0.129,0.1234,0.1346,0.1626,0.1908,0.202,0.2188,0.2522,0.2858,0.3138,0.325,0.3474,0.3757,0.4036,0.4092,0.4201,0.4201,0.4204,0.4148,0.4092,0.4036,0.3866,0.3757,0.3757,0.3645,0.3645,0.3645,0.3589,0.353,0.353,0.3589,0.3589,0.353,0.353,0.3474,0.3421,0.3316,0.3204,0.3141,0.3375,0.387,0.4351,0.5004,0.5656,0.6436,0.699,0.7561,0.7519,0.7451,0.7571,0.7637,0.7557]}]]